[[{"header":{"parameterUnit":"m.s-1","parameterCategory":1,"la1":30.6,"la2":28.766,"lo1":-90.7593,"lo2":-88.6598,"dx":0.0162,"dy":0.0183,"nx":116,"ny":114,"refTime":"2022-12-15T06:00:00:Z","depth":0,"parameterNumber":2,"parameterNumberName":"U-component_of_WINDS"},"data":[0.0,0.0,0.0,0.0,0.0,0.0,0.0,0.0,0.0,0.0,0.0,0.0,0.0,0.0,0.0,0.0,0.0,0.0,0.0,0.0,0.0,0.0,0.0,0.0,0.0,0.0,0.0,0.0,0.0,0.0,0.0,0.0,0.0,0.0,0.0,0.0,0.0,0.0,0.0,0.0,0.0,0.0,0.0,0.0,0.0,0.0,0.0,0.0,0.0,0.0,0.0,0.0,0.0,0.0,0.0,0.0,0.0,0.0,0.0,0.0,0.0,0.0,0.0,0.0,0.0,0.0,0.0,0.0,0.0,0.0,0.0,0.0,0.0,0.0,0.0,0.0,0.0,0.0,0.0,0.0,0.0,0.0,0.0,0.0,0.0,0.0,0.0,0.0,0.0,0.0,0.0,0.0,0.0,0.0,0.0,0.0,0.0,0.0,0.0,0.0,0.0,0.0,0.0,0.0,0.0,0.0,0.0,0.0,0.0,0.0,0.0,0.0,0.0,0.0,0.0,0.0,0.0,0.0,0.0,0.0,0.0,0.0,0.0,0.0,0.0,0.0,0.0,0.0,0.0,0.0,0.0,0.0,0.0,0.0,0.0,0.0,0.0,0.0,0.0,0.0,0.0,0.0,0.0,0.0,0.0,0.0,0.0,0.0,0.0,0.0,0.0,0.0,0.0,0.0,0.0,0.0,0.0,0.0,0.0,0.0,0.0,0.0,0.0,0.0,0.0,0.0,0.0,0.0,0.0,0.0,0.0,0.0,0.0,0.0,0.0,0.0,0.0,0.0,0.0,0.0,0.0,0.0,0.0,0.0,0.0,0.0,0.0,0.0,0.0,0.0,0.0,0.0,0.0,0.0,0.0,0.0,0.0,0.0,0.0,0.0,0.0,0.0,0.0,0.0,0.0,0.0,0.0,0.0,0.0,0.0,0.0,0.0,0.0,0.0,0.0,0.0,0.0,0.0,0.0,0.0,0.0,0.0,0.0,0.0,0.0,0.0,0.0,0.0,0.0,0.0,0.0,0.0,0.0,0.0,0.0,0.0,0.0,0.0,0.0,0.0,0.0,0.0,0.0,0.0,0.0,0.0,0.0,0.0,0.0,0.0,0.0,0.0,0.0,0.0,0.0,0.0,0.0,0.0,0.0,0.0,0.0,0.0,0.0,0.0,0.0,0.0,0.0,0.0,0.0,0.0,0.0,0.0,0.0,0.0,0.0,0.0,0.0,0.0,0.0,0.0,0.0,0.0,0.0,0.0,0.0,0.0,0.0,0.0,0.0,0.0,0.0,0.0,0.0,0.0,0.0,0.0,0.0,0.0,0.0,0.0,0.0,0.0,0.0,0.0,0.0,0.0,0.0,0.0,0.0,0.0,0.0,0.0,0.0,0.0,0.0,0.0,0.0,0.0,0.0,0.0,0.0,0.0,0.0,0.0,0.0,0.0,0.0,0.0,0.0,0.0,0.0,0.0,0.0,0.0,0.0,0.0,0.0,0.0,0.0,0.0,0.0,0.0,0.0,0.0,0.0,0.0,0.0,0.0,0.0,0.0,0.0,0.0,0.0,0.0,0.0,0.0,0.0,0.0,0.0,0.0,0.0,0.0,0.0,0.0,0.0,0.0,0.0,0.0,0.0,0.0,0.0,0.0,0.0,0.0,0.0,0.0,0.0,0.0,0.0,0.0,0.0,0.0,0.0,0.0,0.0,0.0,0.0,0.0,0.0,0.0,0.0,0.0,0.0,0.0,0.0,0.0,0.0,0.0,0.0,0.0,0.0,0.0,0.0,0.0,0.0,0.0,0.0,0.0,0.0,0.0,0.0,0.0,0.0,0.0,0.0,0.0,0.0,0.0,0.0,0.0,0.0,0.0,0.0,0.0,0.0,0.0,0.0,0.0,0.0,0.0,0.0,0.0,0.0,0.0,0.0,0.0,0.0,0.0,0.0,0.0,0.0,0.0,0.0,0.0,0.0,0.0,0.0,0.0,0.0,0.0,0.0,0.0,0.0,0.0,0.0,0.0,0.0,0.0,0.0,0.0,0.0,0.0,0.0,0.0,0.0,0.0,0.0,0.0,0.0,0.0,0.0,0.0,0.0,0.0,0.0,0.0,0.0,0.0,0.0,0.0,0.0,0.0,0.0,0.0,0.0,0.0,0.0,0.0,0.0,0.0,0.0,0.0,0.0,0.0,0.0,0.0,0.0,0.0,0.0,0.0,0.0,0.0,0.0,0.0,0.0,0.0,0.0,0.0,0.0,0.0,0.0,0.0,0.0,0.0,0.0,0.0,0.0,0.0,0.0,0.0,0.0,0.0,0.0,0.0,0.0,0.0,0.0,0.0,0.0,0.0,0.0,0.0,0.0,0.0,0.0,0.0,0.0,0.0,0.0,0.0,0.0,0.0,0.0,0.0,0.0,0.0,0.0,0.0,0.0,0.0,0.0,0.0,0.0,0.0,0.0,0.0,0.0,0.0,0.0,0.0,0.0,0.0,0.0,0.0,0.0,0.0,0.0,0.0,0.0,0.0,0.0,0.0,0.0,0.0,0.0,0.0,0.0,0.0,0.0,0.0,0.0,0.0,0.0,0.0,0.0,0.0,0.0,0.0,0.0,0.0,0.0,0.0,0.0,0.0,0.0,0.0,0.0,0.0,0.0,0.0,0.0,0.0,0.0,0.0,0.0,0.0,0.0,0.0,0.0,0.0,0.0,0.0,0.0,0.0,0.0,0.0,0.0,0.0,0.0,0.0,0.0,0.0,0.0,0.0,0.0,0.0,0.0,0.0,0.0,0.0,0.0,0.0,0.0,0.0,0.0,0.0,0.0,0.0,0.0,0.0,0.0,0.0,0.0,0.0,0.0,0.0,0.0,0.0,0.0,0.0,0.0,0.0,0.0,0.0,0.0,0.0,0.0,0.0,0.0,0.0,0.0,0.0,0.0,0.0,0.0,0.0,0.0,0.0,0.0,0.0,0.0,0.0,0.0,0.0,0.0,0.0,0.0,0.0,0.0,0.0,0.0,0.0,0.0,0.0,0.0,0.0,0.0,0.0,0.0,0.0,0.0,0.0,0.0,0.0,0.0,0.0,0.0,0.0,0.0,0.0,0.0,0.0,0.0,0.0,0.0,0.0,0.0,0.0,0.0,0.0,0.0,0.0,0.0,0.0,0.0,0.0,0.0,0.0,0.0,0.0,0.0,0.0,0.0,0.0,0.0,0.0,0.0,0.0,0.0,0.0,0.0,0.0,0.0,0.0,0.0,0.0,0.0,0.0,0.0,0.0,0.0,0.0,0.0,0.0,0.0,0.0,0.0,0.0,0.0,0.0,0.0,0.0,0.0,0.0,0.0,0.0,0.0,0.0,0.0,0.0,0.0,0.0,0.0,0.0,0.0,0.0,0.0,0.0,0.0,0.0,0.0,0.0,0.0,0.0,0.0,0.0,0.0,0.0,0.0,0.0,0.0,0.0,0.0,0.0,0.0,0.0,0.0,0.0,0.0,0.0,0.0,0.0,0.0,0.0,0.0,0.0,0.0,0.0,0.0,0.0,0.0,0.0,0.0,0.0,0.0,0.0,0.0,0.0,0.0,0.0,0.0,0.0,0.0,0.0,0.0,0.0,0.0,0.0,0.0,0.0,0.0,0.0,0.0,0.0,0.0,0.0,0.0,0.0,0.0,0.0,0.0,0.0,0.0,0.0,0.0,0.0,0.0,0.0,0.0,0.0,0.0,0.0,0.0,0.0,0.0,0.0,0.0,0.0,0.0,0.0,0.0,0.0,0.0,0.0,0.0,0.0,0.0,0.0,0.0,0.0,0.0,0.0,0.0,0.0,0.0,0.0,0.0,0.0,0.0,0.0,0.0,0.0,0.0,0.0,0.0,0.0,0.0,0.0,0.0,0.0,0.0,0.0,0.0,0.0,0.0,0.0,0.0,0.0,0.0,0.0,0.0,0.0,0.0,0.0,0.0,0.0,0.0,0.0,0.0,0.0,0.0,0.0,0.0,0.0,0.0,0.0,0.0,0.0,0.0,0.0,0.0,0.0,0.0,0.0,0.0,0.0,0.0,0.0,0.0,0.0,0.0,0.0,0.0,0.0,0.0,0.0,0.0,0.0,0.0,0.0,0.0,0.0,0.0,0.0,0.0,0.0,0.0,0.0,0.0,0.0,0.0,0.0,0.0,0.0,0.0,0.0,0.0,0.0,0.0,0.0,0.0,0.0,0.0,0.0,0.0,0.0,0.0,0.0,0.0,0.0,0.0,0.0,0.0,0.0,0.0,0.0,0.0,0.0,0.0,0.0,0.0,0.0,0.0,0.0,0.0,0.0,0.0,0.0,0.0,0.0,0.0,0.0,0.0,0.0,0.0,0.0,0.0,0.0,0.0,0.0,0.0,0.0,0.0,0.0,0.0,0.0,0.0,0.0,0.0,0.0,0.0,0.0,0.0,0.0,0.0,0.0,0.0,0.0,0.0,0.0,0.0,0.0,0.0,0.0,0.0,0.0,0.0,0.0,0.0,0.0,0.0,0.0,0.0,0.0,0.0,0.0,0.0,0.0,0.0,0.0,0.0,0.0,0.0,0.0,0.0,0.0,0.0,0.0,0.0,0.0,0.0,0.0,0.0,0.0,0.0,0.0,0.0,0.0,0.0,0.0,0.0,0.0,0.0,0.0,0.0,0.0,0.0,0.0,0.0,0.0,0.0,0.0,0.0,0.0,0.0,0.0,0.0,0.0,0.0,0.0,0.0,0.0,0.0,0.0,0.0,0.0,0.0,0.0,0.0,0.0,0.0,0.0,0.0,0.0,0.0,0.0,0.0,0.0,0.0,0.0,0.0,0.0,0.0,0.0,0.0,0.0,0.0,0.0,0.0,0.0,0.0,0.0,0.0,0.0,0.0,0.0,0.0,0.0,0.0,0.0,0.0,0.0,0.0,0.0,0.0,0.0,0.0,0.0,0.0,0.0,0.0,0.0,0.0,0.0,0.0,0.0,0.0,0.0,0.0,0.0,0.0,0.0,0.0,0.0,0.0,0.0,0.0,0.0,0.0,0.0,0.0,0.0,0.0,0.0,0.0,0.0,0.0,0.0,0.0,0.0,0.0,0.0,0.0,0.0,0.0,0.0,0.0,0.0,0.0,0.0,0.0,0.0,0.0,0.0,0.0,0.0,0.0,0.0,0.0,0.0,0.0,0.0,0.0,0.0,0.0,0.0,0.0,0.0,0.0,0.0,0.0,0.0,0.0,0.0,0.0,0.0,0.0,0.0,0.0,0.0,0.0,0.0,0.0,0.0,0.0,0.0,0.0,0.0,0.0,0.0,0.0,0.0,0.0,0.0,0.0,0.0,0.0,0.0,0.0,0.0,0.0,0.0,0.0,0.0,0.0,0.0,0.0,0.0,0.0,0.0,0.0,0.0,0.0,0.0,0.0,0.0,0.0,0.0,0.0,0.0,0.0,0.0,0.0,0.0,0.0,0.0,0.0,0.0,0.0,0.0,0.0,0.0,0.0,0.0,0.0,0.0,0.0,0.0,0.0,0.0,0.0,0.0,0.0,0.0,0.0,0.0,0.0,0.0,0.0,0.0,0.0,0.0,0.0,0.0,0.0,0.0,0.0,0.0,0.0,0.0,0.0,0.0,0.0,0.0,0.0,0.0,0.0,0.0,0.0,0.0,0.0,0.0,0.0,0.0,0.0,0.0,0.0,0.0,0.0,0.0,0.0,0.0,0.0,0.0,0.0,0.0,0.0,0.0,0.0,0.0,0.0,0.0,0.0,0.0,0.0,0.0,0.0,0.0,0.0,0.0,0.0,0.0,0.0,0.0,0.0,0.0,0.0,0.0,0.0,0.0,0.0,0.0,0.0,0.0,0.0,0.0,0.0,0.0,0.0,0.0,0.0,0.0,0.0,0.0,0.0,0.0,0.0,0.0,0.0,0.0,0.0,0.0,0.0,0.0,0.0,0.0,0.0,0.0,0.0,0.0,0.0,0.0,0.0,0.0,0.0,0.0,0.0,0.0,0.0,0.0,0.0,0.0,0.0,0.0,0.0,0.0,0.0,0.0,0.0,0.0,0.0,0.0,0.0,0.0,0.0,0.0,0.0,0.0,0.0,0.0,4.4479,4.3728,0.0,0.0,0.0,0.0,0.0,0.0,0.0,0.0,0.0,0.0,0.0,0.0,0.0,0.0,0.0,0.0,0.0,0.0,0.0,0.0,0.0,0.0,0.0,2.655,2.668,2.6993,2.6798,0.0,0.0,0.0,0.0,0.0,0.0,0.0,0.0,0.0,2.847,2.8983,3.0063,3.1585,3.3453,3.2704,3.2382,3.2382,0.0,0.0,0.0,0.0,0.0,0.0,0.0,0.0,0.0,0.0,0.0,0.0,0.0,0.0,0.0,0.0,0.0,0.0,0.0,0.0,0.0,0.0,0.0,0.0,0.0,0.0,0.0,0.0,0.0,0.0,0.0,0.0,0.0,0.0,0.0,0.0,0.0,0.0,0.0,0.0,0.0,0.0,0.0,0.0,0.0,0.0,0.0,0.0,0.0,0.0,0.0,0.0,0.0,0.0,0.0,0.0,0.0,0.0,0.0,0.0,0.0,0.0,0.0,0.0,0.0,0.0,0.0,0.0,0.0,0.0,4.6296,4.5741,0.0,0.0,0.0,0.0,0.0,0.0,0.0,0.0,0.0,0.0,0.0,0.0,0.0,0.0,0.0,0.0,0.0,0.0,0.0,0.0,0.0,2.5309,2.5561,2.5605,2.5839,2.6468,2.6061,2.5897,2.6092,2.5883,0.0,0.0,0.0,0.0,2.6954,2.7855,2.8929,3.0082,3.1916,3.3576,3.5014,3.514,3.5232,3.5322,3.4106,0.0,0.0,0.0,0.0,0.0,0.0,0.0,0.0,0.0,0.0,0.0,0.0,0.0,0.0,0.0,0.0,0.0,0.0,0.0,0.0,0.0,0.0,0.0,0.0,0.0,0.0,0.0,0.0,0.0,0.0,0.0,0.0,0.0,0.0,0.0,0.0,0.0,0.0,0.0,0.0,0.0,0.0,0.0,0.0,0.0,0.0,0.0,0.0,0.0,0.0,0.0,0.0,0.0,0.0,0.0,0.0,0.0,0.0,0.0,0.0,0.0,0.0,0.0,4.7527,4.7773,4.7804,4.8337,4.8583,4.8522,4.7434,4.725,4.7681,4.6449,0.0,0.0,0.0,0.0,0.0,0.0,0.0,0.0,0.0,0.0,0.0,0.0,0.0,0.0,0.0,0.0,0.0,0.0,0.0,2.6131,2.6334,2.5704,2.5591,2.6427,2.6327,2.6419,2.6901,2.6466,2.6432,2.6894,2.6999,2.7589,2.8722,2.8839,2.9923,3.2012,3.4522,3.6212,3.7107,3.757,3.8148,3.8707,3.5691,3.4412,3.4505,0.0,0.0,0.0,0.0,0.0,0.0,0.0,0.0,0.0,0.0,0.0,0.0,0.0,0.0,0.0,0.0,0.0,0.0,0.0,0.0,0.0,0.0,0.0,0.0,0.0,0.0,0.0,0.0,0.0,0.0,0.0,0.0,0.0,0.0,0.0,0.0,0.0,0.0,0.0,0.0,0.0,4.3039,4.2982,0.0,0.0,0.0,0.0,0.0,0.0,0.0,0.0,0.0,0.0,0.0,0.0,0.0,4.688,4.7465,4.7465,4.7773,4.8337,4.843,4.8481,4.846,4.8553,4.8583,4.8583,4.8399,0.0,4.8399,4.765,0.0,0.0,0.0,0.0,0.0,0.0,0.0,0.0,0.0,0.0,0.0,0.0,0.0,0.0,0.0,0.0,0.0,0.0,0.0,0.0,0.0,2.6253,2.6682,2.6867,2.7312,2.7639,2.7775,2.7471,2.7365,2.7485,2.7776,2.8282,2.9018,2.9937,3.1491,3.3701,3.5342,3.6488,3.7218,3.7829,3.8513,3.9264,3.7795,3.6982,3.6722,3.6369,0.0,0.0,0.0,0.0,0.0,0.0,0.0,0.0,0.0,0.0,0.0,0.0,0.0,0.0,0.0,0.0,0.0,0.0,0.0,0.0,0.0,0.0,0.0,0.0,0.0,0.0,0.0,0.0,0.0,0.0,0.0,0.0,0.0,0.0,0.0,0.0,0.0,0.0,0.0,4.3236,4.3845,4.4469,4.4638,4.4868,0.0,0.0,0.0,0.0,0.0,0.0,0.0,0.0,0.0,4.7711,4.7742,4.7865,4.8153,4.8573,4.8912,4.922,4.9589,4.9774,4.9774,4.9774,4.9774,4.9774,4.9774,4.9774,4.9743,4.9066,4.9395,5.0174,0.0,0.0,0.0,0.0,5.0195,5.0266,0.0,0.0,0.0,0.0,0.0,0.0,0.0,0.0,0.0,0.0,0.0,0.0,2.6166,2.7412,2.8158,2.7888,2.8663,2.9015,2.8732,2.8832,2.8883,2.8781,2.9188,2.9627,3.0086,3.188,3.3608,3.5254,3.623,3.704,3.7754,3.7988,3.8552,3.9376,3.9376,3.9163,3.8707,3.8214,3.7615,3.6922,0.0,0.0,0.0,0.0,0.0,0.0,0.0,0.0,0.0,0.0,0.0,0.0,0.0,0.0,0.0,0.0,0.0,0.0,0.0,0.0,0.0,0.0,0.0,0.0,0.0,0.0,0.0,0.0,0.0,0.0,0.0,0.0,0.0,0.0,0.0,0.0,0.0,4.433,4.4953,4.583,4.6052,4.6296,0.0,0.0,0.0,0.0,0.0,0.0,4.8112,4.8142,4.845,4.9127,4.9158,4.9158,4.9158,4.9682,4.998,4.998,5.0451,5.0697,5.0697,5.0697,5.0697,5.0697,5.0697,5.0697,5.0667,5.0143,5.0328,5.0913,5.0389,5.0513,5.0913,5.0574,5.0667,5.0974,0.0,0.0,0.0,0.0,0.0,0.0,0.0,0.0,0.0,0.0,0.0,2.8182,2.8668,2.9365,2.9747,2.9687,3.0281,3.0441,2.9844,3.0644,3.1217,3.1401,3.1548,3.2088,3.3061,3.5241,3.649,3.6799,3.7998,3.8964,3.9729,3.8981,3.909,3.9865,3.9865,3.971,3.9445,3.9414,3.9014,3.8258,3.6849,0.0,0.0,0.0,0.0,0.0,0.0,0.0,0.0,0.0,0.0,0.0,0.0,0.0,0.0,0.0,0.0,0.0,0.0,0.0,0.0,0.0,0.0,0.0,0.0,0.0,0.0,0.0,0.0,0.0,0.0,0.0,0.0,0.0,0.0,0.0,0.0,0.0,0.0,4.6964,4.7262,0.0,0.0,0.0,0.0,4.8491,4.8491,4.882,4.9579,4.961,4.9897,5.0574,5.0574,5.0574,5.0574,5.0636,5.0636,5.0636,5.0667,5.0697,5.0697,5.0697,5.0697,5.0697,5.0697,5.0697,5.0697,5.0667,5.1036,5.1652,5.1621,5.1621,5.1713,5.2329,5.2175,5.1744,0.0,0.0,0.0,0.0,0.0,2.4976,2.4875,2.5243,2.5758,2.6287,2.7717,2.8752,2.8881,3.0725,3.1748,3.1208,3.2151,3.2589,3.2131,3.3083,3.345,3.2909,3.3983,3.4874,3.5544,3.6487,3.7057,3.7311,3.8343,3.9069,3.9525,4.0024,4.0713,4.1504,4.1504,4.1537,4.1499,4.0267,3.9694,3.9468,3.8007,3.7137,0.0,0.0,0.0,0.0,0.0,0.0,0.0,0.0,0.0,0.0,0.0,0.0,0.0,0.0,0.0,0.0,0.0,0.0,0.0,0.0,0.0,0.0,0.0,0.0,0.0,0.0,0.0,0.0,0.0,0.0,0.0,0.0,0.0,0.0,0.0,0.0,0.0,4.7107,4.6433,0.0,4.8756,4.7668,4.7651,4.979,4.8513,4.8335,4.9987,4.9442,4.9466,5.0428,5.0848,5.1159,5.1344,5.2206,5.2637,5.2614,5.3076,5.326,5.326,5.326,5.326,5.326,5.326,5.326,5.326,5.326,5.2421,5.1067,5.1067,5.1313,5.1744,5.1959,5.2452,5.3014,0.0,0.0,0.0,0.0,2.4706,2.4745,2.5032,2.5332,2.5943,2.7177,2.8896,3.02,3.0735,3.2701,3.3715,3.3024,3.3831,3.4188,3.364,3.4605,3.4965,3.4389,3.5567,3.6569,3.7272,3.7539,3.7923,3.8436,3.924,3.9685,3.978,4.0684,4.1406,4.1973,4.1973,4.2217,4.2517,4.0972,4.0337,4.0271,3.8804,3.7968,3.7453,0.0,0.0,0.0,0.0,0.0,0.0,0.0,0.0,0.0,0.0,0.0,0.0,0.0,0.0,0.0,0.0,0.0,0.0,0.0,0.0,0.0,0.0,0.0,0.0,0.0,0.0,0.0,0.0,0.0,0.0,0.0,0.0,0.0,0.0,4.5951,4.617,4.7104,4.6704,4.6962,4.8535,4.7781,4.7958,4.9744,4.8935,4.9104,5.0762,5.048,5.0645,5.1476,5.2016,5.2329,5.2427,5.3408,5.3914,5.3914,5.4444,5.4706,5.4706,5.4706,5.4706,5.4706,5.4706,5.4706,5.4706,5.4706,5.366,5.2052,5.2052,5.2206,5.2421,5.2637,5.3137,5.3753,0.0,0.0,0.0,2.4792,2.472,2.4879,2.5183,2.5963,2.7117,2.8822,3.0753,3.2616,3.4297,3.5224,3.5582,3.5174,3.5317,3.5123,3.434,3.5177,3.577,3.6013,3.6394,3.7105,3.8239,3.8538,3.9211,4.0287,4.0857,4.0974,4.0713,4.1001,4.1141,4.1141,4.1141,4.1622,4.2362,4.1479,4.1019,4.0723,3.9319,3.8731,3.8509,0.0,0.0,0.0,0.0,0.0,0.0,0.0,0.0,0.0,0.0,0.0,0.0,0.0,0.0,0.0,0.0,0.0,0.0,0.0,0.0,0.0,0.0,0.0,0.0,0.0,0.0,0.0,0.0,0.0,0.0,0.0,0.0,0.0,4.6552,4.6515,4.6608,4.6959,4.8089,4.8313,4.6905,4.8558,4.9367,4.8479,4.9905,5.1145,5.188,5.2755,5.3472,5.3873,5.4165,5.4243,5.3982,5.4274,5.4446,5.4446,5.4712,5.4806,5.4829,5.4806,5.4806,5.4829,5.4829,5.4829,5.4829,5.4829,5.4829,5.4829,5.4737,5.4306,5.3814,5.446,5.4306,5.3968,0.0,0.0,0.0,2.4802,2.4565,2.4824,2.597,2.6436,2.7521,2.9917,3.183,3.331,3.418,3.5775,3.6473,3.5752,3.614,3.6263,3.5891,3.6863,3.7802,3.8533,3.8461,3.8691,3.943,3.9714,3.9991,4.0287,4.0879,4.1141,4.1069,4.1593,4.1928,4.2124,4.2124,4.2361,4.2712,4.2042,4.1719,4.158,4.0282,3.9536,3.9021,0.0,0.0,0.0,0.0,0.0,0.0,0.0,0.0,0.0,0.0,0.0,0.0,0.0,0.0,0.0,0.0,0.0,0.0,0.0,0.0,0.0,0.0,0.0,0.0,0.0,0.0,0.0,0.0,0.0,0.0,0.0,4.5877,4.5219,4.552,4.5948,4.6287,4.6557,4.6127,4.6401,4.7913,4.6878,4.7519,5.0877,4.9943,4.9988,5.1714,5.2171,5.2581,5.3077,5.4515,5.5522,5.6081,5.6865,5.7283,5.7283,5.7333,5.7482,5.7685,5.7457,5.7482,5.7654,5.7654,5.7654,5.7654,5.7654,5.7654,5.7469,5.5476,5.4583,5.446,5.4645,5.5253,5.6077,0.0,0.0,0.0,2.4801,2.4792,2.5264,2.6481,2.695,2.817,3.0944,3.2536,3.3873,3.5165,3.6421,3.7091,3.6878,3.6746,3.6981,3.7761,3.8632,3.9139,3.9233,3.9297,3.9554,4.0079,4.0372,4.0576,4.0718,4.1305,4.1511,4.1415,4.1883,4.219,4.2313,4.2313,4.246,4.2728,4.2352,4.2289,4.2304,4.1598,4.0811,3.9997,3.9373,3.9079,3.8971,3.8727,3.8618,3.8618,3.8618,0.0,0.0,0.0,0.0,0.0,0.0,0.0,0.0,0.0,0.0,0.0,0.0,0.0,0.0,0.0,0.0,0.0,0.0,0.0,0.0,0.0,0.0,0.0,0.0,4.5694,4.5154,4.5058,4.5461,4.6299,4.7584,4.6898,4.7075,4.8997,4.774,4.8336,5.2067,5.0808,5.0746,5.2739,5.3289,5.3636,5.3856,5.5492,5.6626,5.7197,5.7744,5.808,5.8207,5.8182,5.8334,5.8642,5.846,5.8516,5.8642,5.8768,5.8743,5.8642,5.8768,5.8818,5.8633,0.0,0.0,0.0,0.0,5.7285,5.8541,2.6676,2.6378,2.599,2.4994,2.5302,2.6043,2.696,2.7581,2.9021,3.1925,3.3024,3.4366,3.6535,3.708,3.7571,3.8213,3.7294,3.7498,3.9468,4.0069,3.9965,3.9128,3.9547,4.0071,4.0672,4.0944,4.1206,4.1402,4.1926,4.1972,4.1647,4.1919,4.2043,4.2041,4.2041,4.2215,4.2462,4.2462,4.2609,4.2801,4.2825,4.2198,4.1141,4.0571,4.068,4.1032,4.0463,4.0296,4.0296,4.0296,0.0,0.0,0.0,0.0,0.0,0.0,0.0,0.0,0.0,0.0,0.0,0.0,0.0,0.0,0.0,0.0,0.0,0.0,0.0,0.0,0.0,0.0,0.0,0.0,4.5597,4.5982,4.5257,4.5502,4.6596,4.8966,4.9056,4.916,4.9724,4.9838,5.0569,5.2353,5.1969,5.2371,5.4109,5.5147,0.0,0.0,0.0,5.7613,5.7755,5.7755,5.7885,5.8169,5.8118,5.8272,5.8578,5.8553,5.8553,5.8629,5.8857,5.8807,5.8655,5.8882,5.9008,5.9033,5.8879,5.8849,5.891,5.891,5.9747,6.0917,2.7552,2.6827,2.6245,2.6153,2.633,2.6874,2.8082,2.8681,2.9923,3.2493,3.3813,3.5044,3.6426,3.7427,3.8183,3.8568,3.8021,3.8181,3.952,3.9703,4.0278,4.148,4.1167,4.143,4.2474,4.2757,4.2625,4.2029,4.2333,4.2121,4.1399,4.1423,4.1572,4.1796,4.1796,4.1944,4.219,4.219,4.2215,4.2289,4.2484,4.2274,4.1791,4.1467,4.1221,4.1063,4.0715,4.0734,4.0924,4.0924,4.0842,4.0734,4.0734,4.0734,0.0,0.0,0.0,0.0,0.0,0.0,0.0,0.0,0.0,0.0,0.0,0.0,0.0,0.0,0.0,0.0,0.0,0.0,0.0,4.6676,4.6542,4.6691,4.7351,4.7575,4.7504,4.7129,4.9059,4.991,4.8672,4.9812,5.098,5.181,5.1745,5.2285,5.3584,5.4724,5.5618,5.6168,5.7369,5.8255,5.8791,5.9004,5.9138,5.9217,5.9191,0.0,5.97,5.9433,5.9534,5.9979,5.9827,5.9853,6.0005,6.0057,6.0213,6.0301,5.9218,5.9126,5.9593,5.9593,6.0455,6.1625,2.805,2.7321,2.6731,2.6716,2.7003,2.7647,2.8872,2.9415,3.0461,3.2568,3.3713,3.4756,3.5793,3.7038,3.802,3.8655,3.952,3.9913,3.9625,4.0671,4.1559,4.216,4.216,4.2291,4.2579,4.2996,4.2865,4.2186,4.2602,4.2576,4.2135,4.2135,4.208,4.1969,4.1969,4.1935,4.1919,4.1919,4.1993,4.209,4.2239,4.2201,4.2078,4.2223,4.2058,4.1791,4.1788,4.191,4.2005,4.2005,4.2005,4.2036,4.2214,4.2223,4.2151,0.0,0.0,0.0,0.0,0.0,0.0,0.0,0.0,0.0,0.0,0.0,0.0,0.0,0.0,4.7692,4.765,0.0,4.7431,4.7653,4.7496,4.7643,4.8478,4.913,4.9402,4.9111,5.009,5.0902,5.1229,5.1529,5.22,5.3358,5.3225,5.3488,5.4399,5.559,5.6432,5.6807,5.7967,5.8824,5.9288,5.9645,5.985,5.9985,6.021,6.0292,6.023,6.0096,5.9965,5.9955,6.0144,6.0301,6.0472,6.0966,6.1332,6.151,6.0862,6.0664,6.0824,6.1194,6.1963,6.2798,2.8538,2.8059,2.755,2.7304,2.7818,2.8574,2.9478,2.9982,3.085,3.2489,3.3376,3.4205,3.5203,3.6402,3.7498,3.8292,4.0488,4.1323,3.9993,4.1768,4.2788,4.2683,4.2997,4.2971,4.2526,4.3075,4.3023,4.2369,4.2918,4.3101,4.2997,4.2997,4.2709,4.2186,4.2186,4.1999,4.1622,4.1622,4.1746,4.1969,4.2018,4.1993,4.2018,4.2533,4.2606,4.2462,4.2606,4.2704,4.2728,4.2728,4.2809,4.2974,4.3237,4.3352,4.3332,4.2879,4.3122,0.0,0.0,0.0,0.0,0.0,0.0,0.0,0.0,4.7002,4.8242,4.7077,4.8421,4.9351,4.7741,4.8041,4.8515,4.841,4.8463,4.875,4.9352,5.0289,5.1149,5.1731,5.1624,5.2147,5.3799,5.3437,5.371,5.5104,5.4891,5.5098,5.6072,5.7082,5.7707,5.7932,5.8817,5.9477,5.9813,5.9986,6.0284,6.0626,6.0976,6.0916,6.0596,6.0596,6.0352,5.9921,6.0403,6.0654,6.0735,6.1498,6.2014,6.2317,6.2466,6.2296,6.2085,6.2687,6.3333,6.3916,2.9433,2.9293,2.9091,2.8581,2.9241,2.9902,3.0006,3.0529,3.1313,3.2542,3.3241,3.4073,3.5182,3.5857,3.6484,3.7142,3.9285,4.0749,4.1115,4.1847,4.2944,4.4355,4.4016,4.3781,4.3703,4.4251,4.3989,4.2892,4.3493,4.352,4.2997,4.2997,4.2709,4.2186,4.2186,4.1872,4.1349,4.1349,4.1374,4.1398,4.1647,4.1597,4.1448,4.1993,4.219,4.2141,4.1919,4.1993,4.2215,4.2215,4.2538,4.3018,4.3021,4.3369,4.3693,4.341,4.3729,4.4125,4.3703,4.4042,4.4643,4.5191,4.5091,4.5251,0.0,4.7245,4.7569,4.7943,4.9022,4.9498,4.8306,4.8982,4.9531,4.9061,4.9401,4.9897,5.0498,5.1126,5.1716,5.2339,5.3365,5.3658,5.278,5.4052,5.5034,5.5274,5.5309,5.6323,5.8668,5.89,5.9476,6.0613,6.0241,6.0294,6.0922,6.0383,6.0413,6.1012,6.1074,6.1074,6.1012,6.1012,6.1121,6.1278,6.136,6.1363,6.1398,6.1486,6.1712,6.2017,6.2624,6.2834,6.2829,6.3196,6.3764,6.4315,2.9539,2.9679,2.9782,2.9546,2.9841,3.0205,3.0581,3.0843,3.1411,3.2561,3.2927,3.3509,3.4659,3.5887,3.6724,3.6985,3.9079,4.0671,4.1247,4.216,4.3284,4.4643,4.4487,4.4225,4.3912,4.4121,4.399,4.352,4.3781,4.3912,4.3989,4.3989,4.3702,4.318,4.2814,4.2343,4.1794,4.1455,4.1299,4.1324,4.1398,4.1398,4.1324,4.1547,4.1622,4.1647,4.187,4.2018,0.0,4.209,4.2516,4.3026,4.3167,4.3832,4.452,4.4256,4.4832,4.5566,4.543,4.5586,4.5898,4.6445,4.6682,4.7048,4.812,4.8355,4.8512,4.9061,4.9845,5.0263,4.9793,5.008,5.0446,5.0524,5.0734,5.11,5.1701,5.2537,5.3217,5.3452,5.4252,5.4461,5.3595,5.4826,5.5754,5.5821,5.6918,5.8046,5.9132,5.9911,6.0746,6.1644,6.1403,6.1583,6.2241,6.2331,6.251,6.281,6.317,6.317,6.281,6.281,6.2713,6.2666,6.2857,6.3152,6.3466,6.3516,6.3725,6.4012,6.4314,6.4289,6.4083,6.3841,6.3916,6.416,2.9925,3.0157,3.0354,3.0354,3.0354,3.0484,3.094,3.0992,3.1339,3.2333,3.2594,3.3117,3.4267,3.5809,3.675,3.675,3.871,4.0228,4.0985,4.216,4.3284,4.4434,4.4616,4.446,4.3912,4.4043,4.4069,4.3886,4.4069,4.433,4.4695,4.4538,4.4199,4.365,4.3049,4.2474,4.1924,4.1507,4.1299,4.1299,4.1299,4.1299,4.1299,4.1299,4.1299,4.1349,4.1746,4.1895,4.1921,4.208,4.2425,4.2905,4.3571,4.4335,4.5018,4.5169,4.6029,4.705,4.7364,4.7443,4.7519,4.7908,4.8355,4.8855,4.9427,4.9587,4.9714,5.0263,5.0707,5.1021,5.1021,5.1152,5.1387,5.1779,5.1988,5.2302,5.2877,5.3687,5.4262,5.4419,5.4837,5.4994,5.4707,5.535,5.6234,5.7204,5.8586,5.9618,6.0206,6.1434,6.2219,6.2319,6.2518,6.2959,6.3617,6.3857,6.4096,6.4276,6.4755,6.4725,6.4276,6.4276,6.4153,6.3938,6.4184,6.451,6.4951,6.4992,6.5143,6.535,6.535,6.5202,6.4934,6.4441,6.4339,6.4425,3.0977,3.0966,3.0966,3.0966,3.0966,3.0992,3.0992,3.0992,3.1209,3.1745,3.2339,3.3117,3.4267,3.5443,3.6123,3.6123,3.7743,3.9233,4.0332,4.1558,4.2735,4.386,4.4434,4.446,4.3912,4.4408,4.4434,4.3886,4.4434,4.4669,4.4695,4.4147,4.3598,4.2997,4.2474,4.1898,4.1325,4.1299,4.1299,4.1299,4.1299,4.1299,4.1299,4.1299,4.1299,4.1299,4.1324,4.1324,4.1402,4.2002,4.2211,4.2525,4.4226,4.4749,4.4957,4.6081,4.726,4.841,4.9479,4.9793,4.9793,4.9819,4.9819,5.0002,5.0603,5.0734,5.089,5.1439,5.157,5.157,5.157,5.204,5.2459,5.2459,5.2955,5.353,5.4079,5.4184,5.4419,5.4994,5.5099,5.5308,5.5804,5.542,5.6483,5.9746,6.0058,6.0879,6.2664,6.4126,6.4277,6.2937,6.3565,6.4276,6.4934,6.4336,6.4336,6.4964,6.4994,6.4994,6.4964,6.4964,6.4964,6.4964,6.4964,6.4964,6.4994,6.4994,6.4994,6.5024,6.5024,6.4994,6.4994,6.4994,6.5172,6.5437,3.0992,3.0992,3.0992,3.0992,3.0992,3.0992,3.0992,3.0992,3.1182,3.1719,3.2653,0.0,0.0,0.0,0.0,0.0,3.7377,3.8658,3.9784,4.0958,4.2108,4.3258,4.3859,4.4251,4.4434,4.4251,4.4251,4.4434,4.4251,4.4356,4.4695,4.4539,4.4147,4.3572,4.2997,4.2422,4.1872,4.1481,4.1299,4.1299,4.1299,4.1299,4.1299,4.1299,4.1559,4.1898,0.0,4.1898,4.1977,4.2552,4.3232,4.3964,4.4565,4.5505,4.6654,4.7858,4.875,4.9401,4.9793,5.0185,5.0577,5.0943,5.1335,5.1675,5.1884,5.1936,5.1962,5.2145,5.2197,5.2328,5.272,5.2955,5.3086,5.3086,5.3556,5.4001,5.4184,5.455,5.502,5.5569,5.5647,5.5857,5.6458,5.5987,5.6637,5.9062,6.0097,6.1298,6.2809,6.4244,6.4964,6.4957,6.5203,6.5652,6.6311,6.6101,6.6101,6.634,6.634,6.634,6.634,6.634,6.634,6.634,6.634,6.634,6.634,6.634,6.634,6.634,6.634,6.634,6.634,6.634,6.6401,6.6372,3.0992,3.0992,3.0992,3.0992,3.0992,0.0,0.0,0.0,0.0,0.0,0.0,0.0,0.0,0.0,0.0,0.0,0.0,3.7978,3.8945,4.0069,4.109,4.203,4.2866,4.3467,4.3807,4.365,4.3755,4.4094,4.3964,4.4095,4.4408,4.4408,4.4225,4.386,4.3075,4.25,4.216,4.1559,4.1299,4.1299,4.1299,4.1299,4.1299,4.1299,4.1533,0.0,4.2107,4.2317,4.2552,4.3127,4.3807,4.4539,4.5166,4.6552,4.8146,4.9087,4.9766,5.0263,5.0446,5.0943,5.1492,5.1831,5.238,5.2825,5.2825,5.2825,5.2825,5.2825,5.2825,5.2929,5.3321,5.3556,5.3687,5.3687,5.4158,5.4524,5.4524,5.502,5.5517,5.5857,5.6092,5.6458,5.7059,5.6771,5.7256,5.9054,6.0449,6.1727,6.2813,6.468,6.568,6.5607,6.6335,6.6909,6.7359,6.7597,6.7717,6.7717,6.7717,6.7717,6.7717,6.7717,6.7717,6.7717,6.7717,6.7717,6.7717,6.7717,6.7717,6.7717,6.7717,6.7717,6.7717,6.7717,6.7717,6.7508,3.0992,3.0992,3.0992,0.0,0.0,0.0,0.0,0.0,0.0,0.0,0.0,0.0,0.0,0.0,0.0,0.0,0.0,0.0,3.7821,3.8919,3.9784,4.0332,4.148,4.2134,4.2186,4.2709,4.2971,4.2997,4.3572,4.386,4.386,4.386,4.3834,4.3755,4.2683,4.216,4.2107,4.1533,4.1299,4.1299,4.1299,4.1299,4.1299,4.1299,4.1299,4.1428,4.2003,4.2526,4.3075,4.3677,4.3912,4.4304,4.6083,4.7809,4.9244,4.9766,5.0368,5.0943,5.1492,5.2067,5.2511,5.2563,5.3008,5.3452,5.3452,5.3452,5.3452,5.3452,5.3452,5.3478,5.3478,5.3922,5.4288,5.4262,5.4733,5.5125,5.5151,5.5595,5.5935,5.5987,5.651,5.7085,5.7669,5.7773,5.8339,5.9664,6.1076,6.2151,6.2807,6.5475,6.641,6.5155,6.7034,6.8047,6.8047,6.8675,6.9004,6.9004,6.9004,6.9004,6.9004,6.9004,6.9004,6.9004,6.9004,6.9004,6.9004,6.9004,6.9004,6.9004,6.9004,6.9004,6.9004,6.9004,6.9004,6.8824,0.0,0.0,0.0,0.0,0.0,0.0,0.0,0.0,0.0,0.0,0.0,0.0,0.0,0.0,0.0,0.0,0.0,0.0,3.7194,3.8318,3.9183,3.9782,4.0488,4.1272,4.216,4.2343,4.2605,4.2997,4.3127,4.3232,4.3232,4.3232,4.3023,4.2604,4.2317,4.1951,4.1533,4.1376,4.1299,4.1299,4.1299,4.1299,4.1299,4.1299,4.1585,4.2003,4.2134,4.2526,4.3023,4.318,4.4095,4.5558,4.7728,4.9038,4.9793,5.0394,5.0943,5.1518,5.2119,5.238,5.2694,5.3556,5.387,5.4001,5.4001,5.4001,5.4001,5.4001,5.4367,5.468,5.468,5.5099,5.5334,5.4942,5.4994,5.5255,5.5647,5.583,5.6223,5.7146,5.7381,5.7695,5.8235,5.8715,5.9129,5.9457,6.0804,6.2135,6.342,6.5589,6.714,6.79,6.8487,6.8734,6.8734,6.8914,6.9004,6.9004,6.9004,6.9004,6.9004,6.9004,6.9004,6.9004,6.9004,6.9004,6.9004,6.9004,6.9004,6.9004,6.9004,6.9004,6.9004,6.9004,6.9004,6.8944,0.0,0.0,0.0,0.0,0.0,0.0,0.0,0.0,0.0,0.0,0.0,0.0,0.0,0.0,0.0,0.0,0.0,0.0,0.0,3.7456,3.824,3.8841,3.939,3.9965,4.0669,4.0931,4.1193,4.1508,4.2004,4.2239,4.2265,4.2762,4.284,4.2526,4.2317,4.2003,4.1664,4.1428,4.1299,0.0,0.0,4.1299,4.1299,4.1299,4.1507,4.1794,4.1794,4.2317,4.3101,4.3885,4.4983,4.6369,4.8433,4.9483,5.0002,5.0603,5.1361,5.2067,5.2406,5.2877,5.34,5.4053,5.4393,5.4602,5.4602,5.4602,5.4654,5.4916,5.5229,5.5543,5.5804,5.6092,5.6118,5.5543,5.5674,5.5857,5.5909,5.6353,5.6963,5.7617,5.7904,5.8261,5.8836,5.9212,5.95,5.9725,6.1096,6.2271,6.3107,6.5379,6.709,6.7959,6.8925,6.9572,6.9842,6.9842,6.9842,6.9842,6.9842,6.9842,6.9842,6.9842,6.9842,6.9842,6.9842,6.9842,6.9842,6.9842,6.9842,6.9842,6.9842,7.0021,7.026,7.026,7.047,7.0709,0.0,0.0,0.0,0.0,0.0,0.0,0.0,0.0,0.0,3.3692,3.3692,3.3875,3.4345,3.4397,0.0,0.0,0.0,0.0,0.0,0.0,3.7246,3.7769,3.8318,3.8632,3.871,3.9233,3.952,3.9599,4.0567,4.1064,4.1115,4.2083,4.2579,4.2631,4.216,4.2003,4.2055,4.1611,4.1376,4.1299,4.1402,4.1376,4.1299,0.0,4.1325,4.1428,4.1482,4.2187,4.3363,4.5034,4.6003,4.6815,4.8616,4.9505,5.0028,5.0786,5.1727,5.2537,5.2694,5.3452,5.421,5.4314,5.4707,5.5099,5.5099,5.5151,5.5334,5.5804,5.604,5.6275,5.6719,5.6876,5.6745,5.6223,5.6588,5.6798,5.6432,5.7277,5.7957,5.8009,5.8497,5.9045,5.9578,5.9709,5.9997,6.0472,6.1709,6.2488,6.2538,6.4967,6.6536,6.6962,6.882,7.0157,7.0889,7.0889,7.0889,7.0889,7.0889,7.0889,7.0889,7.0889,7.0889,7.0889,7.0889,7.0889,7.0889,7.0889,7.0889,7.0889,7.0889,7.1308,7.1876,7.1876,7.2325,7.2924,0.0,0.0,0.0,0.0,0.0,0.0,0.0,0.0,0.0,0.0,3.4267,3.4293,0.0,0.0,0.0,0.0,0.0,0.0,0.0,0.0,0.0,3.7168,3.7717,3.8266,3.871,3.8815,3.9102,3.9599,3.9808,3.9888,3.9913,4.0097,4.0411,4.0829,4.0749,4.101,4.1481,4.1898,4.1742,4.1325,4.1846,4.1742,4.1299,4.1299,4.1611,0.0,4.2552,4.3154,4.3938,4.5165,4.6003,4.6894,4.9061,4.9819,5.0185,5.1753,5.2354,5.2694,5.3635,5.4053,5.4314,5.4811,5.502,5.5099,5.5099,5.5438,5.5804,5.5883,5.6667,5.7277,5.6876,5.719,5.7512,5.7407,5.7486,5.7852,5.8689,5.8977,5.929,5.9725,6.03,6.0718,6.0797,6.1241,6.1764,6.2301,6.2591,6.2826,6.3126,6.4106,6.5768,6.8267,6.8719,6.9564,7.0889,7.0889,7.0889,7.0889,7.0889,7.0889,7.0889,7.0889,7.0889,7.0889,7.0889,7.0889,7.0889,7.0889,7.0889,7.0889,7.0889,7.1308,7.1876,7.1876,7.2325,7.2924,0.0,0.0,0.0,0.0,0.0,0.0,0.0,3.4397,3.4397,3.4397,3.4397,3.4397,3.4397,3.4397,3.4397,0.0,0.0,0.0,0.0,0.0,0.0,3.6985,3.7273,3.7717,3.8266,3.8292,3.8423,3.8736,0.0,3.9128,3.9155,3.9444,3.9756,3.9967,3.9967,4.0463,4.1299,4.1272,4.1611,4.2213,4.2212,4.2186,4.2135,4.1873,4.1951,0.0,4.3154,4.4042,4.4931,4.5794,4.6656,4.7704,4.9348,4.9897,5.0237,5.1988,5.272,5.3138,5.3975,5.4419,5.4733,5.502,5.5099,5.5177,5.5465,5.5726,5.6092,5.6693,5.7303,5.7695,5.7686,5.7921,5.8104,5.8104,5.8375,5.8767,5.9317,5.9657,6.0039,6.0614,6.0917,6.1308,6.1909,6.226,6.2652,6.3227,6.328,6.3335,6.3516,6.451,6.6119,6.8361,6.8152,6.8326,6.9011,6.8726,6.8581,6.8581,6.8581,6.8726,6.9011,6.9011,6.9011,6.9011,6.9011,6.9011,6.9011,6.9011,6.9214,6.9498,6.9498,6.9875,7.0489,7.0489,7.0894,7.1416,0.0,0.0,0.0,0.0,0.0,0.0,0.0,3.4397,3.4397,3.4397,3.4397,3.4397,3.4397,3.4397,3.4397,0.0,0.0,0.0,0.0,0.0,0.0,0.0,3.6933,3.7273,3.79,0.0,0.0,3.79,3.8318,0.0,0.0,0.0,0.0,0.0,3.9416,3.9991,4.0932,4.0827,4.1507,0.0,0.0,4.2735,4.2971,0.0,0.0,0.0,0.0,4.4853,4.5714,4.6421,4.7414,4.8594,4.9557,4.9897,5.0263,5.2145,5.3034,5.353,5.421,5.4733,5.5099,5.5099,5.5099,5.5255,5.5778,5.6013,5.6405,5.7486,5.78,5.8009,5.8418,5.8523,5.8601,5.8836,5.9255,5.9683,5.9918,6.03,6.0823,6.1387,6.1607,6.2077,6.3059,6.3163,6.3437,6.405,6.4038,6.3972,6.3737,6.4805,6.6141,6.7658,6.7369,6.7317,6.7676,6.7339,6.717,6.717,6.717,6.7339,6.7676,6.778,6.7816,6.7676,6.778,6.8051,6.8372,6.8372,6.8897,6.9665,6.9665,6.982,7.0105,7.0105,7.0253,7.0464,0.0,0.0,0.0,0.0,0.0,0.0,0.0,3.4397,3.4397,3.4397,3.4397,3.4397,3.4397,3.4397,3.4397,0.0,0.0,0.0,0.0,0.0,0.0,0.0,0.0,0.0,0.0,0.0,0.0,3.79,3.7952,0.0,0.0,0.0,0.0,0.0,0.0,3.9155,3.986,4.1401,0.0,0.0,0.0,0.0,0.0,0.0,0.0,0.0,0.0,4.5505,4.5766,4.6863,4.8041,4.9143,4.9688,4.9897,5.0342,5.2642,5.3347,5.3635,5.4733,5.5072,5.5099,5.5099,5.5099,5.5255,5.5778,5.6327,5.6902,5.7564,5.8113,5.8444,5.8497,5.8523,5.8862,5.9872,6.0117,6.0509,6.1618,6.1827,6.2025,6.2562,6.3123,6.3698,6.4286,6.4339,6.4574,6.5188,6.5214,6.477,6.3763,6.3826,6.4577,6.604,6.6593,6.7485,6.883,6.9325,6.9577,6.9577,6.9577,6.9297,6.8858,6.9409,6.9353,6.8858,6.9409,7.0505,7.194,7.194,7.2877,7.4282,7.4282,7.3768,7.3017,7.3017,7.2478,7.1746,0.0,0.0,0.0,0.0,0.0,0.0,3.4397,3.4397,3.4397,3.4397,3.4711,3.4946,3.4946,3.5234,3.5286,3.4972,0.0,0.0,0.0,0.0,0.0,0.0,0.0,0.0,0.0,0.0,3.79,3.79,3.79,0.0,0.0,0.0,0.0,0.0,0.0,3.9105,4.062,4.0984,0.0,0.0,0.0,0.0,0.0,0.0,0.0,0.0,0.0,0.0,4.6316,4.7466,4.8146,4.8724,4.961,4.9897,5.0342,5.2694,5.34,5.3635,5.4785,5.5099,5.5099,5.5099,5.5099,5.5334,5.6249,5.6641,5.7059,5.7974,5.834,5.8523,5.8523,5.8523,5.8853,6.0002,6.0185,6.064,6.1853,6.226,6.2705,6.328,6.3541,6.3907,6.4443,6.4495,6.477,6.5345,6.5371,6.5345,6.524,6.524,6.5529,6.613,6.6369,6.6788,6.7356,6.7249,6.7168,6.7168,6.7168,6.7249,6.7356,6.7625,6.7598,6.7383,6.7625,6.8094,6.8749,6.8749,6.9297,7.0211,7.0211,6.9956,6.9596,6.9596,6.9369,6.8995,0.0,0.0,0.0,0.0,0.0,3.4397,3.4397,3.4397,3.445,3.4633,3.5025,3.5365,3.5521,3.6044,3.6201,3.5835,3.5992,0.0,0.0,0.0,0.0,0.0,0.0,0.0,0.0,0.0,3.79,3.79,3.79,3.79,0.0,0.0,3.79,3.7926,0.0,0.0,0.0,0.0,0.0,0.0,0.0,0.0,0.0,0.0,0.0,0.0,0.0,0.0,0.0,0.0,0.0,4.8826,4.9636,5.0132,5.0786,5.2798,5.34,5.3635,5.4785,5.5099,5.5099,5.5099,5.5229,5.5595,5.6588,5.6928,5.7346,5.8314,5.8523,5.8523,5.8523,5.8523,5.8853,6.0002,6.0185,6.064,6.1853,6.2469,6.3045,6.362,6.3829,6.4168,6.4717,6.4796,6.5031,6.5606,6.5658,6.5894,6.6495,6.6678,6.6704,6.6521,6.6704,6.6782,6.6782,6.6547,6.6416,6.6416,6.6416,6.6547,6.6782,6.6965,6.6939,6.6782,6.6965,6.7301,6.7759,6.7759,6.8292,6.9094,6.9094,6.8799,6.834,6.834,6.8042,6.7619,0.0,0.0,0.0,0.0,0.0,0.0,3.4397,3.4397,3.4607,3.5208,3.5286,3.5495,3.6044,3.6645,3.6985,3.6985,3.6436,0.0,0.0,0.0,0.0,0.0,0.0,0.0,0.0,0.0,3.79,3.79,3.79,3.79,3.79,3.79,3.79,3.7952,0.0,0.0,0.0,0.0,0.0,0.0,0.0,0.0,4.4695,0.0,0.0,0.0,0.0,0.0,0.0,0.0,0.0,0.0,0.0,5.0655,5.1831,5.3034,5.34,5.3635,5.4785,5.5099,5.5099,5.5099,5.5517,5.6066,5.6667,5.7242,5.7852,5.8392,5.8523,5.8523,5.8523,5.8523,5.8853,6.0002,6.0185,6.064,6.1853,6.2469,6.3045,6.362,6.4168,6.4704,6.5318,6.5371,6.5632,6.6233,6.6286,6.6521,6.7044,6.7645,6.7697,6.7096,6.7645,6.7958,6.7958,6.8492,6.8753,6.8753,6.8753,6.8466,6.7985,6.8518,6.8466,6.8011,6.8518,6.9721,7.1271,7.1271,7.2244,7.3711,7.3711,7.2719,7.1271,7.1271,7.0228,6.8779,0.0,0.0,0.0,0.0,0.0,0.0,0.0,3.4737,3.5077,3.526,3.5992,3.6541,3.6698,3.7246,3.7612,3.7612,3.7456,0.0,0.0,0.0,0.0,0.0,0.0,0.0,0.0,0.0,3.79,3.79,3.79,3.79,3.7926,3.8292,3.8449,3.8501,3.9627,4.0592,0.0,0.0,0.0,0.0,0.0,4.4695,4.4695,0.0,0.0,0.0,0.0,0.0,0.0,0.0,0.0,0.0,0.0,0.0,0.0,5.2328,5.3086,5.3739,5.5255,5.5647,5.5752,5.617,5.6405,5.6667,5.7303,5.7564,5.7852,5.8392,5.8523,5.8523,5.8523,5.8523,5.8853,6.0002,6.0185,6.064,6.1853,6.2847,6.3489,6.3684,6.4168,6.4574,6.4796,6.4796,6.5214,6.6207,6.6286,6.6704,6.7645,6.788,6.7906,6.7697,6.8272,6.8544,6.8544,6.8701,6.8805,6.8805,6.8805,6.8701,6.8544,6.8727,6.8701,6.8544,6.8727,6.9112,6.9583,6.9583,6.9886,7.0392,7.0392,7.005,6.9583,6.9583,6.9278,6.8805,0.0,0.0,0.0,0.0,0.0,0.0,0.0,3.5051,3.5443,3.5887,3.6567,3.709,3.7325,3.7665,3.79,3.79,3.79,0.0,0.0,0.0,0.0,0.0,0.0,0.0,3.79,3.79,3.8004,3.8214,3.8214,3.8318,3.8553,3.8893,3.9155,3.939,4.0566,4.1611,0.0,0.0,0.0,0.0,4.4695,4.4695,4.4695,0.0,0.0,0.0,0.0,0.0,0.0,0.0,0.0,0.0,0.0,0.0,0.0,0.0,5.306,5.3975,5.5255,5.5752,5.604,5.6667,5.6981,5.7216,5.7617,5.7878,5.8078,5.8444,5.8523,5.8523,5.8523,5.8706,5.915,6.0028,6.0368,6.0953,6.213,6.3097,6.3867,6.4312,6.4639,6.4848,6.4848,6.5057,6.558,6.6521,6.6782,6.7331,6.8272,6.8324,6.8324,6.8324,6.8623,6.8805,6.8805,6.8805,6.8805,6.8805,6.8805,6.8805,6.8805,6.8805,6.8805,6.8805,6.8805,6.8805,0.0,6.8805,6.8805,6.8805,6.8805,6.8805,6.8805,6.8805,6.8805,6.8805,0.0,0.0,0.0,0.0,0.0,0.0,0.0,3.5391,3.5809,3.6854,3.7037,3.7273,3.7848,3.79,3.79,3.79,0.0,0.0,0.0,0.0,0.0,0.0,0.0,0.0,3.79,3.7952,3.8214,3.871,3.8739,3.905,3.9599,3.9651,3.9965,4.0515,4.1715,4.2579,0.0,0.0,0.0,0.0,4.4695,4.4695,0.0,0.0,0.0,0.0,0.0,0.0,0.0,0.0,0.0,0.0,0.0,0.0,0.0,0.0,0.0,0.0,0.0,5.5595,5.617,5.6771,5.732,5.7747,5.7747,5.8131,0.0,5.8523,5.8523,5.8523,5.8575,5.8993,5.9604,6.0169,6.0708,6.1529,6.2614,6.3358,6.4142,6.524,6.5371,6.5371,6.5371,6.592,6.6495,6.7044,6.7645,6.8246,6.8779,6.8805,6.8805,6.8805,6.8805,6.8805,6.8805,6.8805,6.8805,6.8805,6.8805,6.8805,6.8805,6.8805,6.8805,6.8805,6.8805,6.8805,6.8805,6.8805,6.8805,6.8805,6.8805,6.8805,6.8805,6.8805,6.8805,6.8805,0.0,0.0,0.0,0.0,0.0,0.0,0.0,0.0,0.0,0.0,3.7403,3.7743,3.7874,3.79,3.79,0.0,0.0,0.0,0.0,0.0,0.0,0.0,0.0,0.0,3.79,3.8318,3.8556,3.871,3.9181,3.9444,3.9625,4.0043,4.0515,4.1142,4.2317,4.3389,0.0,0.0,0.0,0.0,4.4695,4.4695,0.0,0.0,0.0,0.0,4.6449,4.7127,0.0,0.0,0.0,0.0,0.0,0.0,0.0,0.0,5.3295,5.4419,5.5438,0.0,5.7407,5.7974,5.8209,5.8314,0.0,5.8418,5.8523,5.8523,5.8523,5.8653,5.9107,5.9317,5.9735,6.0744,6.0995,6.1529,6.2614,6.3659,6.4587,6.5292,6.5371,6.5371,6.5371,6.592,6.6495,6.7044,6.7645,6.8246,6.8779,6.8805,6.8805,6.8805,6.8805,6.8805,6.8805,6.8805,6.8805,6.8805,6.8805,6.8805,6.8805,6.8805,6.8805,6.8805,6.8805,6.8805,6.8805,6.8805,6.8805,6.8805,6.8805,6.8805,6.8805,6.8805,6.8805,6.8805,0.0,0.0,0.0,0.0,0.0,0.0,0.0,0.0,0.0,0.0,0.0,3.79,3.79,3.79,0.0,0.0,0.0,0.0,0.0,0.0,0.0,0.0,0.0,3.8266,3.8266,3.8841,3.9233,3.9494,3.981,4.0122,4.0409,4.145,4.228,4.2918,4.4576,4.5074,0.0,0.0,0.0,4.4749,4.5261,0.0,0.0,0.0,0.0,0.0,4.6698,4.7234,0.0,4.8201,4.8384,4.8747,0.0,0.0,0.0,0.0,5.3504,5.4811,5.5674,5.6588,5.7477,5.8314,5.8523,5.8523,5.8523,5.8523,5.8523,5.8523,5.8732,5.8993,5.9343,5.984,6.0378,6.1006,6.1517,6.2275,6.3398,6.4378,6.5031,6.5345,6.5371,6.5501,6.5763,6.6312,6.6887,6.7462,6.8037,6.8466,6.8779,6.8805,6.8805,6.8805,6.8805,6.8805,6.8805,6.8805,6.8805,6.8805,6.8805,6.8805,6.8805,6.8805,6.8805,6.8805,6.8805,6.8805,6.8805,6.8805,6.8805,6.8805,6.8805,6.8805,6.8805,6.8805,6.8805,6.8805,0.0,0.0,0.0,0.0,0.0,0.0,0.0,0.0,0.0,0.0,0.0,0.0,0.0,0.0,0.0,0.0,0.0,0.0,0.0,0.0,0.0,0.0,3.8475,3.8807,3.9049,3.9733,4.0311,4.0785,4.0943,4.1311,4.1835,4.3262,4.435,4.5151,4.6959,4.6816,0.0,4.6841,4.6608,4.5261,4.6085,0.0,0.0,0.0,0.0,0.0,0.0,0.0,0.0,4.8201,4.859,4.9191,4.9714,0.0,0.0,0.0,0.0,0.0,5.5883,5.6353,5.6981,5.8209,5.8523,5.8523,5.8523,5.8523,5.8523,5.8523,5.8967,5.9421,5.9526,6.0378,6.1189,6.1308,6.2301,6.3398,6.4365,6.5031,6.5371,6.5371,6.5371,6.5672,6.6233,6.6782,6.7331,6.7932,6.8492,6.8805,6.8805,6.8805,6.8805,6.8805,6.8805,6.8805,6.8805,6.8805,6.8805,6.8805,6.8805,6.8805,6.8805,6.8805,6.8805,6.8805,6.8805,6.8805,6.8805,6.8805,6.8805,6.8805,6.8805,6.8805,6.8805,6.8805,6.8805,6.8805,0.0,0.0,0.0,0.0,0.0,0.0,0.0,0.0,0.0,0.0,0.0,0.0,0.0,0.0,0.0,0.0,0.0,0.0,0.0,0.0,0.0,3.8579,3.8658,3.9342,4.068,4.1808,4.2406,4.2439,4.3438,4.4003,4.4111,4.4368,4.5298,4.6731,4.6668,4.6945,4.738,4.5874,4.6111,4.7406,4.6713,0.0,0.0,0.0,0.0,0.0,0.0,0.0,0.0,4.8201,4.859,4.9191,4.9714,0.0,0.0,0.0,0.0,0.0,5.6379,5.6379,5.6432,5.8104,5.8523,5.8523,5.8523,5.8523,5.8523,5.8523,5.8967,5.9552,5.9986,6.0666,6.145,6.2379,6.3477,6.4286,6.4469,6.5031,6.5371,6.5371,6.5371,6.5672,6.6233,6.6782,6.7331,6.7932,6.8492,6.8805,6.8805,6.8805,6.8805,6.8805,6.8805,6.8805,6.8805,6.8805,6.8805,6.8805,6.8805,6.8805,6.8805,6.8805,6.8805,6.8805,6.8805,6.8805,6.8805,6.8805,6.8805,6.8805,6.8805,6.8805,6.8805,6.8805,6.8805,6.8805,0.0,0.0,0.0,0.0,0.0,0.0,0.0,0.0,0.0,0.0,0.0,0.0,0.0,0.0,0.0,0.0,0.0,0.0,0.0,0.0,3.9615,4.0708,4.1054,4.1102,4.0736,4.3369,4.429,4.3356,4.479,4.5527,4.5527,4.6452,4.7449,4.8469,4.8829,4.8621,4.799,4.8142,4.7816,4.7203,0.0,0.0,0.0,0.0,0.0,0.0,0.0,0.0,0.0,0.0,4.93,5.0054,5.0289,0.0,0.0,0.0,0.0,0.0,5.6588,5.6824,5.7111,5.8235,5.8287,5.8131,5.8444,5.8758,5.8967,5.8967,5.9699,6.0378,6.0666,6.145,6.2379,6.3529,6.4456,6.5005,6.5005,6.5214,6.5371,6.5371,6.5684,6.6103,6.6652,6.7227,6.7828,6.8403,6.8649,6.8805,6.8805,6.8805,6.8805,6.8805,6.8805,6.8805,6.8805,6.8805,6.8805,6.8805,6.8805,6.8805,6.8805,6.8805,6.8805,6.8805,6.8805,6.8805,6.8805,6.8805,6.8805,6.8805,6.8805,6.8805,6.8805,6.8805,6.8805,6.8805,0.0,0.0,0.0,0.0,0.0,0.0,0.0,0.0,0.0,0.0,0.0,0.0,0.0,0.0,0.0,0.0,0.0,0.0,0.0,4.0267,4.1344,4.2654,4.3823,4.3668,4.1947,4.504,4.6095,4.4909,4.6377,4.7076,4.7101,4.8629,4.9584,5.0004,5.0555,5.0047,4.8844,4.9974,4.9313,4.7613,0.0,0.0,0.0,0.0,0.0,0.0,0.0,0.0,0.0,0.0,0.0,0.0,0.0,0.0,0.0,5.3556,5.468,5.6013,5.6484,5.7033,5.7643,5.8157,5.8078,5.8035,5.8575,5.9045,5.9447,5.9578,6.0509,6.1319,6.1319,6.2327,6.3529,6.4521,6.5109,6.5371,6.5371,6.5371,6.5423,6.558,6.5998,6.6547,6.7227,6.7723,6.822,6.8753,6.8805,6.8805,6.8805,6.8805,6.8805,6.8805,6.8805,6.8805,6.8805,6.8805,6.8805,6.8805,6.8805,6.8805,6.8805,6.8805,6.8805,6.8805,6.8805,6.8805,6.8805,6.8805,6.8805,6.8805,6.8805,6.8805,6.8805,6.8805,6.8805,6.8805,0.0,0.0,0.0,0.0,0.0,0.0,0.0,0.0,0.0,0.0,0.0,0.0,0.0,0.0,0.0,0.0,0.0,0.0,0.0,4.1574,4.2705,4.329,4.6045,4.7184,4.6374,4.723,4.7891,4.824,4.9001,4.9344,4.9368,5.049,5.1052,5.1035,5.0124,5.0172,5.0846,4.9018,4.9239,5.0674,4.8869,0.0,0.0,0.0,0.0,0.0,0.0,0.0,0.0,0.0,0.0,0.0,0.0,0.0,5.3504,5.4001,5.4994,5.5909,5.5961,5.6405,5.7007,5.7617,5.8078,5.8601,5.9212,5.9369,5.9552,6.0039,6.1084,6.1958,6.1958,6.328,6.4574,6.5214,6.5345,6.5371,6.5371,6.5371,6.558,6.6155,6.6259,6.6704,6.7828,6.7958,6.822,6.8753,6.8805,6.8805,6.8805,6.8805,6.8805,6.8805,6.8805,6.8805,6.8805,6.8805,6.8805,6.8805,6.8805,6.8805,6.8805,6.8805,6.8805,6.8805,6.8805,6.8805,6.8805,6.8805,6.8805,6.8805,6.8805,6.8805,6.8805,6.8805,6.8805,6.8805,0.0,0.0,0.0,0.0,0.0,0.0,0.0,0.0,0.0,0.0,0.0,0.0,0.0,0.0,0.0,0.0,0.0,0.0,0.0,4.33,4.4723,4.4908,4.7392,4.8814,4.8916,4.9567,4.9522,4.8724,4.9969,5.0579,5.0579,5.1011,5.1206,5.1182,5.0775,5.0822,5.1129,5.034,5.0071,5.0148,4.9342,4.972,0.0,0.0,0.0,0.0,0.0,0.0,0.0,0.0,5.0812,5.1387,5.1962,5.272,5.3583,5.4497,5.5308,5.6066,5.6832,5.7425,5.8104,5.9019,5.9699,6.0091,5.9934,6.0744,6.1476,6.1346,6.2522,6.3776,6.4508,6.4874,6.5266,6.5841,6.5946,6.5815,6.5423,6.5711,6.6024,6.6259,6.6913,6.7514,6.7958,6.8324,6.857,6.8779,6.8805,6.8805,6.8805,6.8805,6.8805,6.8805,6.8805,6.8805,6.8805,6.8805,6.8805,6.8805,6.8805,6.8805,6.8805,6.8805,6.8805,6.8805,6.8805,6.8805,6.8805,6.8805,6.8805,6.8832,6.9197,6.9605,6.9945,6.9945,6.9945,6.9945,0.0,0.0,0.0,0.0,0.0,0.0,0.0,0.0,0.0,0.0,0.0,0.0,0.0,0.0,0.0,0.0,0.0,0.0,4.2817,4.5256,4.6733,4.6886,4.8848,5.0002,5.0219,5.0877,5.0662,4.9574,5.0662,5.1206,5.1206,5.1206,5.1206,5.1206,5.1206,5.1206,5.1182,5.0846,5.046,5.0028,4.8997,4.9395,0.0,0.0,0.0,0.0,0.0,0.0,0.0,0.0,5.1282,5.1727,5.2537,5.306,5.3661,5.4968,5.5752,5.6405,5.7433,5.8078,5.8758,5.9725,6.0666,6.1319,6.1084,6.1816,6.2548,6.256,6.3724,6.5109,6.6103,6.5946,6.5815,6.6207,6.6286,6.6129,6.5737,6.6221,6.6599,6.6782,6.7514,6.8063,6.8246,6.857,6.8805,6.8805,6.8805,6.8805,6.8805,6.8805,6.8805,6.8805,6.8805,6.8805,6.8805,6.8988,6.8988,6.8805,6.8988,6.8962,6.8805,6.8805,6.8805,6.8805,6.8988,6.9067,6.9093,6.9276,6.9354,6.9406,6.9814,7.0232,7.0598,7.0598,7.0598,7.0598,0.0,0.0,0.0,0.0,0.0,0.0,0.0,0.0,0.0,0.0,0.0,0.0,0.0,0.0,0.0,0.0,0.0,0.0,4.5707,4.7414,4.8618,4.9277,5.0511,5.0877,5.0226,5.0877,5.1206,5.1206,5.1206,5.1206,5.1206,5.1206,5.1206,5.1206,5.1206,5.1206,5.1105,5.0052,5.022,5.0917,4.7689,4.8054,5.0288,0.0,0.0,0.0,0.0,0.0,0.0,0.0,5.1596,5.1805,5.3008,5.34,5.3739,5.5412,5.6327,5.6928,5.7538,5.8113,5.8653,5.929,6.0729,6.2167,6.2667,6.2417,6.2377,6.3527,6.4613,6.5554,6.6181,6.6286,6.6286,6.6286,6.6286,6.6286,6.6286,6.6756,6.7331,6.7906,6.7985,6.822,6.8753,6.8805,6.8805,6.8805,6.8805,6.8805,6.8805,6.8805,6.8805,6.8805,6.8805,6.8805,6.8805,6.9422,6.9422,6.8805,6.9422,6.9396,6.8805,6.8805,6.8805,6.8832,6.9448,6.971,6.9736,7.0337,7.0598,7.0598,7.0598,7.0598,7.0624,7.0624,7.0624,7.0624,0.0,0.0,0.0,0.0,0.0,0.0,0.0,0.0,0.0,0.0,0.0,0.0,0.0,0.0,0.0,0.0,0.0,0.0,4.5817,4.8229,4.9436,4.8958,5.04,5.1116,5.0907,5.1086,5.1206,5.1206,5.1206,5.1206,5.1206,5.1206,5.1206,5.1206,5.1206,5.1206,5.1105,5.0052,5.022,5.0947,4.8112,4.8867,5.1474,0.0,0.0,0.0,0.0,0.0,0.0,0.0,0.0,0.0,5.3008,5.34,5.3818,5.5935,5.6092,5.5987,5.7791,5.8392,5.8941,6.0781,6.222,6.3332,6.3842,6.4534,6.5253,6.592,6.5397,6.5214,6.6599,6.6181,6.592,6.673,6.6547,6.6416,6.6782,6.7357,6.7802,6.7958,6.835,6.8623,6.8779,6.8805,6.8805,6.8805,6.8805,6.8805,6.8805,6.8805,6.8805,6.8805,6.8805,6.8805,6.8805,6.9422,6.9422,6.8805,6.9422,6.9396,6.8805,6.9265,6.9448,6.9474,7.0076,7.0337,7.0337,7.052,7.0807,7.1147,7.1147,7.1409,7.1801,7.1801,7.1801,7.1801,0.0,0.0,0.0,0.0,0.0,0.0,0.0,0.0,3.8318,3.8553,3.9013,3.9528,0.0,0.0,0.0,4.3818,4.5664,0.0,4.7168,4.9086,5.0054,4.9752,5.0685,5.1206,5.1206,5.1206,5.1206,5.1206,5.1206,5.1206,5.1206,5.1206,5.1206,5.1206,5.1206,5.0964,5.0484,4.944,4.9486,5.0095,4.7831,4.8681,5.1116,0.0,0.0,0.0,0.0,0.0,0.0,0.0,0.0,0.0,5.3008,5.34,5.3844,5.6144,5.6327,5.6275,5.8575,5.9019,5.9411,6.1738,6.2652,6.3332,6.4587,6.524,6.5684,6.5998,6.5632,6.5554,6.6573,6.639,6.6286,6.6991,6.72,6.7331,6.7436,6.8141,6.8586,6.835,6.8596,6.8805,6.8805,6.8805,6.8805,6.8805,6.8805,6.8805,6.8805,6.8805,6.8805,6.8805,6.8805,6.891,6.9145,6.9527,6.9527,6.9145,6.9527,6.9396,6.8832,6.9422,6.9684,6.9762,7.0807,7.1409,7.1592,7.1592,7.1775,7.2062,7.1853,7.1984,7.2297,7.2297,7.2297,7.2297,0.0,0.0,3.8057,0.0,0.0,0.0,0.0,3.8859,3.9113,3.9664,4.0818,4.1593,0.0,0.0,0.0,4.5272,4.588,4.7116,4.9232,4.9949,5.0578,5.1176,5.1206,5.1206,5.1206,5.1206,5.1206,5.1206,5.1206,5.1206,5.1206,5.1206,5.1236,5.1295,5.1236,5.0668,4.9687,4.8616,4.8502,4.894,4.7369,4.8022,4.9944,4.998,0.0,0.0,0.0,0.0,0.0,0.0,0.0,0.0,5.3008,5.34,5.3844,5.6144,5.6771,5.7216,5.9516,5.9751,5.997,6.226,6.2548,6.2873,6.5018,6.5031,6.46,6.4704,6.558,6.6286,6.6338,6.6756,6.7096,6.7148,6.8074,6.8623,6.8141,6.9056,6.9553,6.8884,6.8858,6.8858,6.8805,6.8805,6.8805,6.8805,6.8805,6.8805,6.8805,6.8805,6.8832,6.8884,6.8832,6.9093,6.9762,6.9736,6.9684,6.9684,6.9684,6.9396,6.8832,6.9501,6.984,7.0023,7.1618,7.2585,7.3029,7.3029,7.3029,7.2977,7.248,7.2297,7.2297,7.2297,7.2297,7.2297,0.0,0.0,3.9233,3.9233,0.0,0.0,3.939,4.0074,4.0638,4.0773,4.1721,4.2446,4.2653,4.3769,0.0,4.5998,4.7605,4.8984,4.9949,5.0607,5.1056,5.1176,5.1206,5.1206,5.1206,5.1206,5.1206,5.1206,5.1206,5.1206,5.1206,5.1206,5.1498,5.1977,5.1415,5.1171,5.0991,4.9844,4.9688,5.0119,4.8994,4.9555,5.11,5.0741,5.0943,0.0,0.0,0.0,0.0,0.0,0.0,0.0,5.3008,5.34,5.3844,5.6144,5.6484,5.6615,5.895,5.95,5.997,6.226,6.375,6.494,6.5867,6.5632,6.5449,6.6364,6.639,6.6416,6.6834,6.7017,6.7253,6.7723,6.8377,6.8753,6.8649,6.9657,7.0023,6.8936,6.9197,6.9344,6.8858,6.8805,6.8805,6.8805,6.8805,6.8805,6.8805,6.8805,6.9014,6.9501,6.904,6.9302,7.0389,6.9919,6.9684,6.9684,6.9684,6.9396,6.8832,6.9919,7.0886,7.1748,7.214,7.2376,7.248,7.248,7.248,7.2454,7.235,7.2297,7.2297,7.2297,7.2297,7.2297,0.0,0.0,0.0,0.0,0.0,0.0,0.0,0.0,4.2662,4.2643,4.3212,4.3823,4.4298,4.5346,0.0,0.0,4.8775,4.9883,5.0166,5.0817,5.1206,5.1206,5.1206,5.1206,5.1206,5.1206,5.1206,5.1206,5.1206,5.1206,5.1206,5.1206,5.1385,5.1708,5.1379,5.0974,5.0603,4.9953,4.9772,4.9868,4.959,5.0153,5.1186,5.1189,5.1361,5.1622,5.1936,0.0,0.0,0.0,0.0,0.0,0.0,0.0,5.4184,5.6223,5.6379,5.6484,5.9072,5.9604,5.997,6.226,6.4325,6.5815,6.5841,6.6024,6.6442,6.7331,6.707,6.6939,6.7775,6.8141,6.8533,6.9135,6.971,6.9971,6.971,7.0442,7.0546,6.9396,6.9762,6.9893,6.9318,6.9458,6.9511,6.9223,6.9485,6.9406,6.8832,6.9328,6.9684,6.9684,6.9396,6.9814,7.0964,7.0128,6.9971,7.052,7.0259,7.0102,7.0076,7.0442,7.1226,7.2323,7.2585,7.2689,7.2689,7.2689,7.2689,7.2663,7.2402,7.2297,7.2297,7.2297,7.2297,7.2297,0.0,0.0,0.0,0.0,0.0,0.0,0.0,0.0,0.0,4.4568,4.5043,4.5587,4.6018,4.7,4.7848,0.0,0.0,0.0,5.0368,5.0877,5.1206,5.1206,5.1206,5.1206,5.1206,5.1206,5.1206,5.1206,5.1206,5.1206,5.1206,5.1206,5.1142,5.1095,5.1191,5.0681,4.976,4.993,4.9767,4.9427,4.9976,5.0551,5.1126,5.157,5.1805,5.1962,5.2485,5.2328,5.1988,5.2485,0.0,0.0,0.0,0.0,5.455,5.6301,5.6536,5.6798,5.9454,6.0169,6.0598,6.2496,6.4717,6.6286,6.5789,6.6495,6.741,6.8011,6.7734,6.7708,6.8753,6.9474,7.0023,7.052,7.1043,7.12,7.0677,7.1147,7.1121,6.9971,7.0363,7.0468,6.9762,7.0232,7.0311,6.9605,7.0206,7.0128,6.9014,6.9997,7.0363,6.9866,6.9736,7.0206,7.1252,7.0128,7.0128,7.1252,7.0807,7.0938,7.1539,7.1095,7.1409,7.2323,7.2768,7.2977,7.2977,7.2977,7.2977,7.2925,7.248,7.2297,7.2297,7.2297,7.2297,7.2297,0.0,0.0,0.0,0.0,0.0,0.0,0.0,0.0,0.0,0.0,4.6918,4.7642,4.7143,4.826,4.9067,4.9157,4.9823,5.0458,5.1026,0.0,0.0,5.1206,5.1206,5.1206,5.1206,5.1206,5.1206,5.1206,5.1206,5.1206,5.1206,5.1206,5.1024,5.0704,5.1104,5.077,4.9935,5.0854,5.0984,5.0603,5.1152,5.1727,5.2276,5.2354,5.2694,5.3164,5.3243,5.3217,5.3164,5.3243,5.3269,0.0,0.0,0.0,5.455,5.6301,5.7111,5.7878,5.9725,6.1633,6.3213,6.3489,6.5292,6.6965,6.6887,6.7383,6.8037,6.857,6.8623,6.8779,6.9474,7.0076,7.0494,7.0598,7.1043,7.12,7.0677,7.1513,7.1748,7.0624,7.0964,7.086,6.9788,7.0232,7.0154,6.8988,6.9971,7.0285,6.9631,7.0232,7.0546,7.0468,6.9971,7.0023,7.0703,6.9511,6.9511,7.0703,7.0624,7.1147,7.2167,7.2114,7.2167,7.2297,7.2376,7.2402,7.2402,7.2402,7.2402,7.2402,7.2323,7.2297,7.2297,7.2297,7.2297,7.2297,0.0,0.0,0.0,0.0,0.0,0.0,0.0,0.0,0.0,0.0,0.0,4.8349,4.8409,4.9254,4.9972,5.0331,5.0607,5.0877,5.1176,5.1206,5.1206,5.1206,5.1206,5.1206,5.1206,5.1206,5.1206,5.1206,5.1206,5.1385,5.1768,5.1768,5.1337,5.0573,5.1458,5.1296,5.0413,5.1163,5.161,5.1779,5.2014,5.2642,5.3426,5.3112,5.3347,5.3844,5.3844,5.3661,5.3452,5.3739,5.3844,5.3949,5.4524,0.0,0.0,0.0,5.7948,5.8444,5.983,6.1921,6.375,6.4064,6.5397,6.6808,6.7462,6.7802,6.8141,6.8675,6.9328,6.9893,7.0154,7.0938,7.1539,7.1539,7.1748,7.1827,7.1592,7.1984,7.1984,7.1147,7.1565,7.1565,7.0729,7.12,7.12,7.0337,7.1069,7.1147,7.0232,7.1069,7.1252,7.0624,7.0624,7.0781,7.1043,7.0546,7.0703,7.1539,7.12,7.1487,7.2297,7.2297,7.2663,7.3238,7.2898,7.2742,7.2716,7.2428,7.2297,7.2297,7.2297,7.2297,7.2297,7.2297,7.2297,7.2297,0.0,0.0,0.0,0.0,0.0,0.0,0.0,0.0,0.0,0.0,0.0,4.8955,4.9464,0.0,0.0,0.0,5.1206,5.1206,5.1206,5.1206,5.1206,5.1206,5.1206,5.1206,5.1206,5.1206,5.1206,5.1206,5.1355,5.1708,5.2217,5.2226,5.1635,5.0612,5.1799,5.1595,5.0354,5.1341,5.2054,5.2537,5.2825,5.353,5.4393,5.4131,5.4393,5.4889,5.502,5.4811,5.455,5.5125,5.5203,5.5151,5.5621,5.6327,0.0,0.0,0.0,5.9385,6.0378,6.2025,6.3646,6.4312,6.5292,6.639,6.7697,6.7985,6.8141,6.8675,6.9657,7.0415,7.0572,7.1539,7.2297,7.2297,7.2297,7.2297,7.2297,7.2297,7.214,7.167,7.2036,7.2062,7.1461,7.1958,7.1984,7.1252,7.1879,7.1853,7.086,7.1748,7.1853,7.0834,7.12,7.133,7.12,7.133,7.1618,7.2062,7.1775,7.1931,7.2506,7.2506,7.3134,7.4205,7.3604,7.3343,7.3317,7.2898,7.2637,7.2506,7.2506,7.2428,7.2297,7.2297,7.2297,7.2323,0.0,0.0,0.0,0.0,0.0,0.0,0.0,0.0,0.0,0.0,0.0,5.0106,5.0159,5.0757,5.1146,5.1206,5.1206,5.1206,5.1206,5.1206,5.1206,5.1206,5.1206,0.0,5.1206,5.1206,5.1206,5.1206,5.1858,5.2157,5.2193,5.2323,5.177,5.0746,5.1873,5.1198,4.9337,5.1507,5.247,5.2589,5.3687,5.4497,5.5125,5.5595,5.6144,5.6745,5.7329,5.7486,5.7564,5.8104,5.7921,5.7512,5.7538,5.7617,5.7773,0.0,0.0,0.0,6.1711,6.2365,6.3111,6.4208,6.4979,6.5867,6.7592,6.7985,6.8141,6.8675,6.9276,6.9919,7.0494,7.1539,7.2297,7.2297,7.2297,7.2297,7.2297,7.2297,7.2297,7.2271,7.2271,7.2062,7.1461,7.1958,7.1827,7.0729,7.167,7.201,7.1382,7.1958,7.201,7.1382,7.1382,7.1147,7.0651,7.1147,7.1409,7.1461,7.1984,7.2533,7.3055,7.3055,7.3709,7.4833,7.4232,7.397,7.397,7.3918,7.3578,7.3055,7.3055,7.2742,7.2297,7.2297,7.2297,7.2376,0.0,0.0,0.0,0.0,0.0,0.0,0.0,0.0,0.0,0.0,0.0,0.0,0.0,5.0817,5.1206,5.1206,5.1206,5.1206,5.1206,5.1206,5.1206,5.1206,5.1206,5.1206,5.1206,5.1206,5.1415,5.1858,5.2097,5.2243,5.2348,5.238,5.1813,5.0791,5.1614,5.1071,4.974,5.1675,5.272,5.3164,5.4314,5.536,5.6223,5.6405,5.685,5.7381,5.7163,5.7381,5.7721,5.793,5.8113,5.8261,5.8663,5.9029,5.949,6.0457,6.1189,6.1711,6.1958,6.2391,6.3059,6.4208,6.4953,6.5737,6.7096,6.7697,6.8037,6.8246,6.903,6.9762,6.9971,7.0938,7.1853,7.2245,7.2297,7.2297,7.2297,7.2297,7.2297,7.2297,7.2297,7.2219,7.201,7.2167,7.214,7.1722,7.2062,7.2219,7.1984,7.2193,7.201,7.1409,7.1775,7.1879,7.1696,7.1879,7.1775,7.1409,7.1618,7.1644,7.1513,7.1853,7.2245,7.2689,7.3212,7.3866,7.4545,7.4179,7.3892,7.3683,7.3683,7.3578,7.3395,7.3395,7.3395,7.3421,0.0,0.0,0.0,0.0,0.0,0.0,0.0,0.0,4.9583,4.9583,0.0,0.0,0.0,0.0,5.1206,5.1206,5.1206,5.1206,5.1206,5.1206,5.1206,5.1206,5.1206,5.1206,5.1206,5.1415,5.1548,5.1628,5.2048,5.2214,5.2122,5.1951,5.1598,5.1119,5.1304,5.105,5.0551,5.2145,5.3243,5.4079,5.5412,5.6432,5.7137,5.7529,5.793,5.8244,5.8026,5.834,5.8924,5.929,5.9516,5.9699,5.9908,6.0065,6.0457,6.167,6.201,6.201,6.201,6.226,6.2809,6.3959,6.4534,6.5201,6.6521,6.7122,6.7514,6.7906,6.8586,6.9239,6.9631,7.0311,7.1095,7.1879,7.201,7.2062,7.2271,7.2297,7.2297,7.2297,7.2297,7.2297,7.2297,7.2297,7.2297,7.2297,7.2297,7.2297,7.2297,7.2297,7.2114,7.1722,7.2088,7.2297,7.2297,7.2297,7.2114,7.1696,7.1696,7.1513,7.1173,7.1539,7.1801,7.201,7.2768,7.3552,7.4284,7.4075,7.3996,7.3996,7.3787,7.3839,7.3996,7.3787,7.3839,7.4049,0.0,0.0,0.0,0.0,0.0,0.0,4.7748,0.0,5.0226,5.0226,0.0,0.0,0.0,0.0,0.0,5.1206,5.1206,5.1206,5.1206,5.1206,5.1206,5.1206,5.1206,5.1206,5.1236,5.1887,5.1657,5.0581,5.1824,5.2124,5.1595,5.1063,5.1146,5.1654,5.1073,5.1126,5.1727,5.2929,5.4079,5.5255,5.7015,5.7695,5.7852,5.8977,5.9421,5.95,6.0013,6.0577,6.1256,6.2379,6.2417,6.1906,6.1293,6.0718,6.0483,6.1607,6.1984,6.1984,0.0,0.0,0.0,6.3397,6.3684,6.4155,6.5841,6.6259,6.6599,6.7697,6.7958,6.8324,6.9448,6.9657,7.0023,7.1173,7.1382,7.1618,7.2193,7.2297,7.2297,7.2297,7.2297,7.2297,7.2297,7.2297,7.2297,7.2297,7.2297,7.2297,7.2297,7.2297,7.2297,7.2297,7.2297,7.2297,7.2297,7.2271,7.2271,7.2245,7.2219,7.2219,7.2193,7.2193,7.248,7.2977,7.3003,7.3003,7.3055,7.3735,7.3996,7.3944,7.3369,7.35,7.3944,7.3343,7.35,7.4075,0.0,0.0,0.0,0.0,0.0,4.9649,4.9499,5.0302,5.0936,0.0,0.0,0.0,5.1206,5.1206,5.1206,5.1206,5.1206,5.1206,5.1206,5.1206,5.1206,5.1206,5.1206,5.1415,5.1917,5.2097,5.2314,5.2552,5.2874,5.2582,5.1663,5.151,5.1299,5.1069,5.128,5.1936,5.2955,5.3661,5.4419,5.5255,5.7015,5.793,5.8366,5.9133,5.9657,6.0013,6.0169,6.0577,6.1163,6.1439,6.1764,6.1906,6.1293,6.1006,6.0927,6.1267,6.1346,6.1346,6.1346,0.0,0.0,0.0,0.0,0.0,6.4822,6.5684,6.6364,6.6678,6.741,6.8089,6.8403,6.8795,6.9276,7.0049,7.086,7.1461,7.1618,7.201,7.2297,7.2297,7.2297,7.2297,7.2297,7.2297,7.2297,7.2297,7.2297,7.2297,7.2297,7.2297,7.2297,7.2297,7.2297,7.2297,7.2297,7.1879,7.1461,7.1069,7.0624,7.0206,6.9746,6.9746,6.985,7.0007,7.0468,7.0651,7.0807,7.3081,7.3996,7.3996,7.3839,7.3866,7.3996,7.3813,7.3866,7.4022,0.0,0.0,4.8683,4.9674,5.0124,5.0425,5.0738,5.1482,5.2037,0.0,0.0,0.0,5.2037,5.2037,5.2037,5.2037,5.2037,5.2037,5.2037,5.2037,5.2157,5.2432,5.2432,5.2513,5.2639,5.2934,5.2794,5.2232,5.2513,5.218,5.1296,5.1296,5.1251,5.1152,5.1727,5.2772,5.4158,5.4968,5.5621,5.6353,5.8314,5.915,5.9333,6.0405,6.0875,6.098,6.1178,6.1685,6.2234,6.2432,6.2443,6.2313,6.2208,6.1685,6.1163,6.1398,6.1476,6.1476,6.1476,6.1711,6.201,6.201,0.0,0.0,6.4312,6.524,6.6103,6.6834,6.7331,6.7697,6.7932,6.8272,6.8586,6.8926,6.9945,7.0781,7.1043,7.1356,7.167,7.1905,7.1931,7.201,7.2271,7.2297,7.2297,7.2297,7.2297,7.2297,7.2297,7.2297,7.2297,7.2297,7.2297,7.2297,7.2297,7.1958,7.1618,7.1304,7.0938,7.0468,6.9876,6.9876,6.9746,6.9563,6.9919,7.0076,7.0206,7.1879,7.2872,7.3291,7.3291,7.3578,7.397,7.3735,7.3787,7.3996,0.0,0.0,4.9015,5.0601,5.0635,5.0763,5.1728,5.257,5.3093,0.0,5.3093,5.3172,5.3384,5.3438,5.3438,5.3438,5.3498,5.3528,5.3528,5.3528,5.3723,5.4201,5.4142,5.382,5.3211,5.3761,5.3045,5.0897,5.1496,5.1472,5.089,5.0943,5.123,5.1727,5.2459,5.3635,5.5203,5.6536,5.7373,5.8087,6.0222,6.0849,6.0588,6.217,6.2548,6.2272,6.2731,6.3254,6.375,6.4273,6.3738,6.2992,6.3358,6.2496,6.1398,6.1764,6.1958,6.201,6.1932,6.1958,6.1984,6.1932,6.2313,0.0,6.4051,6.4743,6.5554,6.7174,6.72,6.7096,6.7697,6.7906,6.8011,6.8063,6.8926,6.9814,7.0415,7.0546,7.0781,7.1252,7.1304,7.1539,7.214,7.2193,7.2219,7.2297,7.2297,7.2297,7.2297,7.2297,7.2297,7.2297,7.2297,7.2297,7.2297,7.2245,7.2167,7.2114,7.2036,7.1696,7.1121,7.1121,7.086,7.0389,7.0389,7.0389,7.0415,7.0468,7.1173,7.2193,7.2193,7.2872,7.3761,7.3212,7.3369,7.3813,5.1458,5.0113,4.9519,5.223,5.1121,5.0709,5.3291,5.3049,5.2563,5.2563,5.2563,5.3128,5.463,5.479,5.479,5.479,5.5294,5.5623,5.5623,5.5623,5.5218,5.4317,5.3765,5.3213,5.2598,5.2711,5.2573,5.2144,5.2279,5.2058,5.1439,5.1936,5.2223,5.238,5.3922,5.4785,5.5255,5.7791,5.8977,5.9186,6.0561,6.1319,6.1711,6.2522,6.3045,6.3397,6.3463,6.3593,6.3737,6.3803,6.3698,6.3358,6.2586,6.2391,6.2301,6.1529,6.1607,6.1906,6.1424,6.1633,6.1906,6.1398,6.1711,0.0,6.2954,6.3215,6.3541,6.4351,6.5201,6.5894,6.6495,6.7357,6.8141,6.857,6.8832,6.9171,6.9788,7.0285,7.0624,7.0729,7.0755,7.0964,7.1513,7.1592,7.1775,7.2271,7.2297,7.2297,7.2297,7.2297,7.2297,7.2297,7.2297,7.2297,7.2297,7.1827,7.1356,7.0912,7.0442,6.9893,6.9302,6.9302,6.9249,6.9145,6.9145,6.9145,6.9171,6.9684,7.0546,7.1592,7.1592,7.201,7.2611,7.2506,7.2533,7.2637,5.2776,5.1295,5.0462,5.288,5.1616,5.0957,5.3042,5.3091,5.2887,5.2887,5.2887,5.336,5.4618,5.4494,5.4641,5.5544,5.5396,5.551,5.6064,5.5803,5.5525,5.5196,5.4883,5.429,5.3413,5.3411,5.2959,5.2048,5.2048,5.2059,5.2067,5.2354,5.2955,5.3818,5.4393,5.5621,5.7294,5.8444,5.9777,6.1163,6.2051,6.2391,6.2548,6.4012,6.4534,6.4613,6.5162,6.5371,6.5331,6.5133,6.503,6.4822,6.3998,6.3672,6.3424,6.2275,6.2182,6.226,6.1685,6.1764,6.1932,6.1607,6.1764,0.0,0.0,6.3254,6.3489,6.439,6.4979,6.5554,6.6181,6.6965,6.7645,6.7932,6.8414,6.8701,6.8429,6.9396,7.0259,7.0546,7.0834,7.1095,7.1382,7.1409,7.1539,7.1827,7.214,7.2297,7.2297,7.2297,7.2297,7.2297,7.2297,7.2297,7.2297,7.201,7.1722,7.1435,7.0834,7.0259,6.971,6.9396,6.9067,6.8805,6.8805,6.8805,6.8858,6.9448,7.0206,7.1017,7.1304,7.1775,7.2297,7.2297,7.2297,7.2297,5.3461,5.208,5.1151,5.3064,5.1877,5.1127,5.2631,5.3162,5.358,5.406,5.3887,5.4081,5.4927,5.4677,5.5039,5.6572,5.5989,5.5905,5.6824,5.6323,5.6151,5.644,5.6106,5.545,5.4382,5.4274,5.345,5.1936,5.1936,5.2197,5.2668,5.2772,5.3635,5.5099,5.5046,5.6588,5.9238,5.9411,6.0645,6.2605,6.3738,6.3907,6.3685,6.5735,6.6231,6.5998,6.6701,6.6974,6.6933,6.654,6.6336,6.6217,6.5737,6.5318,6.473,6.3477,6.3189,6.3149,6.2339,6.213,6.2141,6.2037,6.201,6.2246,0.0,0.0,0.0,6.4573,6.4822,6.5083,6.5684,6.6312,6.673,6.6625,6.7592,6.7943,6.6913,6.8168,6.937,6.9866,7.0598,7.1069,7.1069,7.1461,7.1644,7.1409,7.2062,7.2402,7.2323,7.2297,7.2297,7.2297,7.2297,7.2297,7.2297,7.2297,7.2245,7.2114,7.1539,7.0964,7.0415,6.9814,6.9344,6.8962,6.8962,6.904,6.9171,6.9684,7.0206,7.0781,7.1226,7.1775,7.2297,7.2297,7.2297,7.2297,5.2516,5.1242,5.0717,5.3023,5.1498,5.0943,5.3775,5.3775,5.4276,5.6407,5.5701,5.5672,5.7385,5.7922,5.8476,5.9228,5.9679,6.0018,6.0158,5.9574,5.8792,5.7748,5.616,5.4965,5.4236,5.3757,5.3404,5.3191,5.3191,5.3217,5.3295,5.3792,5.4393,5.5203,5.7137,5.8235,5.881,6.1816,6.2476,6.1718,6.4769,6.5946,6.5984,6.6855,6.742,6.7604,6.6777,6.6458,6.6458,6.6417,6.6391,6.6358,6.6217,6.6469,6.6469,6.4783,6.4691,6.4743,6.3175,6.2693,6.26,6.2141,6.201,6.2037,6.2167,0.0,6.2246,6.2377,0.0,6.328,6.3855,0.0,0.0,6.4861,6.5815,6.6338,6.5684,6.6652,6.7395,6.7488,6.8899,6.9893,6.9893,7.1722,7.2506,7.1487,7.2402,7.2794,7.2323,7.2297,7.2297,7.2297,7.2297,7.2297,7.2297,7.2297,7.2036,7.1513,7.0938,7.0389,6.9788,6.9171,6.9145,6.9605,6.9605,6.9893,7.0389,7.0468,7.0807,7.1304,7.1382,7.1775,7.2297,7.2297,7.2297,7.2297,5.2994,5.1906,5.1277,5.2215,5.1573,5.1312,5.2564,5.341,5.4267,5.5288,5.5248,5.5572,5.666,5.6693,5.7312,5.886,5.8651,5.8712,5.9378,5.8873,5.8214,5.7288,5.6538,5.5822,5.5203,5.4968,5.4707,5.4393,5.4027,5.421,5.4863,5.4759,5.5569,5.7111,5.8078,5.9111,6.0209,6.1674,6.2858,6.3919,6.5405,6.6743,6.7832,6.7416,6.767,6.8138,6.7775,6.7775,6.7945,6.7716,6.7775,6.7875,6.7458,6.7494,6.7405,6.597,6.5475,6.5162,6.4051,6.379,6.3672,6.3097,6.3201,6.328,6.2626,6.2469,6.2365,6.2063,0.0,0.0,0.0,0.0,0.0,0.0,6.5528,6.5841,6.456,6.5684,6.6887,6.754,6.856,6.9171,6.9171,7.0677,7.1304,7.0468,7.1801,7.2376,7.1801,7.2114,7.2297,7.2297,7.2297,7.2297,7.2297,7.2297,7.201,7.1409,7.1173,7.0755,7.0206,6.9971,6.9997,7.0206,7.0206,7.0363,7.0624,7.0938,7.1027,7.1044,7.1382,7.187,7.2254,7.199,7.1902,7.1858,5.3586,5.2699,5.1913,5.1913,5.2033,5.2197,5.2511,5.3766,5.4733,5.4889,5.5569,5.6196,5.6588,5.6693,5.7477,5.9307,5.8836,5.8679,5.9202,5.8836,5.8323,5.7529,5.7216,5.6981,5.685,5.6536,5.6196,5.5804,5.536,5.5491,5.6144,5.5909,5.6771,5.8487,5.8836,5.9914,6.1527,6.1875,6.3258,6.5286,6.5842,6.709,6.8545,6.8002,6.8048,6.8346,6.8475,6.8715,6.8907,6.8584,6.8715,6.8884,6.8493,6.826,6.7957,6.6959,6.6209,6.5559,6.4977,6.4808,6.4665,6.4051,6.4351,6.4456,6.3332,6.3137,6.3097,6.2365,6.2548,0.0,0.0,0.0,6.443,6.3685,0.0,6.4848,6.3449,6.46,6.5946,6.6913,6.7958,6.8753,6.9249,7.0389,7.0755,6.9997,7.1409,7.2036,7.1435,7.1827,7.214,7.2297,7.2297,7.2297,7.2297,7.2166,7.1992,7.1661,7.1374,7.1122,7.0888,7.0577,7.0611,7.0827,7.0714,7.0783,7.1095,7.1487,7.1487,7.1206,7.1646,7.2063,7.2274,7.1653,7.1506,7.155,5.4046,5.3261,5.247,5.247,5.2961,5.3713,5.4811,5.5491,5.6066,5.6641,5.7712,5.8418,5.8418,5.9934,6.1189,6.1853,6.2339,6.2144,6.1073,6.0995,6.0483,5.9369,5.827,5.8166,5.9264,5.8218,5.7617,5.7617,5.759,5.7329,5.6798,5.7355,5.7957,5.8549,5.9637,6.0877,6.2173,6.3298,6.4023,6.4494,6.6029,6.7069,6.7771,6.8782,6.8882,6.8471,6.8496,6.8496,6.854,6.8496,6.8496,6.8558,6.8943,6.8732,6.8168,6.7605,6.7015,6.6406,6.5752,6.5563,6.5385,6.4678,6.4926,6.5057,6.3946,6.4064,6.413,6.3006,6.2771,6.2652,6.2167,0.0,0.0,0.0,0.0,0.0,0.0,6.3057,6.3985,6.4548,6.6652,6.869,7.0389,7.1565,7.1775,7.0651,7.1644,7.2036,7.1435,7.1409,7.1696,7.2271,7.2297,7.2297,7.2297,7.1858,7.1853,7.237,7.1338,7.1116,7.1647,7.0501,7.056,7.1464,7.0895,7.1304,7.2245,7.2271,7.2277,7.2326,7.2352,7.2418,7.2371,7.1314,7.1214,7.155,5.4837,5.4785,5.4654,5.4288,5.468,5.5334,5.6118,5.7033,5.7712,5.7921,5.8941,5.9767,6.0195,6.0734,6.1502,6.2443,6.2365,6.2104,6.1711,6.1319,6.0953,6.0535,5.9777,5.9542,5.9908,5.9542,5.9176,5.882,5.882,5.8889,5.9036,5.8638,5.8703,5.93,6.0832,6.1671,6.2014,6.3815,6.5098,6.6061,6.7374,6.8231,6.8795,6.8796,6.8701,6.8618,6.8971,6.9122,6.9122,6.9122,6.9122,6.9136,6.92,6.9122,6.8911,6.8654,6.8365,6.8044,6.7421,6.7463,6.7492,6.6481,6.6965,6.7279,6.5737,6.5554,6.5371,6.4156,6.3646,6.3201,0.0,0.0,0.0,0.0,0.0,0.0,0.0,6.328,6.4613,6.558,6.6704,6.7619,6.822,6.9684,7.0259,6.9458,7.052,7.1095,7.0886,7.12,7.167,7.2271,7.2297,7.2297,7.2297,7.1814,7.1672,7.1808,7.1525,7.1276,7.1097,7.1097,7.1128,7.11,7.092,7.124,7.1915,7.1915,7.1936,7.1996,7.1996,7.2007,7.1998,7.1616,7.1625,7.1716,5.604,5.6301,5.6301,5.5517,5.6013,5.6719,5.732,5.8209,5.8889,5.9098,6.0117,6.1058,6.1622,6.226,6.294,6.3672,6.3593,6.337,6.2914,6.2731,6.2365,6.1726,6.1555,6.1346,6.1126,6.0708,6.0457,6.0337,5.9882,5.9783,6.0002,5.959,5.9499,5.9776,6.1065,6.1941,6.2458,6.3604,6.506,6.6641,6.7779,6.8612,6.9105,6.92,6.9325,6.9526,6.9677,6.9853,6.9983,6.9983,6.9983,6.9974,6.9736,6.9522,6.9289,6.8972,6.8762,6.851,6.8322,6.8475,6.8471,6.7473,6.8211,6.8753,6.7034,6.6922,6.6913,6.5946,6.4979,6.4247,6.409,6.3855,0.0,0.0,0.0,0.0,0.0,6.3829,6.4979,6.6155,6.6756,6.7174,6.7383,6.8612,6.9197,6.8832,6.9736,7.0363,7.0598,7.0938,7.1487,7.2271,7.2297,7.221,7.2034,7.1775,7.1626,7.1628,7.1517,7.1367,7.1169,7.1189,7.1223,7.1224,7.102,7.134,7.1967,7.1967,7.2027,7.2078,7.2078,7.2087,7.2075,7.1696,7.1544,7.1544,5.7721,5.7826,5.746,5.6327,5.7067,5.7957,5.8497,5.9124,5.9761,6.0274,6.1372,6.2313,6.285,6.4378,6.5345,6.5371,6.5894,6.5711,6.4574,6.4965,6.4548,6.2954,6.3398,6.336,6.2811,6.1767,6.1454,6.1961,6.0827,6.0096,5.9754,6.026,6.0331,6.0007,6.0532,6.1757,6.3367,6.2926,6.4073,6.6287,6.7392,6.8196,6.8848,6.9923,7.0677,7.1083,7.0551,7.0677,7.1083,7.1083,7.1083,7.0983,7.0501,6.9953,6.9381,6.8854,6.8346,6.8052,6.8466,6.8591,6.8442,6.7801,6.881,6.954,6.7857,6.8201,6.8727,6.8194,6.673,6.5711,6.6181,6.4992,6.3867,0.0,0.0,0.0,0.0,0.0,6.4992,6.6103,6.6756,6.7357,6.7906,6.844,6.8805,6.8805,6.937,6.9945,7.052,7.0598,7.1147,7.2219,7.2271,7.2078,7.1594,7.1647,7.1716,7.1774,7.1339,7.141,7.1887,7.0807,7.0881,7.1748,7.1216,7.1565,7.2465,7.2465,7.2497,7.2589,7.2589,7.2638,7.2568,7.156,7.1158,7.1158,5.9464,5.9568,5.9464,5.9176,5.9019,5.916,5.9699,6.1006,6.1999,6.2092,6.3149,6.409,6.4665,6.4743,6.4926,6.5345,6.5136,6.4809,6.4521,6.3961,6.3623,6.3623,6.3439,6.3062,6.2509,6.2599,6.2316,6.1621,6.1363,6.1376,6.1685,6.1121,6.1055,6.1346,6.188,6.2683,6.364,6.4222,6.5588,6.7417,6.812,6.9225,7.043,7.035,7.1108,7.2188,7.1209,7.0958,7.1083,7.1083,7.1083,7.1058,7.0907,7.0782,7.0631,7.0506,7.0326,7.0112,6.9752,6.9896,7.0022,6.9412,7.0162,7.0792,6.9958,6.9938,6.9971,6.937,6.856,6.7578,6.6495,6.6233,6.5789,0.0,0.0,0.0,0.0,0.0,0.0,6.5632,6.6887,6.7645,6.7343,6.8205,6.8805,6.8805,6.937,6.9762,6.9919,7.0729,7.133,7.1618,7.2062,7.2078,7.1594,7.1647,7.1716,7.182,7.1717,7.1761,7.1887,7.161,7.1427,7.1268,7.1117,7.1461,7.2058,7.2058,7.2293,7.2656,7.2656,7.2709,7.2643,7.2414,7.2313,7.2313,6.0133,6.0394,6.0692,6.0927,6.078,6.0717,6.0943,6.2234,6.3384,6.3881,6.4717,6.5606,6.6442,6.6032,6.5834,6.6212,6.5725,6.5422,6.5422,6.4896,6.4492,6.4352,6.4533,6.4207,6.3197,6.3413,0.0,6.2645,6.2184,6.2029,6.2153,6.1612,6.1402,6.1573,6.2356,6.3051,6.3818,6.5285,6.678,6.8221,6.8703,6.9677,0.0,7.0953,7.156,7.2313,7.1937,7.1811,7.1811,7.1811,7.1811,7.1761,7.151,7.1435,7.1384,7.1158,7.1087,7.0968,7.0619,7.052,7.0381,6.9801,7.0274,7.079,7.0421,7.0715,7.0914,7.0529,6.9788,6.9004,6.8298,6.7802,6.7174,0.0,0.0,0.0,0.0,0.0,0.0,0.0,6.7383,6.7854,6.754,6.8089,6.8481,6.8481,6.9239,6.9684,6.9684,7.0781,7.1409,7.1409,7.2219,7.2224,7.1329,7.2045,7.2109,7.1498,7.1775,7.1912,7.1887,7.1661,7.151,7.1435,7.1435,7.1761,7.2263,7.2263,7.2439,7.2693,7.2693,7.2693,7.2693,7.2693,7.2693,7.2643,6.0525,6.1032,6.1633,6.2208,6.244,6.2495,6.2486,6.3243,6.426,6.5371,6.5996,6.6725,6.7798,6.7411,6.7111,6.7111,6.6737,6.6487,6.6487,6.6445,6.5994,6.5073,6.6003,6.586,6.4403,6.4286,6.4261,6.425,6.3126,6.2417,6.2136,6.2136,6.1977,6.1667,6.2772,6.341,6.3852,6.5942,6.7189,6.7886,6.8779,6.9443,7.0088,7.1112,7.1703,7.2015,7.2209,7.2479,7.2693,7.2693,7.2693,7.2593,7.2163,7.2012,7.1912,7.1435,7.1259,7.1184,7.1184,7.0823,7.0291,6.9768,6.9997,7.0331,7.0219,7.0986,7.1658,7.1531,7.0729,7.0128,7.0415,6.9108,6.8037,6.8194,0.0,0.0,0.0,0.0,0.0,0.0,0.0,0.0,6.8011,6.8115,6.8194,6.8115,6.9213,6.9814,6.9605,7.0807,7.1461,7.1304,7.2358,7.2359,7.1135,7.2505,7.2537,7.1309,7.1786,7.2012,7.1987,7.151,7.156,7.2012,7.2012,7.2238,7.2568,7.2568,7.2542,7.2467,7.2467,7.2517,7.2568,7.2568,7.2568,7.2517,6.2327,6.2835,6.341,6.3985,6.4142,6.4424,6.4892,6.4819,6.504,6.6023,6.6365,6.6759,6.738,6.6594,6.6063,6.6063,6.598,6.5965,6.5965,6.5566,6.5485,6.5764,6.606,6.6049,6.5747,6.5747,6.552,6.5109,6.3983,6.3681,6.4026,6.4026,6.3985,6.3994,6.5032,6.4908,6.3961,6.5264,6.4956,6.3806,6.6525,6.7925,6.8458,6.9041,7.0649,7.2353,7.071,7.1238,7.2693,7.2693,7.2693,7.2668,7.2568,7.259,7.2517,7.2464,7.2113,7.1761,7.1761,7.1356,7.0866,7.072,7.1039,7.1347,7.1332,7.178,7.2184,7.2167,7.1984,7.1435,7.0102,6.8821,6.8298,6.9239,0.0,0.0,0.0,0.0,0.0,0.0,0.0,6.8466,0.0,6.8847,6.9213,6.8701,7.0206,7.0494,6.9014,7.099,7.1696,7.0755,7.146,7.2004,7.2198,7.214,7.2193,7.2439,7.2492,7.259,7.259,7.2489,7.2489,7.259,7.259,7.2389,7.2062,7.2062,7.1786,7.1359,7.1359,7.1661,7.2062,7.2062,7.2062,7.2037,6.3685,6.4639,6.537,6.5131,6.5663,6.6048,6.5739,6.5853,6.6228,6.6863,6.6984,6.7279,6.7798,6.7187,6.6712,6.6712,6.678,6.683,6.683,6.6363,6.6228,6.6505,6.6567,6.6564,6.6564,6.684,6.6714,6.6162,6.5634,6.5358,6.5333,6.5333,6.5333,6.5316,6.5099,6.4893,6.4749,6.4219,6.3688,6.3439,6.5276,6.6316,6.6761,6.7326,6.8314,6.9453,6.955,7.0252,7.1238,7.2336,7.2693,7.2693,7.2693,7.2693,7.2693,7.2693,7.2539,7.2339,7.2339,7.1922,7.1477,7.1477,7.1368,7.1339,7.1282,7.191,7.226,7.1616,7.1913,7.1958,7.0781,7.0624,7.0624,7.0598,7.0128,0.0,0.0,0.0,0.0,0.0,0.0,0.0,0.0,0.0,6.9448,6.8858,7.018,7.0494,6.9344,7.12,7.1774,7.0698,7.1527,7.1781,7.1319,7.1957,7.21,7.1887,7.2417,7.2693,7.2693,7.2693,7.2693,7.2668,7.2439,7.2163,7.1887,7.1585,7.1485,7.151,7.151,7.1836,7.2339,7.2339,7.2163,7.1861,6.4923,6.6056,6.6818,6.6268,6.6808,6.7094,6.6285,6.6626,6.706,6.7273,6.7333,6.7622,6.8168,6.7789,6.7562,6.779,6.7938,6.802,6.8145,6.7744,6.7543,6.7712,6.7568,6.7568,6.7712,6.7869,6.7769,6.7317,6.7216,6.6739,6.5936,6.6413,6.6472,6.6117,6.4861,6.4316,6.4365,6.2818,6.2367,6.2795,6.3915,6.4588,6.4925,6.541,6.5915,6.6554,6.7674,6.848,6.9259,7.1334,7.2336,7.2693,7.2693,7.2693,7.2693,7.2693,7.2693,7.2693,7.2693,7.2339,7.1912,7.1912,7.1578,7.1234,7.1307,7.2062,7.2483,7.1405,7.167,7.201,7.1644,7.214,7.235,7.1696,7.1278,0.0,0.0,0.0,0.0,0.0,0.0,0.0,6.9501,6.9736,6.9657,6.904,6.9997,7.0389,6.9919,7.1409,7.1913,7.107,7.1834,7.1859,7.1036,7.1901,7.2129,7.1636,7.2364,7.2693,7.2693,7.2568,7.2517,7.2467,7.1962,7.1661,7.151,7.0958,7.0983,7.1384,7.1384,7.1786,7.2389,7.2389,7.2188,7.1836,6.6387,6.6535,6.6945,6.7861,6.7418,6.7017,6.7372,6.7212,6.6934,6.6694,6.6906,6.7219,6.7634,6.7313,6.7455,6.8416,6.8522,6.8703,6.9205,6.9205,6.9426,6.9974,6.9476,6.9451,6.9999,6.9024,6.8522,6.8472,6.797,6.6915,6.5409,6.7442,6.7656,6.6318,6.57,6.3712,6.0779,6.1046,6.0124,5.8717,6.1583,6.2731,6.2775,6.2819,6.4343,6.6087,6.393,6.4693,6.7001,6.9161,7.1143,7.2693,7.2693,7.2693,7.2693,7.2693,7.2693,7.2693,7.2693,7.2339,7.1912,7.1912,7.181,7.184,7.2343,7.2843,7.3185,7.2904,7.2123,7.1644,7.214,7.1461,7.1147,7.2062,7.0886,6.9997,0.0,0.0,0.0,0.0,0.0,0.0,0.0,6.9893,7.0259,6.9657,7.0232,7.0572,7.052,7.1644,7.2227,7.2175,7.1889,7.2423,7.3791,7.2096,7.1958,7.3343,7.2941,7.2693,7.2668,7.2213,7.1987,7.1962,7.141,7.0882,7.0426,6.9828,6.9582,6.9632,6.9632,7.033,7.1234,7.1234,7.151,7.1887,6.6605,6.7195,6.7725,6.7859,6.8127,6.8264,6.8228,6.8656,6.8379,6.6597,6.7014,6.7555,6.7705,6.8133,6.8603,6.9029,6.9727,7.0179,7.0405,7.0129,7.0179,7.0778,6.8986,6.8265,6.8849,6.6882,6.5845,6.5845,6.6591,6.6623,6.5987,6.6867,6.63,6.4483,6.3046,6.1816,6.0648,5.9578,5.8801,5.8425,5.9675,6.0349,6.0582,6.0582,6.1422,6.2608,6.2822,6.3578,6.4824,6.6952,6.9113,7.1047,7.2336,7.2693,7.2693,7.2693,7.2693,7.2693,7.2693,7.2517,7.2389,7.2389,7.2379,7.2314,7.2218,7.2788,7.3249,7.2889,7.2604,7.2506,7.2742,7.2402,7.2036,7.1801,7.1487,7.1095,0.0,0.0,0.0,0.0,0.0,0.0,0.0,6.9788,7.0232,7.0677,7.0938,7.1252,7.1592,7.1774,7.2037,7.2469,7.1404,7.1316,7.2315,7.1213,7.1154,7.2087,7.2188,7.2238,7.2238,7.2339,7.2037,7.141,7.1184,7.0581,6.9752,6.9481,6.9582,6.9928,6.9928,7.0606,7.1585,7.1585,7.1937,7.2389,6.7154,6.7493,6.7693,6.7491,6.812,6.8329,6.735,6.8425,6.8447,6.5847,6.6296,6.6822,6.6675,6.7336,6.7898,6.8216,6.8996,6.9533,6.9704,6.9337,6.9312,6.9679,6.7749,6.682,6.72,6.5216,6.4238,6.4238,6.5328,6.5587,6.4948,6.4948,6.4225,6.2774,6.1207,6.0359,6.0012,5.8503,5.8105,5.8415,5.856,5.8891,5.9285,5.914,5.9471,6.0177,6.1545,6.2133,6.26,6.4723,6.6478,6.8208,7.0951,7.1788,7.1884,7.2526,7.2693,7.2693,7.2693,7.2693,7.2693,7.2693,7.2693,7.264,7.2426,7.2911,7.336,7.3072,7.3204,7.3369,7.3369,7.3238,7.2898,7.2271,7.2088,7.1827,7.12,7.0938,0.0,0.0,0.0,0.0,7.0062,7.028,7.0654,7.0966,7.1131,7.1504,7.2052,7.1926,7.1992,7.2294,7.1101,7.072,7.1314,7.0622,7.0677,7.1334,7.1711,7.1987,7.2163,7.2389,7.1987,7.1083,7.0907,7.0405,6.9677,6.9456,6.9677,7.0029,7.0029,7.0606,7.1435,7.161,7.2012,7.2514,6.846,6.7322,6.6427,6.7026,6.7123,6.6417,6.4298,6.5754,6.6393,6.4201,6.4373,6.4536,6.4007,6.3961,6.4399,6.5457,6.5548,6.5804,6.6409,6.6432,6.6432,6.6432,6.5873,6.5499,6.5499,6.4969,6.4717,6.4717,6.4694,6.3615,6.1553,6.1553,6.1629,6.173,6.1227,5.9862,5.7918,5.7918,5.7918,5.796,5.8415,5.8891,5.9243,5.8788,5.9181,5.9926,5.9523,5.9647,6.0354,6.2497,6.3244,6.3986,6.8257,6.9647,7.0059,7.2099,7.2693,7.2693,7.2693,7.2693,7.2693,7.2693,7.2693,7.2835,7.3353,7.3519,7.3622,7.4005,7.4027,7.3996,7.3996,7.35,7.3291,7.3892,7.2533,7.1618,7.2193,7.1775,0.0,7.1382,7.2376,7.2435,7.0835,7.1723,7.1708,7.0116,7.0552,7.1126,7.1594,7.2112,7.2154,7.1731,7.1254,7.1236,7.182,7.0805,7.0853,7.1887,7.1912,7.2188,7.2643,7.2163,7.161,7.1058,7.0551,7.03,7.025,6.9677,6.9406,6.9406,6.9406,6.9803,7.0401,7.0882,7.1435,7.1987,6.3863,6.3453,6.3316,6.3875,6.3968,6.3988,6.4109,6.4704,6.4484,6.2682,6.2924,6.2568,6.0949,6.3289,6.5129,6.5499,6.587,6.6195,6.6405,6.6405,6.6405,6.6405,6.4818,6.3917,6.3917,6.2038,6.1011,6.1011,6.2104,6.2315,6.1645,6.1645,6.074,5.9116,5.8947,5.867,5.8394,5.8394,5.8581,5.8871,5.9015,5.916,5.9285,5.914,5.945,5.9968,5.9823,5.9864,6.0093,6.0803,6.099,6.1487,6.4341,6.7223,6.9696,7.0397,7.1598,7.2693,7.2693,7.2693,7.2693,7.2693,7.1645,7.0999,7.2573,7.3237,7.3656,7.4104,7.4097,7.4073,7.4073,7.3876,7.3787,7.397,7.3186,7.2637,7.282,7.2376,7.1722,7.1001,7.1243,7.099,6.9719,7.0292,7.0843,7.1045,7.1679,7.1949,7.1698,7.1154,7.116,7.1769,7.0558,7.0382,7.1314,7.0622,7.0677,7.1359,7.1736,7.2188,7.2668,7.2492,7.2163,7.161,7.1058,7.0652,7.025,6.9677,6.9406,6.9406,6.9406,7.0003,7.0903,7.1008,7.1661,7.2489,6.2267,6.1838,6.1564,6.188,6.213,6.2227,6.212,6.2905,6.2905,6.1086,6.1254,6.1063,5.971,6.1891,6.3421,6.3421,6.3809,6.3986,6.3986,6.3986,6.3986,6.3986,6.2681,6.2004,6.2004,6.0405,5.9554,5.9554,6.0391,6.0883,6.1054,6.0883,6.0044,5.8684,5.8519,5.8601,5.885,5.8684,5.8788,5.9036,5.9036,5.914,5.9305,5.9305,5.9595,5.9988,5.9988,5.9988,5.9988,5.9988,5.9988,6.025,6.1591,6.4392,6.7371,6.8159,6.9307,7.0325,7.0325,7.0325,7.0325,7.0325,6.9356,6.8747,7.0035,7.0734,7.1405,7.2523,7.2833,7.3257,7.4257,7.4203,7.4111,7.4291,7.3839,7.3403,7.3225,7.2894,7.2352,7.1502,7.1406,7.0997,6.9903,7.0139,7.0509,7.077,7.1166,7.124,7.0884,7.0819,7.0816,7.0912,6.9939,6.9878,7.0803,7.0476,7.0677,7.141,7.1962,7.2389,7.2693,7.2693,7.2539,7.2188,7.1636,7.1083,7.0577,6.9978,6.9582,6.9406,6.9406,6.9978,7.0853,7.1008,7.1661,7.2439,6.2757,6.1712,6.074,6.074,6.116,6.0835,5.8846,6.0607,6.1495,5.9502,5.9657,5.9947,5.9947,5.9968,5.9988,5.9988,5.9988,5.9988,5.9988,5.9988,5.9988,5.9988,5.9988,5.9988,5.9988,5.9988,5.9988,5.9988,5.9554,5.9574,5.9988,5.9554,5.9554,5.9926,5.9492,5.9305,5.9264,5.885,5.8684,5.8705,5.8705,5.8953,5.9347,5.9347,5.9616,5.9988,5.9988,5.9988,5.9988,5.9988,5.9988,5.9988,5.9988,6.1353,6.3397,6.5578,6.6256,6.6405,6.6405,6.6405,6.6405,6.6405,6.6405,6.6355,6.6206,6.6631,6.762,6.9623,7.042,7.1474,7.3958,7.4012,7.3882,7.4528,7.4124,7.3644,7.3328,7.3257,7.305,7.2576,7.2531,7.2144,7.1084,7.0988,7.0629,6.9697,6.9582,6.9582,6.9627,7.0993,7.1089,6.9481,6.9456,6.9752,7.035,7.0401,7.0907,7.1962,7.2489,7.2693,7.2693,7.2693,7.2693,7.2643,7.2138,7.1585,7.1033,7.0526,6.9928,6.9406,6.9406,6.9803,7.0426,7.0953,7.146,7.2037,5.8641,5.8372,5.8109,5.8109,5.8192,5.8252,5.8073,5.8623,5.8963,5.8777,5.9181,5.9471,5.9471,5.9781,5.9988,5.9988,5.9988,5.9988,5.9988,5.9988,5.9988,5.9988,5.9988,5.9988,5.9988,5.9988,5.9988,5.9988,5.9885,5.9885,5.9988,5.9885,5.9699,5.945,5.9347,5.9305,5.9285,5.9181,5.9347,5.9657,5.9657,5.9719,5.9823,5.9823,5.9906,5.9988,5.9988,5.9988,5.9988,5.9988,5.9988,5.9988,5.9988,6.0334,6.1198,6.3346,6.5126,6.6405,6.6405,6.6405,6.6405,6.6405,6.6405,6.5956,6.4341,6.5327,6.6704,6.7199,6.7719,6.8236,6.8822,6.9189,6.9937,7.1656,7.1468,7.161,7.3166,7.299,7.2505,7.2049,7.2003,7.1769,7.1138,7.1066,7.1284,7.1889,7.1519,7.1473,7.1914,7.191,7.1347,7.0104,7.0079,7.033,7.0928,7.1309,7.1861,7.2492,7.2618,7.2693,7.2693,7.2693,7.2693,7.2643,7.2138,7.1585,7.1033,7.0526,6.9928,6.9406,6.9406,7.0029,7.0953,7.1033,7.1711,7.2517,5.7185,5.7185,5.7185,5.7185,5.7185,5.738,5.7856,5.8105,5.8394,5.8871,5.9326,5.9616,5.9616,5.9843,5.9988,5.9988,5.9988,5.9988,5.9988,5.9988,5.9988,5.9988,5.9988,5.9988,5.9988,5.9988,5.9988,5.9988,5.9988,5.9988,5.9988,5.9988,5.9864,5.9616,5.9616,5.9616,5.9616,5.9616,5.9761,5.9988,5.9988,5.9988,5.9988,5.9988,5.9988,5.9988,5.9988,5.9988,5.9988,5.9988,5.9988,5.9988,5.9988,5.9988,6.025,6.1405,6.2527,6.3477,6.3477,6.3477,6.3477,6.3477,6.3477,6.3193,6.1983,6.263,6.3732,6.4723,6.5154,6.5683,6.6856,6.735,6.7967,6.9382,6.9359,6.9478,7.0364,7.1067,7.1194,7.0477,7.1224,7.1637,7.1154,7.1083,7.1347,7.1906,7.1674,7.1674,7.1978,7.1674,7.1259,7.0702,7.0677,7.0907,7.146,7.2012,7.2439,7.2693,7.2693,7.2693,7.2693,7.2693,7.2693,7.2668,7.2367,7.1962,7.1435,7.1133,7.0681,7.0204,7.0204,7.0706,7.146,7.146,7.1987,7.2643,5.7185,5.7185,5.7185,5.7185,5.7185,5.7351,5.7939,5.8353,5.8788,5.9326,5.974,5.9988,5.9988,5.9988,5.9988,5.9988,5.9988,5.9988,5.9988,5.9988,5.9988,5.9988,5.9988,5.9988,5.9988,5.9988,5.9988,5.9988,5.9988,5.9988,5.9988,5.9988,5.9988,5.9988,5.9988,5.9988,5.9988,5.9988,5.9988,5.9988,5.9988,5.9988,5.9988,5.9988,5.9988,5.9988,5.9988,5.9988,5.9988,5.9988,5.9988,5.9988,5.9988,5.9988,5.9988,5.9988,5.9988,5.9988,5.9988,5.9988,5.9988,5.9988,5.9988,5.9988,5.9988,5.9988,6.049,6.2343,6.2703,6.3397,6.5633,6.6033,6.6432,6.7618,6.7472,6.7301,6.7566,6.882,6.9503,6.8925,7.0454,7.1509,7.1384,7.1334,7.1334,7.1334,7.1334,7.1334,7.1334,7.1334,7.1334,7.1334,7.1259,7.146,7.2037,7.2442,7.2693,7.2693,7.2693,7.2693,7.2693,7.2693,7.2693,7.2693,7.2693,7.2414,7.1887,7.1811,7.146,7.0958,7.0857,7.1234,7.1786,7.1786,7.2188,7.2593,5.7185,5.7185,5.7185,5.7185,5.7185,5.7475,5.8374,5.856,5.8912,5.9781,5.9947,5.9988,5.9988,5.9988,5.9988,5.9988,5.9988,5.9988,5.9988,5.9988,5.9988,5.9988,5.9988,5.9988,5.9988,5.9988,5.9988,5.9988,5.9988,5.9988,5.9988,5.9988,5.9988,5.9988,5.9988,5.9988,5.9988,5.9988,5.9988,5.9988,5.9988,5.9988,5.9988,5.9988,5.9988,5.9988,5.9988,5.9988,5.9988,5.9988,5.9988,5.9988,5.9988,5.9988,5.9988,5.9988,5.9988,5.9988,5.9988,5.9988,5.9988,5.9988,5.9988,5.9988,5.9988,5.9988,6.0093,6.0438,6.049,6.0647,6.1042,6.1073,6.2451,6.6605,6.5397,6.5312,6.9342,6.8221,6.762,6.9236,6.9721,7.0587,7.2276,7.2464,7.2464,7.2464,7.2464,7.2464,7.2464,7.2464,7.2464,7.2464,7.2012,7.2037,7.2542,7.2643,7.2693,7.2693,7.2693,7.2693,7.2693,7.2693,7.2693,7.2693,7.2693,7.2414,7.1861,7.141,7.0928,7.0376,6.9878,7.033,7.1209,7.1209,7.1861,7.2593,5.7185,5.7185,5.7185,5.7185,5.7442,5.7836,5.8519,5.8829,5.9222,5.9906,5.9988,5.9988,5.9988,5.9988,5.9988,5.9988,5.9988,5.9988,5.9988,5.9988,5.9988,5.9988,5.9988,5.9988,5.9988,5.9988,5.9988,5.9988,5.9988,5.9988,5.9988,5.9988,5.9988,5.9988,5.9988,5.9988,5.9988,5.9988,5.9988,5.9988,5.9988,5.9988,5.9988,5.9988,5.9988,5.9988,5.9988,5.9988,5.9988,5.9988,5.9988,5.9988,5.9988,5.9988,5.9988,5.9988,5.9988,5.9988,5.9988,5.9988,5.9988,5.9988,5.9988,5.9988,5.9988,5.9988,5.9988,5.9988,5.9988,5.9988,5.9988,5.9988,6.0709,6.2984,6.2288,6.2275,6.4478,6.4728,6.5026,6.6029,6.8208,6.9962,7.0951,7.2026,7.2693,7.2693,7.2693,7.2693,7.2693,7.2693,7.2693,7.2693,7.2489,7.2464,7.2693,7.2693,7.2693,7.2693,7.2693,7.2693,7.2693,7.2693,7.2693,7.2693,7.2693,7.259,7.2339,7.2062,7.1811,7.156,7.1263,7.1489,7.1962,7.1962,7.2288,7.2568,5.7185,5.7185,5.7185,5.7185,5.7608,5.8084,5.8539,5.8995,5.9471,5.9926,5.9988,5.9988,5.9988,5.9988,5.9988,5.9988,5.9988,5.9988,5.9988,5.9988,5.9988,5.9988,5.9988,5.9988,5.9988,5.9988,5.9988,5.9988,5.9988,5.9988,5.9988,5.9988,5.9988,5.9988,5.9988,5.9988,5.9988,5.9988,5.9988,5.9988,5.9988,5.9988,5.9988,5.9988,5.9988,5.9988,5.9988,5.9988,5.9988,5.9988,5.9988,5.9988,5.9988,5.9988,5.9988,5.9988,5.9988,5.9988,5.9988,5.9988,5.9988,5.9988,5.9988,5.9988,5.9988,5.9988,5.9988,5.9988,5.9988,5.9988,5.9988,5.9988,6.0218,6.0824,6.0417,6.0218,6.0824,6.181,6.2651,6.3142,6.6129,6.8306,6.882,7.0301,7.1238,7.1238,7.1693,7.1979,7.1979,7.2431,7.2693,7.2693,7.2693,7.2693,7.2693,7.2693,7.2693,7.2693,7.2693,7.2693,7.2693,7.2693,7.2693,7.2693,7.2693,7.2693,7.2668,7.259,7.2492,7.2467,7.2389,7.2414,7.2492,7.2492,7.2568,7.2517,5.7185,5.7185,5.7185,5.7185,5.7608,5.8084,5.8539,5.8995,5.9471,5.9926,5.9988,5.9988,5.9988,5.9988,5.9988,5.9988,5.9988,5.9988,5.9988,5.9988,5.9988,5.9988,5.9988,5.9988,5.9988,5.9988,5.9988,5.9988,5.9988,5.9988,5.9988,5.9988,5.9988,5.9988,5.9988,5.9988,5.9988,5.9988,5.9988,5.9988,5.9988,5.9988,5.9988,5.9988,5.9988,5.9988,5.9988,5.9988,5.9988,5.9988,5.9988,5.9988,5.9988,5.9988,5.9988,5.9988,5.9988,5.9988,5.9988,5.9988,5.9988,5.9988,5.9988,5.9988,5.9988,5.9988,5.9988,5.9988,5.9988,5.9988,5.9988,5.9988,6.0824,6.3296,6.1607,6.0898,6.337,6.169,6.099,6.2959,6.3499,6.4442,6.6455,6.6753,6.6852,6.6852,6.8698,6.9817,6.9817,7.1645,7.2693,7.2693,7.2693,7.2693,7.2693,7.2693,7.2693,7.2693,7.2693,7.2693,7.2693,7.2693,7.2693,7.2693,7.2693,7.2693,7.2643,7.2188,7.1962,7.1912,7.141,7.151,7.1962,7.1962,7.2288,7.2517,5.7185,5.7185,5.7185,5.7185,5.7856,5.8415,5.8581,5.9243,5.9781,5.9968,5.9988,5.9988,5.9988,5.9988,5.9988,5.9988,5.9988,5.9988,5.9988,5.9988,5.9988,5.9988,5.9988,5.9988,5.9988,5.9988,5.9988,5.9988,5.9988,5.9988,5.9988,5.9988,5.9988,5.9988,5.9988,5.9988,5.9988,5.9988,5.9988,5.9988,5.9988,5.9988,5.9988,5.9988,5.9988,5.9988,5.9988,5.9988,5.9988,5.9988,5.9988,5.9988,5.9988,5.9988,5.9988,5.9988,5.9988,5.9988,5.9988,5.9988,5.9988,5.9988,5.9988,5.9988,5.9988,5.9988,5.9988,5.9988,5.9988,5.9988,5.9988,5.9988,6.0344,6.1357,6.0647,6.0344,6.1378,6.0647,6.0281,6.1094,6.2395,6.3499,6.4341,6.5629,6.6405,6.6405,6.8405,6.9599,6.9599,7.1598,7.2693,7.2693,7.2693,7.2693,7.2693,7.2693,7.2693,7.2693,7.2693,7.2693,7.2693,7.2693,7.2693,7.2693,7.2693,7.2693,7.2668,7.2467,7.2414,7.2389,7.2188,7.2238,7.2414,7.2414,7.2539,7.2517,5.7392,5.7566,5.767,5.767,5.8312,5.8829,5.8829,5.9492,5.9988,5.9988,5.9988,5.9988,5.9988,5.9988,5.9988,5.9988,5.9988,5.9988,5.9988,5.9988,5.9988,5.9988,5.9988,5.9988,5.9988,5.9988,5.9988,5.9988,5.9988,5.9988,5.9988,5.9988,5.9988,5.9988,5.9988,5.9988,5.9988,5.9988,5.9988,5.9988,5.9988,5.9988,5.9988,5.9988,5.9988,5.9988,5.9988,5.9988,5.9988,5.9988,5.9988,5.9988,5.9988,5.9988,5.9988,5.9988,5.9988,5.9988,5.9988,5.9988,5.9988,5.9988,5.9988,5.9988,5.9988,5.9988,5.9988,5.9988,5.9988,5.9988,5.9988,5.9988,5.9988,5.9988,5.9988,5.9988,5.9988,5.9988,5.9988,5.9988,6.1301,6.2189,6.2189,6.3528,6.4369,6.4369,6.7001,6.9161,7.0493,7.1931,7.2693,7.2693,7.2693,7.2693,7.2693,7.2693,7.2693,7.2693,7.2693,7.2693,7.2693,7.2693,7.2693,7.2693,7.2693,7.2693,7.2693,7.2693,7.2693,7.2693,7.2693,7.2693,7.2693,7.2693,7.2693,7.2517,5.7918,5.8291,5.8601,5.8601,5.8995,5.9305,5.9305,5.9699,5.9988,5.9988,5.9988,5.9988,5.9988,5.9988,5.9988,5.9988,5.9988,5.9988,5.9988,5.9988,5.9988,5.9988,5.9988,5.9988,5.9988,5.9988,5.9988,5.9988,5.9988,5.9988,5.9988,5.9988,5.9988,5.9988,5.9988,5.9988,5.9988,5.9988,5.9988,5.9988,5.9988,5.9988,5.9988,5.9988,5.9988,5.9988,5.9988,5.9988,5.9988,5.9988,5.9988,5.9988,5.9988,5.9988,5.9988,5.9988,5.9988,5.9988,5.9988,5.9988,5.9988,5.9988,5.9988,5.9988,5.9988,5.9988,5.9988,5.9988,5.9988,5.9988,5.9988,5.9988,5.9988,5.9988,5.9988,5.9988,5.9988,5.9988,5.9988,5.9988,5.9988,5.9988,5.9988,5.9988,5.9988,5.9988,6.3964,6.8257,7.2431,7.2693,7.2693,7.2693,7.2693,7.2693,7.2693,7.2693,7.2693,7.2693,7.2693,7.2693,7.2693,7.2693,7.2693,7.2693,7.2693,7.2693,7.2693,7.2693,7.2693,7.2693,7.2693,7.2693,7.2693,7.2668,7.2668,7.2517,5.8332,5.8519,5.8601,5.8601,5.8995,5.9305,5.9305,5.9699,5.9988,5.9988,5.9988,5.9988,5.9988,5.9988,5.9988,5.9988,5.9988,5.9988,5.9988,5.9988,5.9988,5.9988,5.9988,5.9988,5.9988,5.9988,5.9988,5.9988,5.9988,5.9988,5.9988,5.9988,5.9988,5.9988,5.9988,5.9988,5.9988,5.9988,5.9988,5.9988,5.9988,5.9988,5.9988,5.9988,5.9988,5.9988,5.9988,5.9988,5.9988,5.9988,5.9988,5.9988,5.9988,5.9988,5.9988,5.9988,5.9988,5.9988,5.9988,5.9988,5.9988,5.9988,5.9988,5.9988,5.9988,5.9988,5.9988,5.9988,5.9988,5.9988,5.9988,5.9988,5.9988,5.9988,5.9988,5.9988,5.9988,5.9988,5.9988,5.9988,5.9988,5.9988,5.9988,5.9988,5.9988,5.9988,6.3964,6.7594,7.0397,7.1884,7.2693,7.2693,7.2693,7.2693,7.2693,7.2693,7.2693,7.2693,7.2693,7.2693,7.2693,7.2693,7.2693,7.2693,7.2693,7.2693,7.2693,7.2693,7.2693,7.2693,7.2693,7.2693,7.2643,7.2288,7.2163,7.1987,5.8788,5.9036,5.916,5.916,5.9388,5.9574,5.9574,5.9802,5.9988,5.9988,5.9988,5.9988,5.9988,5.9988,5.9988,5.9988,5.9988,5.9988,5.9988,5.9988,5.9988,5.9988,5.9988,5.9988,5.9988,5.9988,5.9988,5.9988,5.9988,5.9988,5.9988,5.9988,5.9988,5.9988,5.9988,5.9988,5.9988,5.9988,5.9988,5.9988,5.9988,5.9988,5.9988,5.9988,5.9988,5.9988,5.9988,5.9988,5.9988,5.9988,5.9988,5.9988,5.9988,5.9988,5.9988,5.9988,5.9988,5.9988,5.9988,5.9988,5.9988,5.9988,5.9988,5.9988,5.9988,5.9988,5.9988,5.9988,5.9988,5.9988,5.9988,5.9988,5.9988,5.9988,5.9988,5.9988,5.9988,5.9988,5.9988,5.9988,5.9988,5.9988,5.9988,5.9988,6.0334,6.1198,6.4471,6.7348,6.9502,7.1598,7.2693,7.2693,7.2693,7.2693,7.2693,7.2693,7.2693,7.2693,7.2693,7.2693,7.2693,7.2693,7.2693,7.2693,7.2693,7.2693,7.2693,7.2693,7.2542,7.2389,7.2389,7.2263,7.2037,7.1711,7.1585,7.146,5.9264,5.9699,5.9988,5.9988,5.9988,5.9988,5.9988,5.9988,5.9988,5.9988,5.9988,5.9988,5.9988,5.9988,5.9988,5.9988,5.9988,5.9988,5.9988,5.9988,5.9988,5.9988,5.9988,5.9988,5.9988,5.9988,5.9988,5.9988,5.9988,5.9988,5.9988,5.9988,5.9988,5.9988,5.9988,5.9988,5.9988,5.9988,5.9988,5.9988,5.9988,5.9988,5.9988,5.9988,5.9988,5.9988,5.9988,5.9988,5.9988,5.9988,5.9988,5.9988,5.9988,5.9988,5.9988,5.9988,5.9988,5.9988,5.9988,5.9988,5.9988,5.9988,5.9988,5.9988,5.9988,5.9988,5.9988,5.9988,5.9988,5.9988,5.9988,5.9988,5.9988,5.9988,5.9988,5.9988,5.9988,5.9988,5.9988,5.9988,5.9988,5.9988,5.9988,5.9988,6.0803,6.2754,6.5076,6.7249,6.921,7.1477,7.2693,7.2693,7.2693,7.2693,7.2693,7.2693,7.2693,7.2693,7.2693,7.2693,7.2693,7.2693,7.2693,7.2693,7.2693,7.2693,7.2693,7.2693,7.2439,7.1987,7.1987,7.1636,7.1158,7.1108,7.1058,7.0932,5.9761,5.9926,5.9988,5.9988,5.9988,5.9988,5.9988,5.9988,5.9988,5.9988,5.9988,5.9988,5.9988,5.9988,5.9988,5.9988,5.9988,5.9988,5.9988,5.9988,5.9988,5.9988,5.9988,5.9988,5.9988,5.9988,5.9988,5.9988,5.9988,5.9988,5.9988,5.9988,5.9988,5.9988,5.9988,5.9988,5.9988,5.9988,5.9988,5.9988,5.9988,5.9988,5.9988,5.9988,5.9988,5.9988,5.9988,5.9988,5.9988,5.9988,5.9988,5.9988,5.9988,5.9988,5.9988,5.9988,5.9988,5.9988,5.9988,5.9988,5.9988,5.9988,5.9988,5.9988,5.9988,5.9988,5.9988,5.9988,5.9988,5.9988,5.9988,5.9988,5.9988,5.9988,5.9988,5.9988,5.9988,5.9988,5.9988,5.9988,5.9988,5.9988,5.9988,5.9988,6.0198,6.0647,6.4217,6.6604,6.7051,7.0638,7.2693,7.2693,7.2693,7.2693,7.2693,7.2693,7.2693,7.2693,7.2693,7.2693,7.2693,7.2693,7.2693,7.2693,7.2693,7.2693,7.2693,7.2693,7.2618,7.2539,7.2539,7.2213,7.1686,7.1234,7.0807,7.0401,5.9906,5.9988,5.9988,5.9988,5.9988,5.9988,5.9988,5.9988,5.9988,5.9988,5.9988,5.9988,5.9988,5.9988,5.9988,5.9988,5.9988,5.9988,5.9988,5.9988,5.9988,5.9988,5.9988,5.9988,5.9988,5.9988,5.9988,5.9988,5.9988,5.9988,5.9988,5.9988,5.9988,5.9988,5.9988,5.9988,5.9988,5.9988,5.9988,5.9988,5.9988,5.9988,5.9988,5.9988,5.9988,5.9988,5.9988,5.9988,5.9988,5.9988,5.9988,5.9988,5.9988,5.9988,5.9988,5.9988,5.9988,5.9988,5.9988,5.9988,5.9988,5.9988,5.9988,5.9988,5.9988,5.9988,5.9988,5.9988,5.9988,5.9988,5.9988,5.9988,5.9988,5.9988,5.9988,5.9988,5.9988,5.9988,5.9988,5.9988,5.9988,5.9988,5.9988,5.9988,5.9988,5.9988,6.3964,6.6405,6.6405,7.0397,7.2693,7.2693,7.2693,7.2693,7.2693,7.2693,7.2693,7.2693,7.2693,7.2693,7.2693,7.2693,7.2693,7.2693,7.2693,7.2693,7.2693,7.2693,7.2517,7.2339,7.2339,7.1987,7.1435,7.0953,7.0355,6.9828,5.9906,5.9988,5.9988,5.9988,5.9988,5.9988,5.9988,5.9988,5.9988,5.9988,5.9988,5.9988,5.9988,5.9988,5.9988,5.9988,5.9988,5.9988,5.9988,5.9988,5.9988,5.9988,5.9988,5.9988,5.9988,5.9988,5.9988,5.9988,5.9988,5.9988,5.9988,5.9988,5.9988,5.9988,5.9988,5.9988,5.9988,5.9988,5.9988,5.9988,5.9988,5.9988,5.9988,5.9988,5.9988,5.9988,5.9988,5.9988,5.9988,5.9988,5.9988,5.9988,5.9988,5.9988,5.9988,5.9988,5.9988,5.9988,5.9988,5.9988,5.9988,5.9988,5.9988,5.9988,5.9988,5.9988,5.9988,5.9988,5.9988,5.9988,5.9988,5.9988,5.9988,5.9988,5.9988,5.9988,5.9988,5.9988,5.9988,5.9988,5.9988,5.9988,5.9988,5.9988,5.9988,5.9988,6.3964,6.6405,6.6405,7.0397,7.2693,7.2693,7.2693,7.2693,7.2693,7.2693,7.2693,7.2693,7.2693,7.2693,7.2693,7.2693,7.2693,7.2693,7.2693,7.2693,7.2693,7.2693,7.2464,7.2037,7.2037,7.1711,7.1158,7.0551,6.9928,6.9406,5.9988,5.9988,5.9988,5.9988,5.9988,5.9988,5.9988,5.9988,5.9988,5.9988,5.9988,5.9988,5.9988,5.9988,5.9988,5.9988,5.9988,5.9988,5.9988,5.9988,5.9988,5.9988,5.9988,5.9988,5.9988,5.9988,5.9988,5.9988,5.9988,5.9988,5.9988,5.9988,5.9988,5.9988,5.9988,5.9988,5.9988,5.9988,5.9988,5.9988,5.9988,5.9988,5.9988,5.9988,5.9988,5.9988,5.9988,5.9988,5.9988,5.9988,5.9988,5.9988,5.9988,5.9988,5.9988,5.9988,5.9988,5.9988,5.9988,5.9988,5.9988,5.9988,5.9988,5.9988,5.9988,5.9988,5.9988,5.9988,5.9988,5.9988,5.9988,5.9988,5.9988,5.9988,5.9988,5.9988,5.9988,5.9988,5.9988,5.9988,5.9988,5.9988,5.9988,5.9988,5.9988,5.9988,6.3964,6.6405,6.6405,7.0397,7.2693,7.2693,7.2693,7.2693,7.2693,7.2693,7.2693,7.2693,7.2693,7.2693,7.2693,7.2693,7.2693,7.2693,7.2693,7.2693,7.2693,7.2693,7.2643,7.2568,7.2568,7.2288,7.1661,7.0677,6.9928,6.9406,5.9988,5.9988,5.9988,5.9988,5.9988,5.9988,5.9988,5.9988,5.9988,5.9988,5.9988,5.9988,5.9988,5.9988,5.9988,5.9988,5.9988,5.9988,5.9988,5.9988,5.9988,5.9988,5.9988,5.9988,5.9988,5.9988,5.9988,5.9988,5.9988,5.9988,5.9988,5.9988,5.9988,5.9988,5.9988,5.9988,5.9988,5.9988,5.9988,5.9988,5.9988,5.9988,5.9988,5.9988,5.9988,5.9988,5.9988,5.9988,5.9988,5.9988,5.9988,5.9988,5.9988,5.9988,5.9988,5.9988,5.9988,5.9988,5.9988,5.9988,5.9988,5.9988,5.9988,5.9988,5.9988,5.9988,5.9988,5.9988,5.9988,5.9988,5.9988,5.9988,5.9988,5.9988,5.9988,5.9988,5.9988,5.9988,5.9988,5.9988,5.9988,5.9988,5.9988,5.9988,5.9988,5.9988,6.2886,6.5126,6.6355,6.9283,7.1502,7.2668,7.2693,7.2693,7.2693,7.2693,7.2693,7.2693,7.2693,7.2693,7.2693,7.2693,7.2693,7.2693,7.2693,7.2517,7.2263,7.2263,7.2087,7.1811,7.1811,7.1284,7.0435,6.9978,6.925,6.8522]},{"header":{"parameterUnit":"m.s-1","parameterCategory":1,"la1":30.6,"la2":28.766,"lo1":-90.7593,"lo2":-88.6598,"dx":0.0162,"dy":0.0183,"nx":116,"ny":114,"refTime":"2022-12-15T06:00:00:Z","depth":0,"parameterNumber":3,"parameterNumberName":"V-component_of_WINDS"},"data":[0.0,0.0,0.0,0.0,0.0,0.0,0.0,0.0,0.0,0.0,0.0,0.0,0.0,0.0,0.0,0.0,0.0,0.0,0.0,0.0,0.0,0.0,0.0,0.0,0.0,0.0,0.0,0.0,0.0,0.0,0.0,0.0,0.0,0.0,0.0,0.0,0.0,0.0,0.0,0.0,0.0,0.0,0.0,0.0,0.0,0.0,0.0,0.0,0.0,0.0,0.0,0.0,0.0,0.0,0.0,0.0,0.0,0.0,0.0,0.0,0.0,0.0,0.0,0.0,0.0,0.0,0.0,0.0,0.0,0.0,0.0,0.0,0.0,0.0,0.0,0.0,0.0,0.0,0.0,0.0,0.0,0.0,0.0,0.0,0.0,0.0,0.0,0.0,0.0,0.0,0.0,0.0,0.0,0.0,0.0,0.0,0.0,0.0,0.0,0.0,0.0,0.0,0.0,0.0,0.0,0.0,0.0,0.0,0.0,0.0,0.0,0.0,0.0,0.0,0.0,0.0,0.0,0.0,0.0,0.0,0.0,0.0,0.0,0.0,0.0,0.0,0.0,0.0,0.0,0.0,0.0,0.0,0.0,0.0,0.0,0.0,0.0,0.0,0.0,0.0,0.0,0.0,0.0,0.0,0.0,0.0,0.0,0.0,0.0,0.0,0.0,0.0,0.0,0.0,0.0,0.0,0.0,0.0,0.0,0.0,0.0,0.0,0.0,0.0,0.0,0.0,0.0,0.0,0.0,0.0,0.0,0.0,0.0,0.0,0.0,0.0,0.0,0.0,0.0,0.0,0.0,0.0,0.0,0.0,0.0,0.0,0.0,0.0,0.0,0.0,0.0,0.0,0.0,0.0,0.0,0.0,0.0,0.0,0.0,0.0,0.0,0.0,0.0,0.0,0.0,0.0,0.0,0.0,0.0,0.0,0.0,0.0,0.0,0.0,0.0,0.0,0.0,0.0,0.0,0.0,0.0,0.0,0.0,0.0,0.0,0.0,0.0,0.0,0.0,0.0,0.0,0.0,0.0,0.0,0.0,0.0,0.0,0.0,0.0,0.0,0.0,0.0,0.0,0.0,0.0,0.0,0.0,0.0,0.0,0.0,0.0,0.0,0.0,0.0,0.0,0.0,0.0,0.0,0.0,0.0,0.0,0.0,0.0,0.0,0.0,0.0,0.0,0.0,0.0,0.0,0.0,0.0,0.0,0.0,0.0,0.0,0.0,0.0,0.0,0.0,0.0,0.0,0.0,0.0,0.0,0.0,0.0,0.0,0.0,0.0,0.0,0.0,0.0,0.0,0.0,0.0,0.0,0.0,0.0,0.0,0.0,0.0,0.0,0.0,0.0,0.0,0.0,0.0,0.0,0.0,0.0,0.0,0.0,0.0,0.0,0.0,0.0,0.0,0.0,0.0,0.0,0.0,0.0,0.0,0.0,0.0,0.0,0.0,0.0,0.0,0.0,0.0,0.0,0.0,0.0,0.0,0.0,0.0,0.0,0.0,0.0,0.0,0.0,0.0,0.0,0.0,0.0,0.0,0.0,0.0,0.0,0.0,0.0,0.0,0.0,0.0,0.0,0.0,0.0,0.0,0.0,0.0,0.0,0.0,0.0,0.0,0.0,0.0,0.0,0.0,0.0,0.0,0.0,0.0,0.0,0.0,0.0,0.0,0.0,0.0,0.0,0.0,0.0,0.0,0.0,0.0,0.0,0.0,0.0,0.0,0.0,0.0,0.0,0.0,0.0,0.0,0.0,0.0,0.0,0.0,0.0,0.0,0.0,0.0,0.0,0.0,0.0,0.0,0.0,0.0,0.0,0.0,0.0,0.0,0.0,0.0,0.0,0.0,0.0,0.0,0.0,0.0,0.0,0.0,0.0,0.0,0.0,0.0,0.0,0.0,0.0,0.0,0.0,0.0,0.0,0.0,0.0,0.0,0.0,0.0,0.0,0.0,0.0,0.0,0.0,0.0,0.0,0.0,0.0,0.0,0.0,0.0,0.0,0.0,0.0,0.0,0.0,0.0,0.0,0.0,0.0,0.0,0.0,0.0,0.0,0.0,0.0,0.0,0.0,0.0,0.0,0.0,0.0,0.0,0.0,0.0,0.0,0.0,0.0,0.0,0.0,0.0,0.0,0.0,0.0,0.0,0.0,0.0,0.0,0.0,0.0,0.0,0.0,0.0,0.0,0.0,0.0,0.0,0.0,0.0,0.0,0.0,0.0,0.0,0.0,0.0,0.0,0.0,0.0,0.0,0.0,0.0,0.0,0.0,0.0,0.0,0.0,0.0,0.0,0.0,0.0,0.0,0.0,0.0,0.0,0.0,0.0,0.0,0.0,0.0,0.0,0.0,0.0,0.0,0.0,0.0,0.0,0.0,0.0,0.0,0.0,0.0,0.0,0.0,0.0,0.0,0.0,0.0,0.0,0.0,0.0,0.0,0.0,0.0,0.0,0.0,0.0,0.0,0.0,0.0,0.0,0.0,0.0,0.0,0.0,0.0,0.0,0.0,0.0,0.0,0.0,0.0,0.0,0.0,0.0,0.0,0.0,0.0,0.0,0.0,0.0,0.0,0.0,0.0,0.0,0.0,0.0,0.0,0.0,0.0,0.0,0.0,0.0,0.0,0.0,0.0,0.0,0.0,0.0,0.0,0.0,0.0,0.0,0.0,0.0,0.0,0.0,0.0,0.0,0.0,0.0,0.0,0.0,0.0,0.0,0.0,0.0,0.0,0.0,0.0,0.0,0.0,0.0,0.0,0.0,0.0,0.0,0.0,0.0,0.0,0.0,0.0,0.0,0.0,0.0,0.0,0.0,0.0,0.0,0.0,0.0,0.0,0.0,0.0,0.0,0.0,0.0,0.0,0.0,0.0,0.0,0.0,0.0,0.0,0.0,0.0,0.0,0.0,0.0,0.0,0.0,0.0,0.0,0.0,0.0,0.0,0.0,0.0,0.0,0.0,0.0,0.0,0.0,0.0,0.0,0.0,0.0,0.0,0.0,0.0,0.0,0.0,0.0,0.0,0.0,0.0,0.0,0.0,0.0,0.0,0.0,0.0,0.0,0.0,0.0,0.0,0.0,0.0,0.0,0.0,0.0,0.0,0.0,0.0,0.0,0.0,0.0,0.0,0.0,0.0,0.0,0.0,0.0,0.0,0.0,0.0,0.0,0.0,0.0,0.0,0.0,0.0,0.0,0.0,0.0,0.0,0.0,0.0,0.0,0.0,0.0,0.0,0.0,0.0,0.0,0.0,0.0,0.0,0.0,0.0,0.0,0.0,0.0,0.0,0.0,0.0,0.0,0.0,0.0,0.0,0.0,0.0,0.0,0.0,0.0,0.0,0.0,0.0,0.0,0.0,0.0,0.0,0.0,0.0,0.0,0.0,0.0,0.0,0.0,0.0,0.0,0.0,0.0,0.0,0.0,0.0,0.0,0.0,0.0,0.0,0.0,0.0,0.0,0.0,0.0,0.0,0.0,0.0,0.0,0.0,0.0,0.0,0.0,0.0,0.0,0.0,0.0,0.0,0.0,0.0,0.0,0.0,0.0,0.0,0.0,0.0,0.0,0.0,0.0,0.0,0.0,0.0,0.0,0.0,0.0,0.0,0.0,0.0,0.0,0.0,0.0,0.0,0.0,0.0,0.0,0.0,0.0,0.0,0.0,0.0,0.0,0.0,0.0,0.0,0.0,0.0,0.0,0.0,0.0,0.0,0.0,0.0,0.0,0.0,0.0,0.0,0.0,0.0,0.0,0.0,0.0,0.0,0.0,0.0,0.0,0.0,0.0,0.0,0.0,0.0,0.0,0.0,0.0,0.0,0.0,0.0,0.0,0.0,0.0,0.0,0.0,0.0,0.0,0.0,0.0,0.0,0.0,0.0,0.0,0.0,0.0,0.0,0.0,0.0,0.0,0.0,0.0,0.0,0.0,0.0,0.0,0.0,0.0,0.0,0.0,0.0,0.0,0.0,0.0,0.0,0.0,0.0,0.0,0.0,0.0,0.0,0.0,0.0,0.0,0.0,0.0,0.0,0.0,0.0,0.0,0.0,0.0,0.0,0.0,0.0,0.0,0.0,0.0,0.0,0.0,0.0,0.0,0.0,0.0,0.0,0.0,0.0,0.0,0.0,0.0,0.0,0.0,0.0,0.0,0.0,0.0,0.0,0.0,0.0,0.0,0.0,0.0,0.0,0.0,0.0,0.0,0.0,0.0,0.0,0.0,0.0,0.0,0.0,0.0,0.0,0.0,0.0,0.0,0.0,0.0,0.0,0.0,0.0,0.0,0.0,0.0,0.0,0.0,0.0,0.0,0.0,0.0,0.0,0.0,0.0,0.0,0.0,0.0,0.0,0.0,0.0,0.0,0.0,0.0,0.0,0.0,0.0,0.0,0.0,0.0,0.0,0.0,0.0,0.0,0.0,0.0,0.0,0.0,0.0,0.0,0.0,0.0,0.0,0.0,0.0,0.0,0.0,0.0,0.0,0.0,0.0,0.0,0.0,0.0,0.0,0.0,0.0,0.0,0.0,0.0,0.0,0.0,0.0,0.0,0.0,0.0,0.0,0.0,0.0,0.0,0.0,0.0,0.0,0.0,0.0,0.0,0.0,0.0,0.0,0.0,0.0,0.0,0.0,0.0,0.0,0.0,0.0,0.0,0.0,0.0,0.0,0.0,0.0,0.0,0.0,0.0,0.0,0.0,0.0,0.0,0.0,0.0,0.0,0.0,0.0,0.0,0.0,0.0,0.0,0.0,0.0,0.0,0.0,0.0,0.0,0.0,0.0,0.0,0.0,0.0,0.0,0.0,0.0,0.0,0.0,0.0,0.0,0.0,0.0,0.0,0.0,0.0,0.0,0.0,0.0,0.0,0.0,0.0,0.0,0.0,0.0,0.0,0.0,0.0,0.0,0.0,0.0,0.0,0.0,0.0,0.0,0.0,0.0,0.0,0.0,0.0,0.0,0.0,0.0,0.0,0.0,0.0,0.0,0.0,0.0,0.0,0.0,0.0,0.0,0.0,0.0,0.0,0.0,0.0,0.0,0.0,0.0,0.0,0.0,0.0,0.0,0.0,0.0,0.0,0.0,0.0,0.0,0.0,0.0,0.0,0.0,0.0,0.0,0.0,0.0,0.0,0.0,0.0,0.0,0.0,0.0,0.0,0.0,0.0,0.0,0.0,0.0,0.0,0.0,0.0,0.0,0.0,0.0,0.0,0.0,0.0,0.0,0.0,0.0,0.0,0.0,0.0,0.0,0.0,0.0,0.0,0.0,0.0,0.0,0.0,0.0,0.0,0.0,0.0,0.0,0.0,0.0,0.0,0.0,0.0,0.0,0.0,0.0,0.0,0.0,0.0,0.0,0.0,0.0,0.0,0.0,0.0,0.0,0.0,0.0,0.0,0.0,0.0,0.0,0.0,0.0,0.0,0.0,0.0,0.0,0.0,0.0,0.0,0.0,0.0,0.0,0.0,0.0,0.0,0.0,0.0,0.0,0.0,0.0,0.0,0.0,0.0,0.0,0.0,0.0,0.0,0.0,0.0,0.0,0.0,0.0,0.0,0.0,0.0,0.0,0.0,0.0,0.0,0.0,0.0,0.0,0.0,0.0,0.0,0.0,0.0,0.0,0.0,0.0,0.0,0.0,0.0,0.0,0.0,0.0,0.0,0.0,0.0,0.0,0.0,0.0,0.0,0.0,0.0,0.0,0.0,0.0,0.0,0.0,0.0,0.0,0.0,0.0,0.0,0.0,0.0,0.0,0.0,0.0,0.0,0.0,0.0,0.0,0.0,0.0,0.0,0.0,0.0,0.0,0.0,0.0,0.0,0.0,0.0,0.0,0.0,0.0,0.0,0.0,0.0,0.0,0.0,0.0,0.0,0.0,0.0,0.0,0.0,0.0,0.0,0.0,0.0,0.0,0.0,0.0,0.0,0.0,0.0,0.0,0.0,0.0,0.0,0.0,0.0,0.0,0.0,0.0,0.0,0.0,0.0,0.0,0.0,0.0,0.0,0.0,0.0,0.0,0.0,0.0,0.0,0.0,0.0,0.0,0.0,0.0,0.0,0.0,0.0,0.0,0.0,0.0,0.0,0.0,0.0,0.0,3.4751,3.4126,0.0,0.0,0.0,0.0,0.0,0.0,0.0,0.0,0.0,0.0,0.0,0.0,0.0,0.0,0.0,0.0,0.0,0.0,0.0,0.0,0.0,0.0,0.0,2.4623,2.4076,2.3725,2.3945,0.0,0.0,0.0,0.0,0.0,0.0,0.0,0.0,0.0,2.4885,2.4346,2.5003,2.5921,2.7029,2.5839,2.53,2.53,0.0,0.0,0.0,0.0,0.0,0.0,0.0,0.0,0.0,0.0,0.0,0.0,0.0,0.0,0.0,0.0,0.0,0.0,0.0,0.0,0.0,0.0,0.0,0.0,0.0,0.0,0.0,0.0,0.0,0.0,0.0,0.0,0.0,0.0,0.0,0.0,0.0,0.0,0.0,0.0,0.0,0.0,0.0,0.0,0.0,0.0,0.0,0.0,0.0,0.0,0.0,0.0,0.0,0.0,0.0,0.0,0.0,0.0,0.0,0.0,0.0,0.0,0.0,0.0,0.0,0.0,0.0,0.0,0.0,0.0,3.617,3.5737,0.0,0.0,0.0,0.0,0.0,0.0,0.0,0.0,0.0,0.0,0.0,0.0,0.0,0.0,0.0,0.0,0.0,0.0,0.0,0.0,0.0,2.5952,2.5869,2.5494,2.5089,2.4655,2.5084,2.5421,2.539,2.5602,0.0,0.0,0.0,0.0,2.5107,2.6146,2.6306,2.5466,2.747,2.8049,2.7325,2.7671,2.7743,2.7565,2.6647,0.0,0.0,0.0,0.0,0.0,0.0,0.0,0.0,0.0,0.0,0.0,0.0,0.0,0.0,0.0,0.0,0.0,0.0,0.0,0.0,0.0,0.0,0.0,0.0,0.0,0.0,0.0,0.0,0.0,0.0,0.0,0.0,0.0,0.0,0.0,0.0,0.0,0.0,0.0,0.0,0.0,0.0,0.0,0.0,0.0,0.0,0.0,0.0,0.0,0.0,0.0,0.0,0.0,0.0,0.0,0.0,0.0,0.0,0.0,0.0,0.0,0.0,0.0,3.7132,3.7324,3.7348,3.7808,3.8,3.7952,3.706,3.6916,3.7252,3.629,0.0,0.0,0.0,0.0,0.0,0.0,0.0,0.0,0.0,0.0,0.0,0.0,0.0,0.0,0.0,0.0,0.0,0.0,0.0,2.6678,2.7569,2.6386,2.5619,2.5829,2.6098,2.6448,2.696,2.7496,2.8068,2.8652,2.8607,2.8476,2.8287,2.8557,2.8676,2.8603,3.0778,3.086,2.9024,3.0696,3.1099,3.0275,2.7854,2.6825,2.6898,0.0,0.0,0.0,0.0,0.0,0.0,0.0,0.0,0.0,0.0,0.0,0.0,0.0,0.0,0.0,0.0,0.0,0.0,0.0,0.0,0.0,0.0,0.0,0.0,0.0,0.0,0.0,0.0,0.0,0.0,0.0,0.0,0.0,0.0,0.0,0.0,0.0,0.0,0.0,0.0,0.0,3.3739,3.419,0.0,0.0,0.0,0.0,0.0,0.0,0.0,0.0,0.0,0.0,0.0,0.0,0.0,3.6627,3.7084,3.7084,3.7324,3.7808,3.788,3.7878,3.7904,3.7976,3.8,3.8,3.7856,0.0,3.7856,3.7228,0.0,0.0,0.0,0.0,0.0,0.0,0.0,0.0,0.0,0.0,0.0,0.0,0.0,0.0,0.0,0.0,0.0,0.0,0.0,0.0,0.0,2.7484,2.745,2.7761,2.8036,2.8372,2.873,2.9075,2.9442,2.9863,3.0179,3.0296,3.0082,3.1204,3.1871,3.2016,3.2491,3.2388,3.1787,3.2993,3.3038,3.208,3.0914,2.9747,2.8691,2.8382,0.0,0.0,0.0,0.0,0.0,0.0,0.0,0.0,0.0,0.0,0.0,0.0,0.0,0.0,0.0,0.0,0.0,0.0,0.0,0.0,0.0,0.0,0.0,0.0,0.0,0.0,0.0,0.0,0.0,0.0,0.0,0.0,0.0,0.0,0.0,0.0,0.0,0.0,0.0,3.3742,3.4294,3.5017,3.4993,3.5015,0.0,0.0,0.0,0.0,0.0,0.0,0.0,0.0,0.0,3.7276,3.73,3.7397,3.7663,3.795,3.8214,3.8455,3.8743,3.8888,3.8888,3.8888,3.8888,3.8888,3.8888,3.8888,3.8864,3.8334,3.8548,3.92,0.0,0.0,0.0,0.0,3.9173,3.9272,0.0,0.0,0.0,0.0,0.0,0.0,0.0,0.0,0.0,0.0,0.0,0.0,2.8369,2.9076,2.9608,2.9808,3.0205,3.0409,3.0409,3.0851,3.1177,3.1272,3.1958,3.2297,3.2192,3.3668,3.45,3.4569,3.4231,3.4165,3.4369,3.5039,3.4826,3.3891,3.3891,3.2571,3.0275,2.989,2.9388,2.8879,0.0,0.0,0.0,0.0,0.0,0.0,0.0,0.0,0.0,0.0,0.0,0.0,0.0,0.0,0.0,0.0,0.0,0.0,0.0,0.0,0.0,0.0,0.0,0.0,0.0,0.0,0.0,0.0,0.0,0.0,0.0,0.0,0.0,0.0,0.0,0.0,0.0,3.4752,3.516,3.613,3.6101,3.617,0.0,0.0,0.0,0.0,0.0,0.0,3.7589,3.7613,3.7853,3.8383,3.8407,3.8407,3.8407,3.8815,3.9005,3.9005,3.9417,3.9609,3.9609,3.9609,3.9609,3.9609,3.9609,3.9609,3.9585,3.9176,3.932,3.9777,3.9369,3.9465,3.9777,3.9513,3.9585,3.9826,0.0,0.0,0.0,0.0,0.0,0.0,0.0,0.0,0.0,0.0,0.0,3.0122,3.0844,3.1422,3.176,3.187,3.2331,3.2395,3.183,3.3114,3.3807,3.3636,3.4617,3.5287,3.5453,3.5744,3.5819,3.5614,3.6734,3.6855,3.6087,3.6951,3.6893,3.6053,3.6053,3.4103,3.0853,3.0829,3.0516,3.0025,3.0343,0.0,0.0,0.0,0.0,0.0,0.0,0.0,0.0,0.0,0.0,0.0,0.0,0.0,0.0,0.0,0.0,0.0,0.0,0.0,0.0,0.0,0.0,0.0,0.0,0.0,0.0,0.0,0.0,0.0,0.0,0.0,0.0,0.0,0.0,0.0,0.0,0.0,0.0,3.7904,3.7468,0.0,0.0,0.0,0.0,3.7928,3.7928,3.8142,3.8692,3.8716,3.8984,3.9513,3.9513,3.9513,3.9513,3.9561,3.9561,3.9561,3.9585,3.9609,3.9609,3.9609,3.9609,3.9609,3.9609,3.9609,3.9609,3.9585,3.9874,4.0355,4.0331,4.0331,4.0403,4.0884,4.0763,4.0427,0.0,0.0,0.0,0.0,0.0,2.6434,2.6099,2.7041,2.7895,2.8097,2.9594,3.0765,3.1073,3.2449,3.3309,3.3067,3.3843,3.4342,3.4344,3.5593,3.6265,3.6072,3.7577,3.8351,3.8158,3.8073,3.7957,3.7762,3.9103,3.954,3.9139,4.0243,4.0271,3.9343,3.9343,3.8104,3.5916,3.4773,3.364,3.2571,3.2966,3.2892,0.0,0.0,0.0,0.0,0.0,0.0,0.0,0.0,0.0,0.0,0.0,0.0,0.0,0.0,0.0,0.0,0.0,0.0,0.0,0.0,0.0,0.0,0.0,0.0,0.0,0.0,0.0,0.0,0.0,0.0,0.0,0.0,0.0,0.0,0.0,0.0,0.0,3.785,3.9222,0.0,3.835,3.9998,4.0563,3.912,4.0572,4.0964,3.9628,4.0306,4.0461,3.9888,4.0176,4.0286,4.0114,4.0787,4.1124,4.1153,4.1514,4.1658,4.1658,4.1658,4.1658,4.1658,4.1658,4.1658,4.1658,4.1658,4.0956,3.9898,3.9898,4.009,4.0427,4.0595,4.098,4.1466,0.0,0.0,0.0,0.0,2.6206,2.6276,2.6435,2.7225,2.8096,2.8922,3.0684,3.2139,3.2815,3.4235,3.5104,3.4952,3.5533,3.5948,3.6035,3.7272,3.7949,3.7735,3.9199,4.0083,4.0232,4.0036,4.005,4.0371,4.117,4.1501,4.1464,4.2221,4.2227,4.1608,4.1608,4.0857,3.9518,3.8711,3.7043,3.5007,3.5363,3.529,3.4926,0.0,0.0,0.0,0.0,0.0,0.0,0.0,0.0,0.0,0.0,0.0,0.0,0.0,0.0,0.0,0.0,0.0,0.0,0.0,0.0,0.0,0.0,0.0,0.0,0.0,0.0,0.0,0.0,0.0,0.0,0.0,0.0,0.0,0.0,3.8944,3.9651,3.9089,4.0287,4.1004,4.0545,4.149,4.1644,4.0552,4.1887,4.2171,4.0786,4.1566,4.1795,4.1268,4.1468,4.1578,4.1516,4.2103,4.2407,4.2407,4.268,4.2789,4.2789,4.2789,4.2789,4.2789,4.2789,4.2789,4.2789,4.2789,4.1971,4.0667,4.0667,4.0787,4.0956,4.1124,4.1562,4.2043,0.0,0.0,0.0,2.65,2.6192,2.6418,2.7363,2.7812,2.8764,3.0807,3.2584,3.437,3.6221,3.6795,3.721,3.7596,3.7461,3.7215,3.6825,3.8179,3.8908,3.8789,3.9501,4.0493,4.1731,4.1508,4.2003,4.3297,4.2867,4.2755,4.295,4.2783,4.2649,4.2649,4.2649,4.2124,4.1268,4.221,4.0574,3.7316,3.7558,3.7606,3.7554,0.0,0.0,0.0,0.0,0.0,0.0,0.0,0.0,0.0,0.0,0.0,0.0,0.0,0.0,0.0,0.0,0.0,0.0,0.0,0.0,0.0,0.0,0.0,0.0,0.0,0.0,0.0,0.0,0.0,0.0,0.0,0.0,0.0,3.9019,3.9728,4.0874,4.1775,4.0711,4.0991,4.3691,4.2025,4.1195,4.2235,4.1829,4.174,4.2199,4.2483,4.2964,4.3772,4.3472,4.3438,4.3762,4.3462,4.3308,4.3308,4.3035,4.2916,4.2886,4.2916,4.2916,4.2886,4.2886,4.2886,4.2886,4.2886,4.2886,4.2886,4.2813,4.2477,4.2091,4.2597,4.2477,4.2212,0.0,0.0,0.0,2.6222,2.6285,2.6737,2.7698,2.8598,2.9936,3.2082,3.3984,3.5487,3.6493,3.7781,3.8519,3.8339,3.8671,3.893,3.8955,4.0184,4.139,4.2468,4.2111,4.227,4.3077,4.2869,4.2932,4.3297,4.3598,4.3782,4.3849,4.4214,4.4328,4.4196,4.4196,4.3914,4.3464,4.3299,4.2686,4.1671,4.0813,4.0232,3.9751,0.0,0.0,0.0,0.0,0.0,0.0,0.0,0.0,0.0,0.0,0.0,0.0,0.0,0.0,0.0,0.0,0.0,0.0,0.0,0.0,0.0,0.0,0.0,0.0,0.0,0.0,0.0,0.0,0.0,0.0,0.0,4.387,4.4436,4.2541,4.2941,4.3494,4.3606,4.4061,4.4565,4.5072,4.637,4.6443,4.4716,4.6217,4.6513,4.5004,4.4954,4.5256,4.5936,4.539,4.5212,4.5515,4.5537,4.5514,4.5514,4.5452,4.5264,4.5068,4.5295,4.5264,4.5044,4.5044,4.5044,4.5044,4.5044,4.5044,4.49,4.3391,4.2693,4.2597,4.2741,4.3168,4.3763,0.0,0.0,0.0,2.6277,2.65,2.7181,2.8397,2.9346,3.0877,3.3475,3.4928,3.6245,3.771,3.8675,3.9386,3.9851,3.9708,4.0182,4.148,4.2484,4.3183,4.3573,4.3357,4.3546,4.4124,4.3962,4.404,4.4387,4.4537,4.4612,4.4754,4.5012,4.5046,4.4931,4.4931,4.4792,4.4537,4.4193,4.3983,4.3807,4.3076,4.2261,4.1418,4.0772,4.0512,4.04,4.0147,4.0034,4.0034,4.0034,0.0,0.0,0.0,0.0,0.0,0.0,0.0,0.0,0.0,0.0,0.0,0.0,0.0,0.0,0.0,0.0,0.0,0.0,0.0,0.0,0.0,0.0,0.0,0.0,4.5843,4.681,4.6304,4.5909,4.5399,4.4567,4.5736,4.6615,4.6598,4.8106,4.8283,4.6318,4.8321,4.8951,4.7383,4.7354,4.761,4.8068,4.7081,4.6576,4.668,4.6813,4.677,4.6612,4.6643,4.6453,4.6126,4.6294,4.6286,4.6126,4.5966,4.5998,4.6126,4.5966,4.5902,4.5758,0.0,0.0,0.0,0.0,4.4756,4.5686,2.8482,2.8225,2.784,2.6686,2.6985,2.7897,2.939,3.0199,3.174,3.4802,3.5647,3.6853,3.9264,3.9503,4.0114,4.1702,4.0743,4.1191,4.3834,4.4501,4.4385,4.3456,4.3921,4.4552,4.522,4.5027,4.5264,4.5982,4.5505,4.5356,4.5549,4.5299,4.5184,4.5132,4.5132,4.5023,4.4844,4.4844,4.4705,4.4467,4.4443,4.3745,4.2649,4.2058,4.2171,4.2536,4.1946,4.1727,4.1727,4.1727,0.0,0.0,0.0,0.0,0.0,0.0,0.0,0.0,0.0,0.0,0.0,0.0,0.0,0.0,0.0,0.0,0.0,0.0,0.0,0.0,0.0,0.0,0.0,0.0,4.7631,4.8773,4.9606,4.8688,4.7313,4.5662,4.6705,4.7837,4.8545,4.8709,4.8515,4.7867,4.9425,5.0135,4.942,4.9437,0.0,0.0,0.0,4.7651,4.7663,4.7663,4.7505,4.7157,4.722,4.703,4.6647,4.6679,4.6679,4.6584,4.6295,4.6359,4.6552,4.6263,4.6102,4.607,4.595,4.5926,4.5974,4.5974,4.668,4.7593,2.8782,2.8393,2.8083,2.7741,2.8484,2.9522,3.0747,3.1575,3.2979,3.5499,3.678,3.8036,3.9578,4.0621,4.1624,4.2647,4.2088,4.2312,4.3892,4.4095,4.4734,4.6017,4.5721,4.6063,4.7224,4.6969,4.6772,4.6627,4.6351,4.6068,4.5827,4.5753,4.5617,4.5413,4.5413,4.5276,4.5046,4.5046,4.5023,4.4954,4.4769,4.416,4.3324,4.3364,4.306,4.2615,4.2624,4.2552,4.2424,4.2424,4.234,4.2227,4.2227,4.2227,0.0,0.0,0.0,0.0,0.0,0.0,0.0,0.0,0.0,0.0,0.0,0.0,0.0,0.0,0.0,0.0,0.0,0.0,0.0,4.8652,4.9855,5.0676,4.9952,5.1241,5.1785,5.0429,4.9327,4.9692,5.2195,5.1977,5.1878,5.2321,5.2714,5.2399,5.124,5.031,5.0024,5.0463,4.9214,4.8773,4.9167,4.891,4.8749,4.8652,4.8685,0.0,4.8183,4.8451,4.8264,4.771,4.7963,4.793,4.7677,4.7612,4.7415,4.7112,4.6214,4.6142,4.6559,4.6559,4.7233,4.8147,2.9333,2.8948,2.8697,2.8712,2.9404,3.0403,3.1612,3.249,3.3757,3.5854,3.6872,3.7929,3.9362,4.0553,4.172,4.2884,4.3892,4.4327,4.4008,4.5169,4.6156,4.6772,4.6824,4.6969,4.7288,4.7491,4.7346,4.6801,4.7056,4.7027,4.6847,4.6847,4.6581,4.6154,4.6154,4.5815,4.5299,4.5299,4.523,4.5087,4.5,4.4714,4.4293,4.4155,4.3934,4.3703,4.3652,4.3589,4.3497,4.3497,4.3497,4.3577,4.4001,4.4155,4.4224,0.0,0.0,0.0,0.0,0.0,0.0,0.0,0.0,0.0,0.0,0.0,0.0,0.0,0.0,5.0865,4.9667,0.0,5.2275,5.1382,5.2004,5.2451,5.2215,5.3792,5.3913,5.1134,5.1926,5.2826,5.3107,5.336,5.3526,5.3591,5.3283,5.2908,5.2647,5.1387,5.0812,5.1038,4.9837,4.925,4.9364,4.9606,4.9666,4.9503,4.9965,4.9867,4.9265,4.9429,4.9157,4.8551,4.8379,4.8559,4.8969,4.904,4.8895,4.8545,4.798,4.7663,4.7521,4.781,4.8411,4.9119,3.027,3.0023,2.9803,2.9764,3.0458,3.1355,3.2381,3.3189,3.43,3.6083,3.6703,3.7533,3.9054,4.0076,4.1191,4.2528,4.4966,4.5843,4.4465,4.6388,4.7521,4.7352,4.7753,4.7724,4.7178,4.784,4.7782,4.7004,4.7666,4.7921,4.7805,4.7805,4.7433,4.6801,4.6801,4.6338,4.5572,4.5572,4.5458,4.5253,4.5207,4.523,4.5207,4.4723,4.4653,4.4844,4.4653,4.456,4.4537,4.4537,4.4621,4.4842,4.5562,4.5884,4.6064,4.6539,4.7111,0.0,0.0,0.0,0.0,0.0,0.0,0.0,0.0,4.926,4.9037,5.1488,5.2268,5.2576,5.2732,5.3355,5.3822,5.3706,5.3764,5.4084,5.4751,5.5852,5.5332,5.2014,5.4459,5.5737,5.4034,5.4556,5.4835,5.4328,5.3765,5.3441,5.3443,5.242,5.1732,5.1479,5.0346,4.9686,4.9526,5.0112,5.0305,5.0199,5.0938,5.0888,5.0174,5.0174,4.9917,4.9395,4.8805,4.9116,5.0066,5.0246,5.0106,4.9791,4.9855,4.9441,4.8889,4.9197,4.9704,5.0162,3.1945,3.1968,3.1782,3.119,3.2227,3.3209,3.3325,3.3906,3.4777,3.6141,3.6878,3.7759,3.9073,3.9779,4.0476,4.125,4.3631,4.5256,4.5663,4.6475,4.7642,4.9315,4.8885,4.8571,4.8484,4.9146,4.8909,4.7689,4.8304,4.8333,4.7805,4.7805,4.7433,4.6801,4.6801,4.6453,4.5872,4.5872,4.585,4.5776,4.5549,4.5595,4.573,4.523,4.5046,4.5092,4.5299,4.523,4.5023,4.5023,4.5417,4.593,4.6034,4.6457,4.7009,4.7218,4.7774,4.8312,4.8378,4.8914,4.9635,5.0245,4.9914,4.9927,0.0,5.2127,5.2255,5.3129,5.4206,5.4672,5.359,5.44,5.501,5.4487,5.4865,5.5416,5.6084,5.6781,5.7248,5.7368,5.6791,5.6729,5.76,5.7271,5.6927,5.6803,5.6714,5.5651,5.3348,5.3092,5.2505,5.137,5.066,5.0536,5.1063,5.0612,5.0637,5.1139,5.1247,5.1247,5.1139,5.1139,5.0947,5.0513,5.0413,5.0471,5.0613,5.0629,5.0477,5.0164,5.0656,5.0769,5.0651,5.0381,5.0607,5.1044,3.2272,3.2674,3.2896,3.2635,3.3106,3.362,3.3964,3.4254,3.4847,3.6123,3.653,3.7215,3.8492,3.9857,4.0786,4.1076,4.3449,4.5169,4.5859,4.6824,4.8072,4.9635,4.9407,4.9117,4.8716,4.8948,4.8856,4.8333,4.8571,4.8769,4.8909,4.8909,4.8537,4.7903,4.755,4.7027,4.6417,4.604,4.5917,4.5895,4.5776,4.5776,4.5895,4.564,4.5572,4.5549,4.5344,4.5207,0.0,4.5087,4.5543,4.619,4.6698,4.7573,4.8426,4.8668,4.9464,5.0275,5.0345,5.0573,5.0975,5.1639,5.1846,5.2252,5.3442,5.3704,5.3878,5.4487,5.5358,5.5823,5.53,5.562,5.6026,5.6113,5.6345,5.6752,5.7419,5.8348,5.9103,5.9364,5.9271,5.9239,5.9393,5.8473,5.7861,5.7741,5.5994,5.4425,5.3243,5.2483,5.1997,5.1783,5.1523,5.1674,5.2226,5.2302,5.2452,5.2703,5.3064,5.3064,5.2703,5.2703,5.2332,5.1715,5.222,5.2232,5.1911,5.265,5.2765,5.2416,5.2664,5.2878,5.2944,5.1698,5.1356,5.1551,3.2872,3.3347,3.3748,3.3748,3.3748,3.3894,3.4324,3.4382,3.4806,3.5909,3.6199,3.678,3.8057,3.977,4.0815,4.0815,4.2992,4.4727,4.5569,4.6824,4.8072,4.9349,4.9606,4.9378,4.8716,4.8861,4.889,4.8687,4.889,4.9233,4.9693,4.9519,4.9088,4.8426,4.7811,4.7172,4.6511,4.6098,4.5917,4.5917,4.5917,4.5917,4.5917,4.5917,4.5917,4.5872,4.5458,4.5321,4.535,4.5522,4.5895,4.6516,4.7654,4.8649,4.9506,5.0055,5.112,5.2198,5.2546,5.2633,5.2775,5.3265,5.3704,5.42,5.4894,5.5012,5.5213,5.5823,5.6316,5.6665,5.6665,5.681,5.7071,5.7507,5.7739,5.8087,5.8726,5.9626,6.0264,6.0438,6.0903,6.1077,6.0758,5.9747,5.8807,5.8084,5.59,5.4451,5.421,5.2935,5.2556,5.3343,5.2867,5.2829,5.3381,5.3582,5.3783,5.3934,5.4396,5.4371,5.3934,5.3934,5.3593,5.3059,5.3678,5.3653,5.3304,5.4234,5.442,5.417,5.417,5.4348,5.4426,5.3062,5.2509,5.2404,3.4291,3.4353,3.4353,3.4353,3.4353,3.4382,3.4382,3.4382,3.4661,3.5334,3.5956,3.678,3.8057,3.9363,4.0118,4.0118,4.1918,4.3573,4.4843,4.6104,4.741,4.8658,4.9349,4.9378,4.8716,4.932,4.9349,4.8687,4.9349,4.9664,4.9693,4.903,4.842,4.7805,4.712,4.6482,4.5946,4.5917,4.5917,4.5917,4.5917,4.5917,4.5917,4.5917,4.5917,4.5917,4.5895,4.5895,4.5982,4.6546,4.6778,4.7126,4.9011,4.9644,4.993,5.1178,5.243,5.3706,5.4952,5.53,5.53,5.5329,5.5329,5.5533,5.62,5.6345,5.652,5.7129,5.7274,5.7274,5.7274,5.7797,5.8261,5.8261,5.8813,5.9451,6.0061,6.0177,6.0438,6.1077,6.1193,6.1425,6.1977,6.1482,6.024,5.8075,5.7808,5.7457,5.6733,5.5315,5.514,5.6606,5.471,5.3934,5.4547,5.3984,5.3984,5.4572,5.4597,5.4597,5.4572,5.4572,5.4572,5.4511,5.4572,5.4572,5.4536,5.4597,5.4597,5.4561,5.4561,5.4597,5.4597,5.4536,5.4263,5.3942,3.4382,3.4382,3.4382,3.4382,3.4382,3.4382,3.4382,3.4382,3.4632,3.5305,3.6304,0.0,0.0,0.0,0.0,0.0,4.1512,4.2934,4.4233,4.5488,4.6766,4.8043,4.8711,4.9146,4.9349,4.9146,4.9146,4.9349,4.9146,4.9262,4.9693,4.9465,4.903,4.8391,4.7753,4.7114,4.6453,4.6069,4.5917,4.5917,4.5917,4.5917,4.5917,4.5917,4.6156,4.6482,0.0,4.6482,4.6621,4.7259,4.8014,4.8827,4.9494,5.0593,5.1871,5.3152,5.4084,5.4865,5.53,5.5736,5.6171,5.6578,5.7013,5.739,5.7623,5.7681,5.771,5.7913,5.7971,5.8116,5.8552,5.8813,5.8958,5.8958,5.948,5.9974,6.0177,6.0584,6.1106,6.1716,6.1803,6.2035,6.2703,6.218,6.127,6.0037,5.9057,5.798,5.6864,5.5418,5.4996,5.5847,5.5198,5.5089,5.5641,5.5465,5.5465,5.5666,5.5666,5.5666,5.5666,5.5666,5.5666,5.5666,5.5666,5.5666,5.5666,5.5666,5.5666,5.5666,5.5666,5.5666,5.5666,5.5666,5.5594,5.5385,3.4382,3.4382,3.4382,3.4382,3.4382,0.0,0.0,0.0,0.0,0.0,0.0,0.0,0.0,0.0,0.0,0.0,0.0,4.2179,4.3253,4.4501,4.5685,4.6731,4.7555,4.8223,4.8653,4.8478,4.8595,4.9025,4.8827,4.8919,4.932,4.932,4.9117,4.8658,4.784,4.7201,4.6772,4.6156,4.5917,4.5917,4.5917,4.5917,4.5917,4.5917,4.6127,0.0,4.6714,4.6946,4.7259,4.7898,4.8653,4.9465,5.0162,5.1701,5.3471,5.4517,5.5271,5.5823,5.6026,5.6578,5.7187,5.7565,5.8174,5.8668,5.8668,5.8668,5.8668,5.8668,5.8668,5.8784,5.9219,5.948,5.9626,5.9626,6.0148,6.0555,6.0555,6.1106,6.1658,6.2035,6.2296,6.2703,6.337,6.3051,6.2347,6.1353,5.9924,5.8833,5.8191,5.6287,5.5541,5.6469,5.6157,5.6143,5.6458,5.6721,5.6821,5.6821,5.6821,5.6821,5.6821,5.6821,5.6821,5.6821,5.6821,5.6821,5.6821,5.6821,5.6821,5.6821,5.6821,5.6821,5.6821,5.6821,5.6821,5.6646,3.4382,3.4382,3.4382,0.0,0.0,0.0,0.0,0.0,0.0,0.0,0.0,0.0,0.0,0.0,0.0,0.0,0.0,0.0,4.2005,4.3224,4.4233,4.4843,4.6017,4.6743,4.6801,4.7433,4.7776,4.7805,4.8391,4.8658,4.8658,4.8658,4.8629,4.8542,4.7352,4.6772,4.6714,4.6127,4.5917,4.5917,4.5917,4.5917,4.5917,4.5917,4.5917,4.6011,4.6598,4.723,4.7892,4.8455,4.8716,4.9151,5.1124,5.3039,5.4691,5.5271,5.5939,5.6578,5.7187,5.7826,5.8319,5.8377,5.8871,5.9364,5.9364,5.9364,5.9364,5.9364,5.9364,5.9393,5.9393,5.9887,6.0293,6.0264,6.0787,6.1222,6.1251,6.1745,6.2122,6.218,6.2761,6.3399,6.3978,6.4094,6.3526,6.2122,6.0678,6.0084,6.0585,5.7927,5.7033,5.8345,5.7506,5.7035,5.7035,5.7625,5.7901,5.7901,5.7901,5.7901,5.7901,5.7901,5.7901,5.7901,5.7901,5.7901,5.7901,5.7901,5.7901,5.7901,5.7901,5.7901,5.7901,5.7901,5.7901,5.775,0.0,0.0,0.0,0.0,0.0,0.0,0.0,0.0,0.0,0.0,0.0,0.0,0.0,0.0,0.0,0.0,0.0,0.0,4.1308,4.2557,4.3565,4.4182,4.4966,4.5837,4.6772,4.6975,4.7317,4.7805,4.795,4.8014,4.8014,4.8014,4.7782,4.7265,4.6946,4.654,4.6127,4.5953,4.5917,4.5917,4.5917,4.5917,4.5917,4.5917,4.6185,4.6598,4.6743,4.723,4.7834,4.7956,4.8972,5.0598,5.3007,5.4403,5.53,5.5968,5.6578,5.7216,5.7884,5.8174,5.8523,5.948,5.9829,5.9974,5.9974,5.9974,5.9974,5.9974,6.038,6.0729,6.0729,6.1193,6.1454,6.1019,6.1077,6.1367,6.1803,6.2006,6.2441,6.3397,6.3658,6.4007,6.4677,6.5138,6.5238,6.4886,6.3517,6.2271,6.1244,5.9904,5.8815,5.8056,5.7787,5.7675,5.7675,5.7826,5.7901,5.7901,5.7901,5.7901,5.7901,5.7901,5.7901,5.7901,5.7901,5.7901,5.7901,5.7901,5.7901,5.7901,5.7901,5.7901,5.7901,5.7901,5.7901,5.7851,0.0,0.0,0.0,0.0,0.0,0.0,0.0,0.0,0.0,0.0,0.0,0.0,0.0,0.0,0.0,0.0,0.0,0.0,0.0,4.1599,4.2469,4.3137,4.3747,4.4385,4.5118,4.5408,4.575,4.615,4.6702,4.6963,4.6992,4.7544,4.7579,4.723,4.6946,4.6598,4.6272,4.6011,4.5917,0.0,0.0,4.5917,4.5917,4.5917,4.6098,4.6417,4.6417,4.6998,4.7921,4.8793,4.9959,5.1497,5.3791,5.4896,5.5533,5.62,5.7042,5.7826,5.8203,5.8726,5.9306,6.0032,6.0409,6.0642,6.0642,6.0642,6.07,6.099,6.1338,6.1687,6.1977,6.2296,6.2325,6.1687,6.1832,6.2035,6.2093,6.2587,6.3194,6.392,6.4239,6.4706,6.5344,6.5689,6.6009,6.6331,6.5018,6.3784,6.2901,6.1167,5.9815,5.8945,5.8479,5.8378,5.8604,5.8604,5.8604,5.8604,5.8604,5.8604,5.8604,5.8604,5.8604,5.8604,5.8604,5.8604,5.8604,5.8604,5.8604,5.8604,5.8604,5.8755,5.8956,5.8956,5.9131,5.9332,0.0,0.0,0.0,0.0,0.0,0.0,0.0,0.0,0.0,3.7418,3.7418,3.7622,3.8144,3.8202,0.0,0.0,0.0,0.0,0.0,0.0,4.1366,4.1947,4.2557,4.2905,4.2992,4.3573,4.3892,4.3979,4.5104,4.5656,4.5663,4.6789,4.7341,4.7399,4.6824,4.6598,4.6656,4.6214,4.5953,4.5917,4.5982,4.5953,4.5917,0.0,4.5946,4.6011,4.6121,4.6905,4.8212,5.0071,5.1091,5.1936,5.3994,5.4981,5.5562,5.6403,5.7448,5.8348,5.8523,5.9364,6.0206,6.0322,6.0758,6.1193,6.1193,6.1251,6.1454,6.1977,6.2238,6.2499,6.2993,6.3167,6.3022,6.2441,6.2848,6.308,6.2674,6.3542,6.4297,6.4355,6.4967,6.5577,6.6096,6.6241,6.656,6.7235,6.6102,6.5204,6.4831,6.2396,6.0836,6.0425,5.9561,5.9261,5.9483,5.9483,5.9483,5.9483,5.9483,5.9483,5.9483,5.9483,5.9483,5.9483,5.9483,5.9483,5.9483,5.9483,5.9483,5.9483,5.9483,5.9834,6.0311,6.0311,6.0688,6.119,0.0,0.0,0.0,0.0,0.0,0.0,0.0,0.0,0.0,0.0,3.8057,3.8086,0.0,0.0,0.0,0.0,0.0,0.0,0.0,0.0,0.0,4.1279,4.1889,4.2498,4.2992,4.3108,4.3427,4.3979,4.4211,4.4349,4.4327,4.4581,4.493,4.5395,4.5256,4.5547,4.6069,4.6482,4.6359,4.5946,4.6424,4.6359,4.5917,4.5917,4.6214,0.0,4.7259,4.7927,4.8745,5.0216,5.1091,5.2023,5.4487,5.5329,5.5736,5.7477,5.8145,5.8523,5.9568,6.0032,6.0322,6.0874,6.1106,6.1193,6.1193,6.1571,6.1977,6.2064,6.2935,6.3542,6.3167,6.3516,6.3803,6.3687,6.3774,6.4181,6.5109,6.5428,6.5776,6.6331,6.697,6.7434,6.7522,6.8015,6.8596,6.9268,6.9059,6.789,6.5512,6.5377,6.4208,6.1603,6.1334,6.0671,5.9483,5.9483,5.9483,5.9483,5.9483,5.9483,5.9483,5.9483,5.9483,5.9483,5.9483,5.9483,5.9483,5.9483,5.9483,5.9483,5.9483,5.9834,6.0311,6.0311,6.0688,6.119,0.0,0.0,0.0,0.0,0.0,0.0,0.0,3.8202,3.8202,3.8202,3.8202,3.8202,3.8202,3.8202,3.8202,0.0,0.0,0.0,0.0,0.0,0.0,4.1076,4.1395,4.1889,4.2498,4.2528,4.2673,4.3021,0.0,4.3456,4.3485,4.3855,4.4153,4.4436,4.4436,4.4988,4.5917,4.5837,4.6214,4.6882,4.683,4.6853,4.6847,4.6505,4.654,0.0,4.7927,4.8914,4.9901,5.0859,5.1817,5.2923,5.4807,5.5416,5.5794,5.7739,5.8552,5.9016,5.9945,6.0438,6.0787,6.1106,6.1193,6.128,6.16,6.189,6.2296,6.2964,6.3571,6.4007,6.4067,6.4328,6.4532,6.4532,6.4761,6.5196,6.5805,6.6183,6.668,6.7318,6.7729,6.8165,6.8833,6.9147,6.9583,7.0221,7.0279,6.965,6.8262,6.7757,6.6408,6.4097,6.3692,6.316,6.2411,6.2085,6.1954,6.1954,6.1954,6.2085,6.2411,6.2411,6.2411,6.2411,6.2411,6.2411,6.2411,6.2411,6.2594,6.2921,6.2921,6.3261,6.3747,6.3747,6.4114,6.4586,0.0,0.0,0.0,0.0,0.0,0.0,0.0,3.8202,3.8202,3.8202,3.8202,3.8202,3.8202,3.8202,3.8202,0.0,0.0,0.0,0.0,0.0,0.0,0.0,4.1018,4.1395,4.2092,0.0,0.0,4.2092,4.2557,0.0,0.0,0.0,0.0,0.0,4.3776,4.4414,4.5459,4.5343,4.6098,0.0,0.0,4.7462,4.7776,0.0,0.0,0.0,0.0,4.9814,5.0826,5.1556,5.2659,5.3909,5.5039,5.5416,5.5823,5.7913,5.89,5.9451,6.0206,6.0787,6.1193,6.1193,6.1193,6.1367,6.1948,6.2209,6.2645,6.3774,6.4123,6.4355,6.488,6.4996,6.5083,6.5344,6.5809,6.6212,6.6473,6.697,6.7551,6.8252,6.8421,6.8944,7.011,7.0227,7.0453,7.1057,7.1121,7.097,7.0709,6.9571,6.8193,6.6633,6.6203,6.5865,6.5496,6.517,6.5007,6.5007,6.5007,6.517,6.5496,6.5669,6.5632,6.5496,6.5669,6.5501,6.5166,6.5166,6.5238,6.5391,6.5391,6.5967,6.6745,6.6745,6.7326,6.812,0.0,0.0,0.0,0.0,0.0,0.0,0.0,3.8202,3.8202,3.8202,3.8202,3.8202,3.8202,3.8202,3.8202,0.0,0.0,0.0,0.0,0.0,0.0,0.0,0.0,0.0,0.0,0.0,0.0,4.2092,4.215,0.0,0.0,0.0,0.0,0.0,0.0,4.3485,4.4269,4.593,0.0,0.0,0.0,0.0,0.0,0.0,0.0,0.0,0.0,5.0593,5.0884,5.2104,5.3355,5.4519,5.5184,5.5416,5.591,5.8464,5.9248,5.9568,6.0787,6.1164,6.1193,6.1193,6.1193,6.1367,6.1948,6.2558,6.3196,6.3861,6.4471,6.4909,6.4967,6.4996,6.5373,6.6567,6.6767,6.7202,6.8359,6.8591,6.8886,6.9559,7.0105,7.0744,7.1476,7.1534,7.1795,7.2398,7.2427,7.1934,7.0738,7.0576,6.9783,6.8237,6.8734,6.8299,6.6832,6.7386,6.7631,6.7631,6.7631,6.7359,6.6859,6.7468,6.7414,6.6859,6.7468,6.6834,6.5345,6.5345,6.4476,6.3093,6.3093,6.4409,6.6251,6.6251,6.7587,6.9435,0.0,0.0,0.0,0.0,0.0,0.0,3.8202,3.8202,3.8202,3.8202,3.8551,3.8812,3.8812,3.9131,3.9189,3.8841,0.0,0.0,0.0,0.0,0.0,0.0,0.0,0.0,0.0,0.0,4.2092,4.2092,4.2092,0.0,0.0,0.0,0.0,0.0,0.0,4.3478,4.5162,4.5518,0.0,0.0,0.0,0.0,0.0,0.0,0.0,0.0,0.0,0.0,5.1439,5.2717,5.3471,5.4055,5.5097,5.5416,5.591,5.8523,5.9306,5.9568,6.0845,6.1193,6.1193,6.1193,6.1193,6.1454,6.247,6.2906,6.337,6.4386,6.4793,6.4996,6.4996,6.4996,6.5435,6.6712,6.6916,6.7347,6.862,6.9147,6.9641,7.0279,7.057,7.0976,7.165,7.1708,7.1934,7.2573,7.2602,7.2573,7.2456,7.2456,7.2142,7.1539,7.1797,7.1621,7.0979,7.0866,7.0781,7.0781,7.0781,7.0866,7.0979,7.1262,7.1234,7.1007,7.1262,7.0977,7.0342,7.0342,7.0133,6.9829,6.9829,7.0415,7.1208,7.1208,7.1755,7.2547,0.0,0.0,0.0,0.0,0.0,3.8202,3.8202,3.8202,3.826,3.8463,3.8899,3.9276,3.945,4.0031,4.0205,3.9799,3.9973,0.0,0.0,0.0,0.0,0.0,0.0,0.0,0.0,0.0,4.2092,4.2092,4.2092,4.2092,0.0,0.0,4.2092,4.2121,0.0,0.0,0.0,0.0,0.0,0.0,0.0,0.0,0.0,0.0,0.0,0.0,0.0,0.0,0.0,0.0,0.0,5.4226,5.5126,5.5678,5.6403,5.8639,5.9306,5.9568,6.0845,6.1193,6.1193,6.1193,6.1338,6.1745,6.2848,6.3225,6.369,6.4764,6.4996,6.4996,6.4996,6.4996,6.5435,6.6712,6.6916,6.7347,6.862,6.9379,7.0018,7.0657,7.0889,7.1266,7.1876,7.1963,7.2224,7.2863,7.2921,7.3182,7.385,7.4053,7.4082,7.3879,7.4082,7.4169,7.4169,7.3908,7.3763,7.3763,7.3763,7.3908,7.4169,7.4372,7.4343,7.4169,7.4372,7.4174,7.3703,7.3703,7.3636,7.3529,7.3529,7.3858,7.4336,7.4336,7.4662,7.5098,0.0,0.0,0.0,0.0,0.0,0.0,3.8202,3.8202,3.8434,3.9102,3.9189,3.9421,4.0031,4.0699,4.1076,4.1076,4.0466,0.0,0.0,0.0,0.0,0.0,0.0,0.0,0.0,0.0,4.2092,4.2092,4.2092,4.2092,4.2092,4.2092,4.2092,4.215,0.0,0.0,0.0,0.0,0.0,0.0,0.0,0.0,4.9693,0.0,0.0,0.0,0.0,0.0,0.0,0.0,0.0,0.0,0.0,5.6258,5.7565,5.89,5.9306,5.9568,6.0845,6.1193,6.1193,6.1193,6.1658,6.2267,6.2935,6.3574,6.4181,6.4851,6.4996,6.4996,6.4996,6.4996,6.5435,6.6712,6.6916,6.7347,6.862,6.9379,7.0018,7.0657,7.1266,7.194,7.2544,7.2602,7.2892,7.356,7.3618,7.3879,7.4459,7.5127,7.5185,7.4518,7.5127,7.5475,7.5475,7.6151,7.6442,7.6442,7.6442,7.6122,7.5504,7.6181,7.6122,7.5534,7.6181,7.5507,7.3883,7.3883,7.2877,7.1337,7.1337,7.2403,7.3883,7.3883,7.4982,7.6471,0.0,0.0,0.0,0.0,0.0,0.0,0.0,3.858,3.8957,3.916,3.9973,4.0583,4.0757,4.1366,4.1773,4.1773,4.1599,0.0,0.0,0.0,0.0,0.0,0.0,0.0,0.0,0.0,4.2092,4.2092,4.2092,4.2092,4.2121,4.2528,4.2702,4.276,4.4059,4.5082,0.0,0.0,0.0,0.0,0.0,4.9693,4.9693,0.0,0.0,0.0,0.0,0.0,0.0,0.0,0.0,0.0,0.0,0.0,0.0,5.8116,5.8958,5.9684,6.1367,6.1803,6.1919,6.2383,6.2645,6.2935,6.3571,6.3861,6.4181,6.4851,6.4996,6.4996,6.4996,6.4996,6.5435,6.6712,6.6916,6.7347,6.862,6.9722,7.0512,7.0651,7.1266,7.1795,7.1963,7.1963,7.2427,7.3531,7.3618,7.4082,7.5127,7.5388,7.5417,7.5185,7.5824,7.621,7.621,7.6384,7.65,7.65,7.65,7.6384,7.621,7.6413,7.6384,7.621,7.6413,7.617,7.5687,7.5687,7.5354,7.4829,7.4829,7.5202,7.5687,7.5687,7.6019,7.65,0.0,0.0,0.0,0.0,0.0,0.0,0.0,3.8928,3.9363,3.9857,4.0612,4.1192,4.1453,4.1831,4.2092,4.2092,4.2092,0.0,0.0,0.0,0.0,0.0,0.0,0.0,4.2092,4.2092,4.2208,4.244,4.244,4.2557,4.2818,4.3195,4.3485,4.3747,4.5053,4.6214,0.0,0.0,0.0,0.0,4.9693,4.9693,4.9693,0.0,0.0,0.0,0.0,0.0,0.0,0.0,0.0,0.0,0.0,0.0,0.0,0.0,5.8929,5.9945,6.1367,6.1919,6.2238,6.2935,6.3283,6.3545,6.392,6.421,6.4502,6.4909,6.4996,6.4996,6.4996,6.5199,6.5693,6.6741,6.7119,6.7696,6.9002,7.0076,7.0854,7.1347,7.1789,7.2021,7.2021,7.2253,7.2834,7.3879,7.4169,7.4779,7.5824,7.5882,7.5882,7.5882,7.6297,7.65,7.65,7.65,7.65,7.65,7.65,7.65,7.65,7.65,7.65,7.65,7.65,7.65,0.0,7.65,7.65,7.65,7.65,7.65,7.65,7.65,7.65,7.65,0.0,0.0,0.0,0.0,0.0,0.0,0.0,3.9305,3.977,4.0931,4.1134,4.1395,4.2034,4.2092,4.2092,4.2092,0.0,0.0,0.0,0.0,0.0,0.0,0.0,0.0,4.2092,4.215,4.244,4.2992,4.3071,4.3369,4.3979,4.4037,4.4385,4.5046,4.6279,4.7288,0.0,0.0,0.0,0.0,4.9693,4.9693,0.0,0.0,0.0,0.0,0.0,0.0,0.0,0.0,0.0,0.0,0.0,0.0,0.0,0.0,0.0,0.0,0.0,6.1745,6.2383,6.3051,6.3661,6.4065,6.4065,6.4561,0.0,6.4996,6.4996,6.4996,6.5054,6.5519,6.6125,6.6825,6.7497,6.8334,6.9617,7.0366,7.1237,7.2456,7.2602,7.2602,7.2602,7.3211,7.385,7.4459,7.5127,7.5795,7.6471,7.65,7.65,7.65,7.65,7.65,7.65,7.65,7.65,7.65,7.65,7.65,7.65,7.65,7.65,7.65,7.65,7.65,7.65,7.65,7.65,7.65,7.65,7.65,7.65,7.65,7.65,7.65,0.0,0.0,0.0,0.0,0.0,0.0,0.0,0.0,0.0,0.0,4.1541,4.1918,4.2063,4.2092,4.2092,0.0,0.0,0.0,0.0,0.0,0.0,0.0,0.0,0.0,4.2092,4.2557,4.2868,4.2992,4.3515,4.3855,4.4008,4.4472,4.5046,4.5743,4.6998,4.8188,0.0,0.0,0.0,0.0,4.9693,4.9693,0.0,0.0,0.0,0.0,5.153,5.2339,0.0,0.0,0.0,0.0,0.0,0.0,0.0,0.0,5.919,6.0438,6.1571,0.0,6.3687,6.4386,6.4648,6.4764,0.0,6.488,6.4996,6.4996,6.4996,6.5141,6.5573,6.5805,6.627,6.7463,6.7816,6.8334,6.9617,7.0778,7.1731,7.2515,7.2602,7.2602,7.2602,7.3211,7.385,7.4459,7.5127,7.5795,7.6471,7.65,7.65,7.65,7.65,7.65,7.65,7.65,7.65,7.65,7.65,7.65,7.65,7.65,7.65,7.65,7.65,7.65,7.65,7.65,7.65,7.65,7.65,7.65,7.65,7.65,7.65,7.65,0.0,0.0,0.0,0.0,0.0,0.0,0.0,0.0,0.0,0.0,0.0,4.2092,4.2092,4.2092,0.0,0.0,0.0,0.0,0.0,0.0,0.0,0.0,0.0,4.2498,4.2498,4.3137,4.3573,4.3863,4.4262,4.456,4.4879,4.4988,4.539,4.6024,4.6769,4.8072,0.0,0.0,0.0,4.9644,4.9124,0.0,0.0,0.0,0.0,0.0,5.141,5.2401,0.0,5.3474,5.3677,5.4139,0.0,0.0,0.0,0.0,5.9422,6.0874,6.1832,6.2848,6.3835,6.4764,6.4996,6.4996,6.4996,6.4996,6.4996,6.4996,6.5228,6.5519,6.5834,6.6386,6.7057,6.7754,6.8397,6.9239,7.0488,7.1498,7.2224,7.2573,7.2602,7.2747,7.3037,7.3647,7.4285,7.4924,7.5563,7.6122,7.6471,7.65,7.65,7.65,7.65,7.65,7.65,7.65,7.65,7.65,7.65,7.65,7.65,7.65,7.65,7.65,7.65,7.65,7.65,7.65,7.65,7.65,7.65,7.65,7.65,7.65,7.65,7.65,0.0,0.0,0.0,0.0,0.0,0.0,0.0,0.0,0.0,0.0,0.0,0.0,0.0,0.0,0.0,0.0,0.0,0.0,0.0,0.0,0.0,0.0,4.2731,4.2958,4.2896,4.3647,4.4282,4.4802,4.4976,4.538,4.5906,4.5539,4.5576,4.5996,4.6399,4.7536,0.0,4.751,4.774,4.9124,4.8299,0.0,0.0,0.0,0.0,0.0,0.0,0.0,0.0,5.3474,5.3965,5.4633,5.5213,0.0,0.0,0.0,0.0,0.0,6.2064,6.2587,6.3283,6.4648,6.4996,6.4996,6.4996,6.4996,6.4996,6.4996,6.5489,6.5922,6.6038,6.7057,6.7957,6.8165,6.9268,7.0488,7.1563,7.2224,7.2602,7.2602,7.2602,7.2856,7.356,7.4169,7.4779,7.5446,7.6151,7.65,7.65,7.65,7.65,7.65,7.65,7.65,7.65,7.65,7.65,7.65,7.65,7.65,7.65,7.65,7.65,7.65,7.65,7.65,7.65,7.65,7.65,7.65,7.65,7.65,7.65,7.65,7.65,7.65,0.0,0.0,0.0,0.0,0.0,0.0,0.0,0.0,0.0,0.0,0.0,0.0,0.0,0.0,0.0,0.0,0.0,0.0,0.0,0.0,0.0,4.2847,4.2934,4.284,4.2495,4.3578,4.425,4.4381,4.5425,4.5966,4.6079,4.5994,4.5795,4.5573,4.7077,4.7408,4.6918,4.8499,4.8274,4.6892,4.7691,0.0,0.0,0.0,0.0,0.0,0.0,0.0,0.0,5.3474,5.3965,5.4633,5.5213,0.0,0.0,0.0,0.0,0.0,6.2616,6.2616,6.2674,6.4532,6.4996,6.4996,6.4996,6.4996,6.4996,6.4996,6.5489,6.6067,6.6622,6.7376,6.8247,6.9355,7.0575,7.1476,7.1679,7.2224,7.2602,7.2602,7.2602,7.2856,7.356,7.4169,7.4779,7.5446,7.6151,7.65,7.65,7.65,7.65,7.65,7.65,7.65,7.65,7.65,7.65,7.65,7.65,7.65,7.65,7.65,7.65,7.65,7.65,7.65,7.65,7.65,7.65,7.65,7.65,7.65,7.65,7.65,7.65,7.65,0.0,0.0,0.0,0.0,0.0,0.0,0.0,0.0,0.0,0.0,0.0,0.0,0.0,0.0,0.0,0.0,0.0,0.0,0.0,0.0,4.1837,4.1925,4.2189,4.2795,4.3732,4.4132,4.4484,4.4799,4.5035,4.5181,4.5181,4.4907,4.488,4.505,4.5236,4.5688,4.6293,4.6136,4.653,4.7151,0.0,0.0,0.0,0.0,0.0,0.0,0.0,0.0,0.0,0.0,5.4693,5.5591,5.5852,0.0,0.0,0.0,0.0,0.0,6.2848,6.3109,6.3428,6.4677,6.4735,6.4561,6.4909,6.5257,6.5489,6.5489,6.6302,6.7057,6.7376,6.8247,6.9355,7.0633,7.1586,7.2195,7.2195,7.2427,7.2602,7.2602,7.295,7.3414,7.4024,7.4663,7.533,7.5969,7.6326,7.65,7.65,7.65,7.65,7.65,7.65,7.65,7.65,7.65,7.65,7.65,7.65,7.65,7.65,7.65,7.65,7.65,7.65,7.65,7.65,7.65,7.65,7.65,7.65,7.65,7.65,7.65,7.65,7.65,0.0,0.0,0.0,0.0,0.0,0.0,0.0,0.0,0.0,0.0,0.0,0.0,0.0,0.0,0.0,0.0,0.0,0.0,0.0,4.1155,4.1299,4.1191,4.1722,4.2726,4.4202,4.4116,4.432,4.486,4.459,4.4479,4.4453,4.3834,4.382,4.4288,4.3657,4.418,4.5449,4.4262,4.494,4.6738,0.0,0.0,0.0,0.0,0.0,0.0,0.0,0.0,0.0,0.0,0.0,0.0,0.0,0.0,0.0,5.948,6.0729,6.2209,6.2732,6.3341,6.3949,6.459,6.4502,6.4384,6.5054,6.5577,6.5951,6.6096,6.7202,6.8102,6.8102,6.9297,7.0633,7.1737,7.2311,7.2602,7.2602,7.2602,7.266,7.2834,7.3298,7.3908,7.4663,7.5214,7.5766,7.6442,7.65,7.65,7.65,7.65,7.65,7.65,7.65,7.65,7.65,7.65,7.65,7.65,7.65,7.65,7.65,7.65,7.65,7.65,7.65,7.65,7.65,7.65,7.65,7.65,7.65,7.65,7.65,7.65,7.65,7.65,0.0,0.0,0.0,0.0,0.0,0.0,0.0,0.0,0.0,0.0,0.0,0.0,0.0,0.0,0.0,0.0,0.0,0.0,0.0,4.1123,4.1195,4.1714,4.2378,4.2578,4.2308,4.276,4.331,4.3914,4.4412,4.4674,4.4647,4.3553,4.3075,4.3156,4.4152,4.4097,4.3379,4.5262,4.5021,4.3519,4.5422,0.0,0.0,0.0,0.0,0.0,0.0,0.0,0.0,0.0,0.0,0.0,0.0,0.0,5.9422,5.9974,6.1077,6.2093,6.2151,6.2645,6.3312,6.392,6.4502,6.5083,6.5689,6.5864,6.6067,6.668,6.7841,6.8736,6.8736,7.0279,7.1795,7.2427,7.2573,7.2602,7.2602,7.2602,7.2834,7.3472,7.3589,7.4082,7.533,7.5475,7.5766,7.6442,7.65,7.65,7.65,7.65,7.65,7.65,7.65,7.65,7.65,7.65,7.65,7.65,7.65,7.65,7.65,7.65,7.65,7.65,7.65,7.65,7.65,7.65,7.65,7.65,7.65,7.65,7.65,7.65,7.65,7.65,0.0,0.0,0.0,0.0,0.0,0.0,0.0,0.0,0.0,0.0,0.0,0.0,0.0,0.0,0.0,0.0,0.0,0.0,0.0,4.0911,4.1161,4.1421,4.1699,4.1968,4.2149,4.271,4.3239,4.3727,4.3677,4.363,4.363,4.3184,4.3014,4.3042,4.3462,4.3406,4.3045,4.3905,4.4153,4.4124,4.4966,4.5014,0.0,0.0,0.0,0.0,0.0,0.0,0.0,0.0,5.6432,5.7071,5.771,5.8552,5.951,6.0526,6.1425,6.2267,6.3049,6.3777,6.4532,6.5548,6.6302,6.6738,6.6564,6.7463,6.8276,6.8131,6.9437,7.0831,7.1644,7.205,7.2485,7.3124,7.324,7.3095,7.266,7.2979,7.3327,7.3589,7.4314,7.4982,7.5475,7.5882,7.6239,7.6471,7.65,7.65,7.65,7.65,7.65,7.65,7.65,7.65,7.65,7.65,7.65,7.65,7.65,7.65,7.65,7.65,7.65,7.65,7.65,7.65,7.65,7.65,7.65,7.6529,7.6936,7.7304,7.7682,7.7682,7.7682,7.7682,0.0,0.0,0.0,0.0,0.0,0.0,0.0,0.0,0.0,0.0,0.0,0.0,0.0,0.0,0.0,0.0,0.0,0.0,4.0455,4.0749,4.1028,4.1209,4.1628,4.1957,4.2185,4.2738,4.3174,4.3476,4.3174,4.3014,4.3014,4.3014,4.3014,4.3014,4.3014,4.3014,4.3042,4.3379,4.3768,4.4261,4.5342,4.566,0.0,0.0,0.0,0.0,0.0,0.0,0.0,0.0,5.6955,5.7448,5.8348,5.8929,5.9597,6.1048,6.1919,6.2645,6.3716,6.4502,6.5257,6.6331,6.7376,6.8102,6.7841,6.8654,6.9466,6.9403,7.0773,7.2311,7.3414,7.324,7.3095,7.3531,7.3618,7.3443,7.3008,7.3465,7.3966,7.4169,7.4982,7.5592,7.5795,7.6239,7.65,7.65,7.65,7.65,7.65,7.65,7.65,7.65,7.65,7.65,7.65,7.6703,7.6703,7.65,7.6703,7.6674,7.65,7.65,7.65,7.65,7.6703,7.679,7.6819,7.7023,7.711,7.7168,7.7537,7.8001,7.8407,7.8407,7.8407,7.8407,0.0,0.0,0.0,0.0,0.0,0.0,0.0,0.0,0.0,0.0,0.0,0.0,0.0,0.0,0.0,0.0,0.0,0.0,4.1065,4.072,4.075,4.1302,4.2384,4.2738,4.2238,4.2738,4.3014,4.3014,4.3014,4.3014,4.3014,4.3014,4.3014,4.3014,4.3014,4.3014,4.3073,4.4234,4.4042,4.3295,4.666,4.7068,4.6131,0.0,0.0,0.0,0.0,0.0,0.0,0.0,5.7303,5.7536,5.8871,5.9306,5.9684,6.1542,6.2558,6.3225,6.3832,6.4471,6.5141,6.5776,6.7372,6.8968,6.9675,6.9321,6.92,7.0477,7.176,7.2805,7.3501,7.3618,7.3618,7.3618,7.3618,7.3618,7.3618,7.414,7.4779,7.5417,7.5504,7.5766,7.6442,7.65,7.65,7.65,7.65,7.65,7.65,7.65,7.65,7.65,7.65,7.65,7.65,7.7101,7.7101,7.65,7.7101,7.7072,7.65,7.65,7.65,7.6529,7.713,7.742,7.7449,7.8117,7.8407,7.8407,7.8407,7.8407,7.8436,7.8436,7.8436,7.8436,0.0,0.0,0.0,0.0,0.0,0.0,0.0,0.0,0.0,0.0,0.0,0.0,0.0,0.0,0.0,0.0,0.0,0.0,4.1118,4.1511,4.2082,4.2935,4.2998,4.2939,4.2763,4.2914,4.3014,4.3014,4.3014,4.3014,4.3014,4.3014,4.3014,4.3014,4.3014,4.3014,4.3073,4.4234,4.4042,4.3321,4.7177,4.7969,4.7323,0.0,0.0,0.0,0.0,0.0,0.0,0.0,0.0,0.0,5.8871,5.9306,5.9771,6.2122,6.2296,6.218,6.4183,6.4851,6.546,6.743,6.9026,7.0337,7.0982,7.1673,7.2392,7.3211,7.2631,7.2427,7.3966,7.3501,7.3211,7.4111,7.3908,7.3763,7.4169,7.4808,7.5301,7.5475,7.5911,7.6297,7.6471,7.65,7.65,7.65,7.65,7.65,7.65,7.65,7.65,7.65,7.65,7.65,7.65,7.7101,7.7101,7.65,7.7101,7.7072,7.65,7.6927,7.713,7.7159,7.7827,7.8117,7.8117,7.832,7.864,7.9017,7.9017,7.9307,7.9743,7.9743,7.9743,7.9743,0.0,0.0,0.0,0.0,0.0,0.0,0.0,0.0,4.2557,4.2818,4.1974,4.1111,0.0,0.0,0.0,3.8427,3.952,0.0,4.1183,4.1831,4.2562,4.3392,4.3146,4.3014,4.3014,4.3014,4.3014,4.3014,4.3014,4.3014,4.3014,4.3014,4.3014,4.3014,4.3014,4.324,4.374,4.4859,4.5098,4.5007,4.862,4.9701,4.9524,0.0,0.0,0.0,0.0,0.0,0.0,0.0,0.0,0.0,5.8871,5.9306,5.98,6.2354,6.2558,6.2499,6.5054,6.5548,6.5983,6.8567,6.9583,7.0337,7.1731,7.2456,7.295,7.3298,7.2892,7.2805,7.3937,7.3734,7.3618,7.4401,7.4634,7.4779,7.4895,7.5679,7.6172,7.5911,7.6268,7.65,7.65,7.65,7.65,7.65,7.65,7.65,7.65,7.65,7.65,7.65,7.65,7.6616,7.6878,7.7217,7.7217,7.6878,7.7217,7.7072,7.6529,7.7101,7.7391,7.7478,7.864,7.9307,7.9511,7.9511,7.9714,8.0033,7.9801,7.9946,8.0294,8.0294,8.0294,8.0294,0.0,0.0,4.2266,0.0,0.0,0.0,0.0,4.3016,4.3155,4.3762,4.1764,4.021,0.0,0.0,0.0,3.8114,3.9927,4.1183,4.1356,4.1959,4.2487,4.2989,4.3014,4.3014,4.3014,4.3014,4.3014,4.3014,4.3014,4.3014,4.3014,4.3014,4.3039,4.309,4.3039,4.3706,4.4935,4.6034,4.6889,4.7727,5.0686,5.1893,5.2229,5.4603,0.0,0.0,0.0,0.0,0.0,0.0,0.0,0.0,5.8871,5.9306,5.98,6.2354,6.3051,6.3545,6.6099,6.636,6.6531,6.9147,6.9466,6.9751,7.2131,7.2224,7.1824,7.194,7.2834,7.3618,7.3676,7.414,7.4518,7.4576,7.5687,7.6297,7.5679,7.6695,7.7246,7.6587,7.6558,7.6558,7.65,7.65,7.65,7.65,7.65,7.65,7.65,7.65,7.6529,7.6587,7.6529,7.6819,7.7478,7.7449,7.7391,7.7391,7.7391,7.7072,7.6529,7.7188,7.7566,7.7769,7.954,8.0614,8.1107,8.1107,8.1107,8.1049,8.0497,8.0294,8.0294,8.0294,8.0294,8.0294,0.0,0.0,4.3573,4.3573,0.0,0.0,4.3747,4.3068,4.259,4.2731,4.1585,4.0279,3.9084,3.954,0.0,3.8768,4.0256,4.1468,4.1959,4.2512,4.2889,4.2989,4.3014,4.3014,4.3014,4.3014,4.3014,4.3014,4.3014,4.3014,4.3014,4.3014,4.3212,4.3614,4.319,4.414,4.6114,4.7351,4.8246,4.9091,5.2482,5.3667,5.3555,5.5495,5.6578,0.0,0.0,0.0,0.0,0.0,0.0,0.0,5.8871,5.9306,5.98,6.2354,6.2732,6.2877,6.5399,6.6009,6.6531,6.9147,7.0802,7.2044,7.3153,7.2892,7.2689,7.3705,7.3734,7.3763,7.4227,7.443,7.4692,7.5214,7.594,7.6442,7.6326,7.7362,7.7769,7.6645,7.6936,7.7014,7.6558,7.65,7.65,7.65,7.65,7.65,7.65,7.65,7.6732,7.7188,7.6761,7.7052,7.8175,7.7653,7.7391,7.7391,7.7391,7.7072,7.6529,7.7653,7.8727,7.9685,8.012,8.0381,8.0497,8.0497,8.0497,8.0468,8.0352,8.0294,8.0294,8.0294,8.0294,8.0294,0.0,0.0,0.0,0.0,0.0,0.0,0.0,0.0,4.2522,4.2596,4.1457,4.0465,3.9886,3.9943,0.0,0.0,4.0927,4.1856,4.2187,4.2688,4.3014,4.3014,4.3014,4.3014,4.3014,4.3014,4.3014,4.3014,4.3014,4.3014,4.3014,4.3014,4.3165,4.3388,4.3112,4.4605,4.7343,4.8029,4.9609,5.1923,5.4059,5.4973,5.5191,5.6355,5.7042,5.7332,5.7681,0.0,0.0,0.0,0.0,0.0,0.0,0.0,6.0177,6.2441,6.2616,6.2732,6.5606,6.6125,6.6531,6.9147,7.144,7.3095,7.3124,7.3327,7.3792,7.4779,7.4488,7.4343,7.5272,7.5679,7.6114,7.6782,7.742,7.7711,7.742,7.8233,7.8349,7.7072,7.7478,7.7624,7.6985,7.7226,7.7284,7.6965,7.7255,7.7168,7.6529,7.7081,7.7391,7.7391,7.7072,7.7537,7.8814,7.7885,7.7711,7.832,7.803,7.7856,7.7827,7.8233,7.9104,8.0323,8.0614,8.073,8.073,8.073,8.073,8.0701,8.041,8.0294,8.0294,8.0294,8.0294,8.0294,0.0,0.0,0.0,0.0,0.0,0.0,0.0,0.0,0.0,4.2525,4.1274,4.0555,4.0893,4.0364,4.0149,0.0,0.0,0.0,4.2311,4.2738,4.3014,4.3014,4.3014,4.3014,4.3014,4.3014,4.3014,4.3014,4.3014,4.3014,4.3014,4.3014,4.3151,4.3447,4.3576,4.5583,4.8899,4.9173,5.1423,5.4894,5.5503,5.6142,5.6781,5.7274,5.7536,5.771,5.829,5.8116,5.7739,5.829,0.0,0.0,0.0,0.0,6.0584,6.2529,6.279,6.308,6.6103,6.6825,6.7227,6.9408,7.1876,7.3618,7.3066,7.385,7.4866,7.5534,7.5309,7.528,7.6442,7.7159,7.7769,7.832,7.8901,7.9075,7.8494,7.9017,7.8988,7.7711,7.8146,7.8262,7.7478,7.8001,7.8088,7.7304,7.7972,7.7885,7.6732,7.774,7.8146,7.7595,7.7449,7.7972,7.9133,7.7885,7.7885,7.9133,7.864,7.8785,7.9452,7.8959,7.9307,8.0323,8.0817,8.1049,8.1049,8.1049,8.1049,8.0991,8.0497,8.0294,8.0294,8.0294,8.0294,8.0294,0.0,0.0,0.0,0.0,0.0,0.0,0.0,0.0,0.0,0.0,4.0875,4.0332,3.9954,4.063,4.1127,4.1202,4.1806,4.2386,4.2864,0.0,0.0,4.3014,4.3014,4.3014,4.3014,4.3014,4.3014,4.3014,4.3014,4.3014,4.3014,4.3014,4.3771,4.5205,4.5813,4.8021,5.1315,5.2546,5.4257,5.62,5.681,5.7448,5.8058,5.8145,5.8523,5.9045,5.9132,5.9103,5.9045,5.9132,5.9161,0.0,0.0,0.0,6.0584,6.2529,6.3428,6.421,6.6331,6.845,7.0129,7.0512,7.2515,7.4372,7.4285,7.4837,7.5563,7.6239,7.6297,7.6471,7.7159,7.7827,7.8291,7.8407,7.8901,7.9075,7.8494,7.9423,7.9685,7.8436,7.8814,7.8698,7.7507,7.8001,7.7914,7.6703,7.7711,7.8059,7.7333,7.8001,7.8349,7.8262,7.7711,7.7769,7.8524,7.7284,7.7284,7.8524,7.8436,7.9017,8.0149,8.0091,8.0149,8.0294,8.0381,8.041,8.041,8.041,8.041,8.041,8.0323,8.0294,8.0294,8.0294,8.0294,8.0294,0.0,0.0,0.0,0.0,0.0,0.0,0.0,0.0,0.0,0.0,0.0,4.0524,4.0575,4.1329,4.1932,4.2233,4.2512,4.2738,4.2989,4.3014,4.3014,4.3014,4.3014,4.3014,4.3014,4.3014,4.3014,4.3014,4.3014,4.3165,4.3438,4.3438,4.4186,4.5586,4.6587,4.8998,5.2375,5.3387,5.5224,5.7507,5.7768,5.8464,5.9335,5.8987,5.9248,5.98,5.98,5.9597,5.9364,5.9684,5.98,5.9916,6.0555,0.0,0.0,0.0,6.4357,6.4909,6.6447,6.877,7.0802,7.115,7.2631,7.4198,7.4924,7.5301,7.5679,7.6355,7.7081,7.7624,7.7914,7.8785,7.9452,7.9452,7.9685,7.9772,7.9511,7.9946,7.9946,7.9017,7.9481,7.9481,7.8553,7.9075,7.9075,7.8117,7.893,7.9017,7.8001,7.893,7.9133,7.8436,7.8436,7.8611,7.8901,7.8349,7.8524,7.9452,7.9075,7.9394,8.0294,8.0294,8.0701,8.1339,8.0962,8.0788,8.0759,8.0439,8.0294,8.0294,8.0294,8.0294,8.0294,8.0294,8.0294,8.0294,0.0,0.0,0.0,0.0,0.0,0.0,0.0,0.0,0.0,0.0,0.0,4.1078,4.1505,0.0,0.0,0.0,4.3014,4.3014,4.3014,4.3014,4.3014,4.3014,4.3014,4.3014,4.3014,4.3014,4.3014,4.3014,4.314,4.3388,4.3815,4.4409,4.5332,4.653,4.7778,5.0152,5.3295,5.4458,5.625,5.8348,5.8668,5.9451,6.0409,6.0119,6.0409,6.0961,6.1106,6.0874,6.0584,6.1222,6.1309,6.1251,6.1774,6.2558,0.0,0.0,0.0,6.5954,6.7057,6.8886,7.0686,7.1505,7.2515,7.3734,7.5185,7.5504,7.5679,7.6355,7.7362,7.8204,7.8378,7.9452,8.0294,8.0294,8.0294,8.0294,8.0294,8.0294,8.012,7.9598,8.0004,8.0033,7.9365,7.9917,7.9946,7.9133,7.983,7.9801,7.8698,7.9685,7.9801,7.8669,7.9075,7.922,7.9075,7.922,7.954,8.0033,7.9714,7.9888,8.0527,8.0527,8.1223,8.2413,8.1746,8.1455,8.1426,8.0962,8.0672,8.0527,8.0527,8.0439,8.0294,8.0294,8.0294,8.0323,0.0,0.0,0.0,0.0,0.0,0.0,0.0,0.0,0.0,0.0,0.0,4.2137,4.2135,4.2637,4.2964,4.3014,4.3014,4.3014,4.3014,4.3014,4.3014,4.3014,4.3014,0.0,4.3014,4.3014,4.3014,4.3014,4.3514,4.3765,4.3843,4.6088,4.7751,4.8951,5.0258,5.2156,5.4554,5.7016,5.8146,5.8406,5.9626,6.0526,6.1222,6.1745,6.2354,6.3022,6.36,6.3774,6.3861,6.4532,6.4328,6.3803,6.3832,6.392,6.4094,0.0,0.0,0.0,6.8538,6.9263,7.0169,7.1388,7.2166,7.3153,7.5069,7.5504,7.5679,7.6355,7.7023,7.7653,7.8291,7.9452,8.0294,8.0294,8.0294,8.0294,8.0294,8.0294,8.0294,8.0265,8.0265,8.0033,7.9365,7.9917,7.9772,7.8553,7.9598,7.9975,7.9278,7.9917,7.9975,7.9278,7.9278,7.9017,7.8465,7.9017,7.9307,7.9365,7.9946,8.0556,8.1136,8.1136,8.1862,8.311,8.2442,8.2152,8.2152,8.2094,8.1717,8.1136,8.1136,8.0788,8.0294,8.0294,8.0294,8.0381,0.0,0.0,0.0,0.0,0.0,0.0,0.0,0.0,0.0,0.0,0.0,0.0,0.0,4.2688,4.3014,4.3014,4.3014,4.3014,4.3014,4.3014,4.3014,4.3014,4.3014,4.3014,4.3014,4.3014,4.319,4.3514,4.3714,4.457,4.606,4.6905,4.8794,5.1461,5.2295,5.3583,5.5242,5.739,5.8552,5.9045,6.0322,6.1483,6.2441,6.2645,6.3138,6.3658,6.3486,6.3658,6.4036,6.4268,6.4471,6.4706,6.508,6.5486,6.607,6.7144,6.7957,6.8538,6.8736,6.9292,7.011,7.1388,7.2137,7.3008,7.4518,7.5185,7.5563,7.5795,7.6666,7.7478,7.7711,7.8785,7.9801,8.0236,8.0294,8.0294,8.0294,8.0294,8.0294,8.0294,8.0294,8.0207,7.9975,8.0149,8.012,7.9656,8.0033,8.0207,7.9946,8.0178,7.9975,7.9307,7.9714,7.983,7.9627,7.983,7.9714,7.9307,7.954,7.9569,7.9423,7.9801,8.0236,8.073,8.131,8.2036,8.2791,8.2384,8.2065,8.1833,8.1833,8.1717,8.1514,8.1514,8.1514,8.1543,0.0,0.0,0.0,0.0,0.0,0.0,0.0,0.0,4.1605,4.1605,0.0,0.0,0.0,0.0,4.3014,4.3014,4.3014,4.3014,4.3014,4.3014,4.3014,4.3014,4.3014,4.3014,4.3014,4.319,4.3639,4.4387,4.4798,4.6093,4.8234,4.8818,5.0484,5.3051,5.4063,5.5104,5.6142,5.7913,5.9132,6.0061,6.1542,6.2674,6.3457,6.3893,6.4268,6.4616,6.4444,6.4793,6.537,6.5776,6.6099,6.6302,6.6535,6.6709,6.7144,6.8417,6.8794,6.8794,6.8794,6.9147,6.9757,7.1034,7.1673,7.2334,7.3879,7.4547,7.4982,7.5417,7.6172,7.6898,7.7333,7.8088,7.8959,7.983,7.9975,8.0033,8.0265,8.0294,8.0294,8.0294,8.0294,8.0294,8.0294,8.0294,8.0294,8.0294,8.0294,8.0294,8.0294,8.0294,8.0091,7.9656,8.0062,8.0294,8.0294,8.0294,8.0091,7.9627,7.9627,7.9423,7.9046,7.9452,7.9743,7.9975,8.0817,8.1688,8.25,8.2268,8.2181,8.2181,8.1949,8.2007,8.2181,8.1949,8.2007,8.2239,0.0,0.0,0.0,0.0,0.0,0.0,4.271,0.0,4.2238,4.2238,0.0,0.0,0.0,0.0,0.0,4.3014,4.3014,4.3014,4.3014,4.3014,4.3014,4.3014,4.3014,4.3014,4.3039,4.3539,4.4413,4.5693,4.6765,4.8289,5.0152,5.1906,5.3079,5.3782,5.5614,5.6781,5.7448,5.8784,6.0061,6.1367,6.3252,6.4007,6.4181,6.5428,6.5922,6.6009,6.6651,6.7351,6.8106,6.9355,6.9321,6.8678,6.8073,6.7434,6.7173,6.8421,6.8765,6.8765,0.0,0.0,0.0,7.0332,7.0651,7.1173,7.3124,7.3589,7.3966,7.5185,7.5475,7.5882,7.713,7.7362,7.7769,7.9046,7.9278,7.954,8.0178,8.0294,8.0294,8.0294,8.0294,8.0294,8.0294,8.0294,8.0294,8.0294,8.0294,8.0294,8.0294,8.0294,8.0294,8.0294,8.0294,8.0294,8.0294,8.0265,8.0265,8.0236,8.0207,8.0207,8.0178,8.0178,8.0497,8.1049,8.1078,8.1078,8.1136,8.1891,8.2181,8.2123,8.1484,8.163,8.2123,8.1455,8.163,8.2268,0.0,0.0,0.0,0.0,0.0,4.1892,4.237,4.2631,4.2788,0.0,0.0,0.0,4.3014,4.3014,4.3014,4.3014,4.3014,4.3014,4.3014,4.3014,4.3014,4.3014,4.3014,4.319,4.3564,4.3714,4.5027,4.7474,4.7817,4.9572,5.263,5.3108,5.4176,5.5671,5.6641,5.7681,5.8813,5.9597,6.0438,6.1367,6.3252,6.4268,6.4822,6.5602,6.6183,6.6651,6.6825,6.7351,6.7928,6.831,6.8596,6.8678,6.8073,6.7754,6.7667,6.8044,6.8131,6.8131,6.8131,0.0,0.0,0.0,0.0,0.0,7.1992,7.295,7.3705,7.4053,7.4866,7.5621,7.5969,7.6404,7.7023,7.7798,7.8698,7.9365,7.954,7.9975,8.0294,8.0294,8.0294,8.0294,8.0294,8.0294,8.0294,8.0294,8.0294,8.0294,8.0294,8.0294,8.0294,8.0294,8.0294,8.0294,8.0294,7.983,7.9365,7.893,7.8436,7.7972,7.7546,7.7546,7.7662,7.7836,7.8262,7.8465,7.864,8.1165,8.2181,8.2181,8.2007,8.2036,8.2181,8.1978,8.2036,8.221,0.0,0.0,4.218,4.2944,4.338,4.3689,4.3864,4.3776,4.3664,0.0,0.0,0.0,4.3664,4.3664,4.3664,4.3664,4.3664,4.3664,4.3664,4.3664,4.3765,4.4044,4.4044,4.4554,4.5607,4.5863,4.738,5.0111,5.0325,5.1952,5.4768,5.4768,5.5504,5.681,5.7448,5.861,6.0148,6.1048,6.1774,6.2587,6.4764,6.5693,6.5896,6.7086,6.7609,6.7725,6.8019,6.8509,6.9118,6.9413,6.935,6.9205,6.9089,6.8509,6.7928,6.8189,6.8276,6.8276,6.8276,6.8538,6.8794,6.8794,0.0,0.0,7.1505,7.2456,7.3414,7.4227,7.4779,7.5185,7.5446,7.5824,7.6172,7.655,7.7682,7.8611,7.8901,7.9249,7.9598,7.9859,7.9888,7.9975,8.0265,8.0294,8.0294,8.0294,8.0294,8.0294,8.0294,8.0294,8.0294,8.0294,8.0294,8.0294,8.0294,7.9917,7.954,7.9191,7.8785,7.8262,7.7691,7.7691,7.7546,7.7342,7.7653,7.7827,7.7972,7.983,8.0933,8.1397,8.1397,8.1717,8.2152,8.1891,8.1949,8.2181,0.0,0.0,4.4571,4.5262,4.5692,4.5958,4.6169,4.5448,4.4897,0.0,4.4897,4.4864,4.4794,4.479,4.479,4.479,4.484,4.4865,4.4865,4.4865,4.5179,4.5885,4.5834,4.663,4.8492,4.9048,5.0503,5.2993,5.3501,5.4657,5.652,5.6578,5.6897,5.7448,5.8261,5.9568,6.1309,6.279,6.3719,6.4442,6.6883,6.758,6.7289,6.9123,6.9466,6.9084,6.967,7.025,7.0802,7.1382,7.0866,6.996,7.0366,6.9408,6.8189,6.8596,6.8736,6.8794,6.8707,6.8736,6.8765,6.8707,6.9205,0.0,7.1214,7.1905,7.2805,7.4605,7.4634,7.4518,7.5185,7.5417,7.5534,7.5592,7.655,7.7537,7.8204,7.8349,7.8611,7.9133,7.9191,7.9452,8.012,8.0178,8.0207,8.0294,8.0294,8.0294,8.0294,8.0294,8.0294,8.0294,8.0294,8.0294,8.0294,8.0236,8.0149,8.0091,8.0004,7.9627,7.8988,7.8988,7.8698,7.8175,7.8175,7.8175,7.8204,7.8262,7.9046,8.0178,8.0178,8.0933,8.192,8.131,8.1484,8.1978,4.3563,4.5221,4.6329,4.5005,4.6435,4.7287,4.5868,4.6267,4.676,4.676,4.676,4.6592,4.6043,4.5974,4.5974,4.5974,4.6346,4.6622,4.6622,4.6622,4.7161,4.8373,4.7935,4.8548,5.0406,5.057,5.1833,5.4233,5.4374,5.5339,5.7129,5.7681,5.8,5.8174,5.9887,6.0845,6.1367,6.4183,6.5428,6.566,6.726,6.8102,6.8538,6.9437,7.0018,7.0332,7.0482,7.0628,7.0709,7.086,7.0744,7.0366,6.9432,6.9292,6.9268,6.8334,6.8421,6.8678,6.8218,6.845,6.8678,6.8189,6.8538,0.0,6.9994,7.0285,7.057,7.1469,7.2334,7.3182,7.385,7.4808,7.5679,7.6239,7.6529,7.6907,7.7507,7.8059,7.8436,7.8553,7.8582,7.8814,7.9423,7.9511,7.9714,8.0265,8.0294,8.0294,8.0294,8.0294,8.0294,8.0294,8.0294,8.0294,8.0294,7.9772,7.9249,7.8756,7.8233,7.7624,7.7052,7.7052,7.6994,7.6878,7.6878,7.6878,7.6907,7.7391,7.8349,7.9511,7.9511,7.9975,8.0643,8.0527,8.0556,8.0672,4.4727,4.6593,4.7835,4.6579,4.8661,4.9966,4.8445,4.8969,4.9534,4.9534,4.9534,4.9542,4.9557,4.9228,4.9415,5.0397,5.0153,5.0201,5.087,5.0577,5.0824,5.181,5.1573,5.2085,5.3647,5.3704,5.4423,5.5937,5.5937,5.6565,5.7826,5.8145,5.8813,5.9771,6.0409,6.1774,6.3632,6.4909,6.6389,6.7928,6.8915,6.9292,6.9466,7.1092,7.1673,7.176,7.2369,7.2602,7.2637,7.2815,7.254,7.1992,7.0999,7.0715,7.0517,6.9239,6.906,6.9147,6.8509,6.8596,6.8707,6.8421,6.8596,0.0,0.0,7.025,7.0512,7.1434,7.2166,7.2805,7.3501,7.4372,7.5127,7.5446,7.6064,7.6384,7.5998,7.7072,7.803,7.8349,7.8669,7.8959,7.9278,7.9307,7.9452,7.9772,8.012,8.0294,8.0294,8.0294,8.0294,8.0294,8.0294,8.0294,8.0294,7.9975,7.9656,7.9336,7.8669,7.803,7.742,7.7072,7.679,7.65,7.65,7.65,7.6558,7.713,7.7972,7.8872,7.9191,7.9714,8.0294,8.0294,8.0294,8.0294,4.6627,4.8566,4.9992,4.8998,5.1259,5.2771,5.1439,5.1958,5.248,5.2491,5.2724,5.3029,5.3449,5.309,5.3558,5.5231,5.4542,5.446,5.5476,5.4927,5.4879,5.5645,5.5316,5.5753,5.7119,5.7006,5.7193,5.7681,5.7681,5.7971,5.8493,5.861,5.9568,6.1193,6.1135,6.2848,6.5718,6.5983,6.7501,6.9835,7.0866,7.0976,7.0808,7.3167,7.3719,7.3298,7.4242,7.4627,7.4664,7.4962,7.4568,7.3784,7.3008,7.2544,7.1969,7.0575,7.0256,7.0134,6.9234,6.9002,6.8939,6.8823,6.8794,6.9055,0.0,0.0,0.0,7.1637,7.1992,7.2282,7.295,7.3647,7.4111,7.3995,7.5069,7.5542,7.4314,7.5708,7.7043,7.7595,7.8407,7.893,7.893,7.9365,7.9569,7.9307,8.0033,8.041,8.0323,8.0294,8.0294,8.0294,8.0294,8.0294,8.0294,8.0294,8.0236,8.0091,7.9452,7.8814,7.8204,7.7537,7.7014,7.6674,7.6674,7.6761,7.6907,7.7391,7.7972,7.8611,7.9104,7.9714,8.0294,8.0294,8.0294,8.0294,5.0604,5.2659,5.3973,5.1765,5.3445,5.451,5.2672,5.3893,5.4991,5.5009,5.5944,5.6467,5.5963,5.6364,5.7027,5.7823,5.82,5.8467,5.8603,5.7971,5.8154,5.941,5.7902,5.7858,5.9709,5.9247,5.8987,5.9074,5.9074,5.9103,5.919,5.9742,6.0409,6.1309,6.3457,6.4677,6.5315,6.8654,6.9845,6.9683,7.225,7.324,7.3363,7.5152,7.5538,7.5164,7.5065,7.5035,7.5035,7.5071,7.5042,7.4758,7.3784,7.3821,7.3821,7.2027,7.1847,7.1905,7.0163,6.9704,6.9525,6.8939,6.8794,6.8823,6.8968,0.0,6.9055,6.92,0.0,7.0279,7.0918,0.0,0.0,7.2114,7.3095,7.3676,7.295,7.4024,7.4932,7.4953,7.6521,7.7624,7.7624,7.9656,8.0527,7.9394,8.041,8.0846,8.0323,8.0294,8.0294,8.0294,8.0294,8.0294,8.0294,8.0294,8.0004,7.9423,7.8785,7.8175,7.7507,7.6907,7.6878,7.7304,7.7304,7.7624,7.8175,7.8262,7.864,7.9191,7.9278,7.9714,8.0294,8.0294,8.0294,8.0294,5.185,5.2994,5.4035,5.3019,5.4883,5.6243,5.5452,5.6963,5.8194,5.8198,5.8988,5.9594,5.9642,5.9611,6.0262,6.2025,6.1738,6.1734,6.2503,6.1904,6.1614,6.1838,6.1096,6.0852,6.1309,6.1048,6.0758,6.0409,6.0003,6.0206,6.0932,6.0816,6.1716,6.3428,6.4502,6.5938,6.7681,6.9252,7.0814,7.2326,7.4089,7.5356,7.6166,7.6117,7.6571,7.7355,7.7881,7.7881,7.7733,7.7984,7.7881,7.7482,7.608,7.5787,7.5604,7.3428,7.2718,7.2369,7.1214,7.0924,7.0715,7.0076,7.0192,7.0279,6.9554,6.9379,6.9263,6.8852,0.0,0.0,0.0,0.0,0.0,0.0,7.2776,7.3124,7.1702,7.295,7.4285,7.5011,7.6143,7.6907,7.6907,7.8494,7.9191,7.8262,7.9743,8.0381,7.9743,8.0091,8.0294,8.0294,8.0294,8.0294,8.0294,8.0294,7.9975,7.9307,7.9046,7.8582,7.7972,7.7711,7.774,7.7972,7.7972,7.8146,7.8436,7.8785,7.923,7.9686,8.0065,8.0258,8.0334,8.057,8.0648,8.0687,5.441,5.4512,5.4885,5.4885,5.6536,5.7971,5.8319,5.9713,6.0787,6.0961,6.1716,6.2412,6.2848,6.2964,6.3835,6.5867,6.5344,6.517,6.5751,6.5344,6.4703,6.3893,6.3545,6.3283,6.3138,6.279,6.2412,6.1977,6.1483,6.1629,6.2354,6.2093,6.3051,6.5028,6.5344,6.7054,6.9696,7.0014,7.1815,7.4609,7.5576,7.6924,7.8246,7.7371,7.785,7.9144,7.9909,8.0012,7.9795,8.0124,8.0012,7.9505,7.8187,7.7664,7.715,7.5269,7.4263,7.3534,7.264,7.2372,7.2133,7.1214,7.1469,7.1586,7.0337,7.0198,7.0076,6.9263,6.9466,0.0,0.0,0.0,7.1557,7.0808,0.0,7.2021,7.039,7.1666,7.324,7.4314,7.5475,7.6442,7.6994,7.8175,7.8582,7.774,7.9307,8.0004,7.9336,7.9772,8.012,8.0294,8.0294,8.0294,8.0294,8.0412,8.0306,8.0026,7.9968,7.9774,7.9511,7.9161,7.9026,7.9094,7.8881,7.8872,7.8959,7.9394,7.9919,8.0483,8.0981,8.1185,8.1154,8.1078,8.1,8.0961,5.9828,5.8958,5.8146,5.8146,5.8755,5.9655,6.0874,6.1629,6.2267,6.2906,6.4096,6.488,6.488,6.6564,6.7957,6.862,6.9234,6.9094,6.7903,6.7816,6.7173,6.5864,6.4645,6.4529,6.5747,6.4587,6.392,6.392,6.3891,6.36,6.308,6.3629,6.4297,6.5025,6.6306,6.8132,7.0429,7.1624,7.3327,7.5346,7.6293,7.7666,7.9174,7.9386,7.9765,8.0169,8.0199,8.0199,8.0162,8.0199,8.0199,8.0094,7.966,7.9067,7.8419,7.777,7.7092,7.6224,7.4564,7.4105,7.3742,7.2069,7.2108,7.2253,7.0941,7.115,7.1301,7.0052,6.9791,6.9583,6.8968,0.0,0.0,0.0,0.0,0.0,0.0,6.9955,7.1063,7.1766,7.4024,7.6288,7.8175,7.9481,7.9714,7.8465,7.9569,8.0004,7.9336,7.9307,7.9627,8.0265,8.0294,8.0294,8.0294,8.0687,8.1215,8.18,8.1615,8.1809,8.233,8.1102,8.0635,8.0776,8.0132,7.9978,8.0236,8.0265,8.089,8.1839,8.1869,8.2486,8.3254,8.1947,8.1204,8.0961,6.0903,6.0845,6.07,6.0293,6.0729,6.1454,6.2325,6.3341,6.4096,6.4328,6.546,6.6451,6.6854,6.7526,6.8305,6.935,6.9263,6.8973,6.8538,6.8102,6.7696,6.7231,6.6389,6.6128,6.6535,6.6128,6.5722,6.5254,6.5254,6.5402,6.5638,6.5627,6.5988,6.6659,6.8381,7.009,7.1812,7.3249,7.5135,7.7347,7.8537,8.0065,8.1534,8.1175,8.1153,8.1325,8.1743,8.1922,8.1922,8.1922,8.1922,8.1757,8.0933,8.0486,8.0152,7.9239,7.8299,7.7334,7.6373,7.5919,7.537,7.3915,7.4372,7.4721,7.3008,7.2805,7.2602,7.133,7.0686,7.0192,0.0,0.0,0.0,0.0,0.0,0.0,0.0,7.0279,7.176,7.2834,7.4082,7.5098,7.5766,7.7391,7.803,7.7226,7.832,7.8959,7.8727,7.9075,7.9598,8.0265,8.0294,8.0294,8.0294,8.0727,8.101,8.1254,8.1919,8.2084,8.1877,8.1877,8.1643,8.1253,8.1047,8.1234,8.1733,8.1733,8.2389,8.3372,8.3372,8.3569,8.3835,8.339,8.3125,8.3047,6.2238,6.2529,6.2529,6.1658,6.2209,6.2993,6.3661,6.4648,6.5402,6.5635,6.6767,6.7812,6.8513,6.9147,6.9902,7.0715,7.0628,7.0303,6.9873,6.967,6.9263,6.8629,6.8363,6.8131,6.7961,6.7497,6.7144,6.6937,6.6506,6.6542,6.708,6.7133,6.7474,6.8011,6.9478,7.1255,7.3129,7.3897,7.5839,7.8546,7.9886,8.1228,8.2447,8.2469,8.2619,8.2858,8.3038,8.3247,8.3495,8.3495,8.3495,8.3299,8.2375,8.1942,8.1576,8.0666,7.9714,7.8898,7.8337,7.7995,7.7478,7.6014,7.6508,7.6862,7.494,7.4569,7.4314,7.324,7.2166,7.1353,7.1179,7.0918,0.0,0.0,0.0,0.0,0.0,7.0889,7.2166,7.3472,7.414,7.4605,7.4837,7.6201,7.6936,7.6529,7.7449,7.8146,7.8407,7.8785,7.9394,8.0265,8.0294,8.0373,8.053,8.1127,8.1674,8.2036,8.2908,8.3192,8.3053,8.2984,8.2749,8.2387,8.2151,8.2339,8.288,8.288,8.35,8.4486,8.4486,8.4683,8.495,8.4503,8.4325,8.4325,6.4036,6.4152,6.3745,6.2558,6.331,6.4297,6.4967,6.5664,6.6299,6.6941,6.816,6.9205,6.9878,7.1498,7.2573,7.2602,7.3182,7.2979,7.1795,7.2231,7.1766,6.9994,7.0488,7.0523,6.9912,6.875,6.8401,6.8891,6.7704,6.7258,6.7614,6.8262,6.8719,6.9106,6.9788,7.1673,7.4357,7.3758,7.5602,7.8998,8.0315,8.1272,8.205,8.3239,8.4136,8.4714,8.3987,8.4136,8.4714,8.4714,8.4714,8.4594,8.3927,8.3367,8.2776,8.2148,8.1452,8.0832,8.043,8.0221,7.9782,7.8169,7.8377,7.8514,7.6614,7.6412,7.6413,7.5737,7.4111,7.2979,7.3501,7.2102,7.0854,0.0,0.0,0.0,0.0,0.0,7.226,7.3414,7.414,7.4808,7.5417,7.6093,7.65,7.65,7.7043,7.7682,7.832,7.8407,7.9017,8.0207,8.0265,8.0491,8.0922,8.1968,8.3047,8.4129,8.4549,8.5103,8.5671,8.4384,8.3913,8.4099,8.3475,8.3331,8.3638,8.3638,8.423,8.5179,8.5179,8.5804,8.6578,8.5282,8.4803,8.4803,6.6041,6.6157,6.6041,6.5722,6.5548,6.5631,6.6302,6.7754,6.8857,6.9036,7.0134,7.1179,7.1818,7.1905,7.2108,7.2573,7.234,7.2056,7.1737,7.1662,7.1597,7.1597,7.2021,7.1988,7.1278,7.1459,7.1136,7.0342,7.0048,7.0141,7.0649,7.0622,7.0936,7.1511,7.2133,7.3554,7.5508,7.5527,7.739,8.0345,8.1183,8.2499,8.3936,8.3748,8.4743,8.603,8.4863,8.4564,8.4714,8.4714,8.4714,8.4684,8.4504,8.4354,8.4175,8.4025,8.3257,8.2363,8.1849,8.085,7.9757,7.8888,7.8955,7.8968,7.8038,7.7845,7.7711,7.7043,7.6143,7.5135,7.385,7.356,7.3066,0.0,0.0,0.0,0.0,0.0,0.0,7.2892,7.4285,7.5127,7.4874,7.5832,7.65,7.65,7.7043,7.7478,7.7653,7.8553,7.922,7.954,8.0033,8.0491,8.0922,8.1968,8.3047,8.409,8.4997,8.5521,8.5671,8.5342,8.4935,8.4558,8.4379,8.46,8.5118,8.5118,8.5585,8.63,8.63,8.646,8.6668,8.6299,8.618,8.618,6.6858,6.7148,6.7405,6.7667,6.7799,6.7803,6.7758,6.9118,7.0395,7.0947,7.1876,7.2863,7.3792,7.374,7.376,7.4103,7.3962,7.3865,7.3865,7.3756,7.3539,7.3298,7.4074,7.3943,7.27,7.3029,0.0,7.2144,7.1613,7.1592,7.2053,7.19,7.2131,7.2652,7.3576,7.4727,7.5971,7.7289,7.9145,8.1302,8.1968,8.3038,0.0,8.4465,8.5282,8.618,8.5731,8.5581,8.5581,8.5581,8.5581,8.5521,8.5222,8.5132,8.5073,8.4803,8.4251,8.3738,8.3419,8.2477,8.1412,8.0829,8.0574,8.0277,7.9509,7.9404,7.9279,7.8417,7.7507,7.6637,7.5853,7.5301,7.4605,0.0,0.0,0.0,0.0,0.0,0.0,0.0,7.4837,7.5359,7.5011,7.5621,7.6056,7.6056,7.6898,7.7391,7.7391,7.8611,7.9307,7.9307,8.0207,8.0832,8.1156,8.2605,8.3687,8.4364,8.5255,8.5701,8.5671,8.5402,8.5222,8.5132,8.5132,8.5521,8.612,8.612,8.6329,8.6728,8.6728,8.6728,8.6728,8.6728,8.6728,8.6668,6.7293,6.7783,6.845,6.9089,7.0035,7.0405,6.9627,7.047,7.1604,7.2602,7.3457,7.4431,7.5462,7.586,7.6022,7.6022,7.635,7.6568,7.6568,7.6605,7.6168,7.5106,7.6264,7.6181,7.4497,7.4443,7.4414,7.432,7.3019,7.2599,7.2994,7.2994,7.3129,7.3492,7.4809,7.5905,7.6859,7.9287,8.1145,8.2444,8.2973,8.3589,8.4272,8.5503,8.5927,8.592,8.6725,8.6857,8.6728,8.6728,8.6728,8.6608,8.6,8.5821,8.5701,8.5132,8.4923,8.4833,8.4833,8.4217,8.3491,8.2962,8.241,8.1713,8.0777,8.0677,8.0551,7.9618,7.8553,7.7885,7.8204,7.6753,7.5563,7.5737,0.0,0.0,0.0,0.0,0.0,0.0,0.0,0.0,7.5534,7.565,7.5737,7.565,7.6869,7.7537,7.7304,7.864,7.9365,7.9191,8.045,8.1339,8.1741,8.35,8.4556,8.4983,8.5551,8.5821,8.5791,8.5222,8.5282,8.5821,8.5821,8.609,8.6578,8.6578,8.6549,8.6459,8.6459,8.6519,8.6578,8.6578,8.6578,8.6519,6.9297,6.9786,7.0424,7.1063,7.2024,7.2818,7.3186,7.3668,7.3838,7.3486,7.5012,7.6124,7.5992,7.5852,7.5746,7.5746,7.5818,7.5884,7.5884,7.6177,7.6504,7.683,7.7861,7.828,7.7921,7.7921,7.7653,7.708,7.5832,7.5473,7.6051,7.6051,7.6086,7.618,7.7502,7.9178,8.1043,8.2602,8.4081,8.5446,8.5436,8.5777,8.645,8.7284,8.7147,8.6707,8.8102,8.7776,8.6728,8.6728,8.6728,8.6698,8.6578,8.6509,8.6519,8.6359,8.594,8.5521,8.5521,8.4382,8.3157,8.3077,8.2082,8.1088,8.0893,8.06,8.0344,8.0149,7.9946,7.9336,7.7856,7.6433,7.5853,7.6898,0.0,0.0,0.0,0.0,0.0,0.0,0.0,7.6122,0.0,7.6462,7.6869,7.6384,7.7972,7.8291,7.6732,7.8843,7.9627,7.8582,8.0153,8.1654,8.3146,8.3815,8.4901,8.6329,8.6489,8.6509,8.6509,8.6389,8.6389,8.6509,8.6509,8.627,8.5881,8.5881,8.5551,8.5043,8.5043,8.5402,8.5881,8.5881,8.5881,8.5851,7.0808,7.1789,7.276,7.2974,7.4382,7.5396,7.5043,7.6342,7.6947,7.5824,7.6549,7.7225,7.7394,7.746,7.7509,7.7509,7.8017,7.8334,7.8334,7.8218,7.8231,7.8559,7.9069,7.9327,7.9327,7.9656,7.9507,7.8849,7.822,7.7891,7.7861,7.7861,7.7861,7.7927,7.9678,8.14,8.3155,8.4548,8.5971,8.7317,8.7614,8.8104,8.8796,8.9446,8.9432,8.9096,8.902,8.8517,8.7776,8.6975,8.6728,8.6728,8.6728,8.6728,8.6728,8.6728,8.6449,8.621,8.621,8.5335,8.4432,8.4432,8.3654,8.2701,8.2182,8.1997,8.1585,8.0327,8.0219,7.9917,7.8611,7.8436,7.8436,7.8407,7.7885,0.0,0.0,0.0,0.0,0.0,0.0,0.0,0.0,0.0,7.713,7.6558,7.7943,7.8291,7.7014,7.9075,7.9976,7.921,8.0669,8.185,8.277,8.3972,8.498,8.5671,8.6399,8.6728,8.6728,8.6728,8.6728,8.6698,8.6329,8.6,8.5671,8.5312,8.5192,8.5222,8.5222,8.5611,8.621,8.621,8.6,8.5641,7.274,7.3928,7.5028,7.515,7.66,7.7438,7.6588,7.8354,7.9215,7.7645,7.7799,7.822,7.8678,7.9108,7.9455,7.9723,8.0519,8.1063,8.1212,8.0734,8.0494,8.0607,8.0524,8.0524,8.0607,8.0883,8.0764,8.0225,8.0105,7.9537,7.8579,7.9148,7.9658,8.0207,8.1725,8.3441,8.5221,8.6561,8.7942,8.9266,8.9813,9.0341,9.0916,9.1385,9.1456,9.1185,9.0113,8.965,8.9248,8.7698,8.6975,8.6728,8.6728,8.6728,8.6728,8.6728,8.6728,8.6728,8.6728,8.621,8.5701,8.5701,8.5114,8.4331,8.3398,8.3264,8.2742,8.062,8.0123,7.9975,7.9569,8.012,8.0352,7.9627,7.9162,0.0,0.0,0.0,0.0,0.0,0.0,0.0,7.7188,7.7449,7.7362,7.6761,7.774,7.8175,7.7653,7.9307,8.0219,7.9977,8.1283,8.2301,8.2807,8.4278,8.5109,8.5372,8.624,8.6728,8.6728,8.6578,8.6519,8.6459,8.5761,8.5402,8.5222,8.4564,8.4594,8.5073,8.5073,8.5551,8.627,8.627,8.603,8.5611,7.6034,7.6371,7.6842,7.8065,7.8242,7.838,7.8796,7.9394,7.9066,7.7061,7.8423,7.949,7.9189,7.9513,8.0211,8.1444,8.1661,8.1968,8.2567,8.2567,8.2739,8.3299,8.2798,8.2769,8.3329,8.226,8.1661,8.1601,8.1003,7.9746,7.7951,8.0375,8.2531,8.4407,8.3998,8.571,8.8953,8.9763,9.0946,9.2278,9.2275,9.2349,9.2414,9.2479,9.1998,9.138,9.2047,9.1751,9.0857,8.9323,8.7854,8.6728,8.6728,8.6728,8.6728,8.6728,8.6728,8.6728,8.6728,8.621,8.5701,8.5701,8.4919,8.4021,8.3589,8.3153,8.2539,8.1324,8.0188,7.9569,8.012,7.9365,7.9017,8.0033,7.8727,7.774,0.0,0.0,0.0,0.0,0.0,0.0,0.0,7.7624,7.803,7.7362,7.8001,7.8378,7.832,7.9569,8.0305,8.0247,8.1704,8.3313,8.5074,8.4881,8.5662,8.7407,8.6928,8.6728,8.6698,8.606,8.5791,8.5761,8.5103,8.4474,8.3837,8.3217,8.3016,8.3076,8.3076,8.3816,8.4893,8.4893,8.5222,8.5671,7.6621,7.7299,7.808,7.8841,7.959,8.0192,8.0683,8.1549,8.2035,8.1783,8.0935,8.0331,8.0153,8.1019,8.1848,8.2357,8.3098,8.3636,8.3906,8.3576,8.3636,8.4256,8.4623,8.5056,8.5689,8.5702,8.5714,8.5714,8.4092,8.2918,8.2126,8.3222,8.4669,8.6354,8.6975,8.8283,9.0127,9.1305,9.241,9.3386,9.3334,9.3598,9.3959,9.3959,9.4019,9.4032,9.3467,9.3049,9.2471,9.0894,8.9361,8.7931,8.6975,8.6728,8.6728,8.6728,8.6728,8.6728,8.6728,8.6519,8.627,8.627,8.5972,8.5515,8.4931,8.4288,8.3525,8.2749,8.1435,8.0527,8.0788,8.041,8.0004,7.9743,7.9394,7.8959,0.0,0.0,0.0,0.0,0.0,0.0,0.0,7.7507,7.8001,7.8494,7.8785,7.9133,7.9511,8.0239,8.1155,8.2182,8.2231,8.3133,8.4951,8.44,8.4705,8.591,8.603,8.609,8.609,8.621,8.5851,8.5103,8.4833,8.4115,8.3128,8.2896,8.3016,8.3337,8.3337,8.4145,8.5312,8.5312,8.5731,8.627,7.8108,7.9462,8.0674,8.1149,8.1997,8.2889,8.3636,8.4122,8.4809,8.591,8.4474,8.3259,8.3076,8.3898,8.4599,8.4995,8.5871,8.6442,8.6656,8.6199,8.6169,8.6625,8.7106,8.7575,8.7973,8.8437,8.8619,8.8619,8.7088,8.5862,8.5122,8.5122,8.6302,8.8516,8.937,9.0227,9.1207,9.2275,9.2987,9.3484,9.3716,9.4246,9.4875,9.4643,9.5173,9.5837,9.4545,9.4207,9.4132,9.2542,9.1289,9.0004,8.8009,8.7377,8.7299,8.6817,8.6728,8.6728,8.6728,8.6728,8.6728,8.6728,8.6728,8.6569,8.5932,8.5367,8.4671,8.3783,8.247,8.1484,8.1484,8.1339,8.0962,8.0265,8.0062,7.9772,7.9075,7.8785,0.0,0.0,0.0,0.0,7.8154,7.8483,7.8987,7.9599,7.9871,8.0114,8.0462,8.0941,8.1821,8.3165,8.2699,8.3077,8.4519,8.3978,8.4136,8.5013,8.5462,8.5791,8.6,8.627,8.5791,8.4714,8.4504,8.3906,8.3038,8.2866,8.3038,8.3457,8.3457,8.4145,8.5132,8.5342,8.5821,8.6419,8.1407,8.3508,8.5214,8.5886,8.601,8.6556,8.8093,8.7061,8.6623,8.8163,8.8907,8.9031,8.8401,8.8338,8.8841,9.0197,9.0323,9.0572,9.1195,9.1226,9.1226,9.1226,9.0667,9.0359,9.0359,8.973,8.9382,8.9382,8.935,8.7961,8.5306,8.5306,8.7507,9.1518,9.0773,9.1305,9.2689,9.2689,9.2689,9.2755,9.3484,9.4246,9.4809,9.408,9.471,9.5902,9.5141,9.534,9.5772,9.42,9.3653,9.31,8.9967,8.8944,8.867,8.7172,8.6728,8.6728,8.6728,8.6728,8.6728,8.6728,8.6728,8.6609,8.6171,8.608,8.5632,8.4108,8.294,8.2181,8.2181,8.163,8.1397,8.2065,8.0556,7.954,8.0178,7.9714,0.0,7.9278,8.0381,8.0801,7.9977,8.1068,8.1498,8.0659,8.1161,8.1282,8.0922,8.1507,8.2095,8.2517,8.2877,8.3407,8.409,8.3824,8.4346,8.5671,8.5701,8.603,8.6668,8.6,8.5342,8.4684,8.3987,8.3688,8.3628,8.3038,8.2806,8.2806,8.2806,8.3187,8.3807,8.4474,8.5132,8.5791,8.3984,8.4685,8.5372,8.6027,8.6153,8.6673,8.8037,8.7843,8.8247,9.025,9.1128,9.1893,9.2742,9.1018,8.9952,9.0359,9.0766,9.1109,9.1294,9.1294,9.1294,9.1294,9.2141,9.2674,9.2674,9.2957,9.3168,9.3168,9.1642,9.0457,8.959,8.959,9.0583,9.2348,9.2084,9.2539,9.3451,9.3451,9.3749,9.4213,9.4445,9.4676,9.4875,9.4643,9.514,9.5968,9.5736,9.5803,9.5936,9.5441,9.5276,9.4909,9.2855,9.0742,8.8906,8.8402,8.7534,8.6728,8.6728,8.6728,8.6728,8.6728,8.7495,8.797,8.6777,8.632,8.586,8.506,8.4028,8.3266,8.3266,8.2499,8.1949,8.2152,8.1281,8.0672,8.0875,8.0381,7.9918,7.9725,8.0085,8.0152,7.9762,8.0506,8.0959,8.0833,8.2095,8.2586,8.2027,8.2034,8.2494,8.3568,8.3163,8.3415,8.4519,8.3978,8.4136,8.5043,8.5492,8.603,8.6698,8.6489,8.6,8.5342,8.4684,8.4106,8.3628,8.3038,8.2806,8.2806,8.2806,8.3427,8.4406,8.4624,8.5402,8.6389,8.5899,8.6593,8.7314,8.7761,8.8014,8.8663,9.0069,9.0047,9.0571,9.2511,9.3429,9.4253,9.5208,9.3618,9.2493,9.2493,9.2843,9.31,9.31,9.31,9.31,9.31,9.4031,9.4572,9.4572,9.5046,9.5306,9.5306,9.3664,9.2972,9.3233,9.2972,9.3237,9.3914,9.3649,9.3782,9.4179,9.3914,9.408,9.4478,9.4478,9.4643,9.4908,9.4908,9.5372,9.6001,9.6001,9.6001,9.6001,9.6001,9.6001,9.5838,9.4842,9.282,9.0632,9.0041,8.921,8.841,8.841,8.841,8.841,8.841,8.9172,8.9593,8.864,8.8133,8.759,8.6718,8.5844,8.5019,8.4303,8.3412,8.2761,8.2599,8.2007,8.1612,8.1772,8.1491,8.1242,8.1264,8.1244,8.1135,8.0948,8.1311,8.156,8.1592,8.2592,8.3044,8.2629,8.2736,8.3098,8.358,8.3073,8.3277,8.4286,8.3897,8.4136,8.5103,8.5761,8.627,8.6728,8.6728,8.6449,8.603,8.5372,8.4714,8.4017,8.3397,8.3016,8.2806,8.2806,8.3397,8.4346,8.4624,8.5402,8.6329,8.7376,8.9165,9.0583,9.0583,9.1101,9.2021,9.3491,9.3105,9.313,9.4647,9.5471,9.5935,9.5935,9.5968,9.6001,9.6001,9.6001,9.6001,9.6001,9.6001,9.6001,9.6001,9.6001,9.6001,9.6001,9.6001,9.6001,9.6001,9.5306,9.5339,9.6001,9.5306,9.5306,9.5902,9.5206,9.4908,9.4842,9.4179,9.3914,9.3948,9.3948,9.4345,9.4975,9.4975,9.5405,9.6001,9.6001,9.6001,9.6001,9.6001,9.6001,9.6001,9.6001,9.5042,9.3549,9.1938,9.1403,9.1294,9.1294,9.1294,9.1294,9.1294,9.1294,9.133,9.1439,9.1081,9.0349,8.8914,8.8234,8.7383,8.5549,8.4674,8.4061,8.3593,8.2958,8.2602,8.2882,8.2893,8.3023,8.349,8.3529,8.3451,8.3229,8.3208,8.3154,8.297,8.3016,8.3016,8.2978,8.3768,8.3788,8.2896,8.2866,8.3128,8.3748,8.3807,8.4504,8.5761,8.6389,8.6728,8.6728,8.6728,8.6728,8.6668,8.597,8.5312,8.4654,8.3957,8.3337,8.2806,8.2806,8.3187,8.3837,8.4465,8.5162,8.5851,9.0516,9.0968,9.1322,9.1322,9.1454,9.1879,9.2823,9.28,9.3001,9.3949,9.471,9.5173,9.5173,9.567,9.6001,9.6001,9.6001,9.6001,9.6001,9.6001,9.6001,9.6001,9.6001,9.6001,9.6001,9.6001,9.6001,9.6001,9.5836,9.5836,9.6001,9.5836,9.5538,9.514,9.4975,9.4908,9.4875,9.471,9.4975,9.5471,9.5471,9.5571,9.5736,9.5736,9.5869,9.6001,9.6001,9.6001,9.6001,9.6001,9.6001,9.6001,9.6001,9.5739,9.5142,9.3584,9.2258,9.1294,9.1294,9.1294,9.1294,9.1294,9.1294,9.1619,9.2855,9.2116,9.1076,9.0711,9.0275,8.9836,8.9387,8.8857,8.812,8.6829,8.6122,8.5342,8.4168,8.3596,8.35,8.3894,8.3933,8.4031,8.431,8.4319,8.4391,8.4544,8.4857,8.4896,8.4574,8.5038,8.4747,8.3547,8.3517,8.3816,8.4435,8.4983,8.5641,8.6489,8.6638,8.6728,8.6728,8.6728,8.6728,8.6668,8.597,8.5312,8.4654,8.3957,8.3337,8.2806,8.2806,8.3457,8.4465,8.4654,8.5462,8.6519,9.1627,9.1627,9.1627,9.1627,9.1627,9.1828,9.2589,9.2987,9.3451,9.4213,9.4941,9.5405,9.5405,9.577,9.6001,9.6001,9.6001,9.6001,9.6001,9.6001,9.6001,9.6001,9.6001,9.6001,9.6001,9.6001,9.6001,9.6001,9.6001,9.6001,9.6001,9.6001,9.5803,9.5405,9.5405,9.5405,9.5405,9.5405,9.5637,9.6001,9.6001,9.6001,9.6001,9.6001,9.6001,9.6001,9.6001,9.6001,9.6001,9.6001,9.6001,9.6001,9.6001,9.6001,9.5838,9.5009,9.4133,9.3448,9.3448,9.3448,9.3448,9.3448,9.3448,9.3688,9.4539,9.4065,9.3274,9.2542,9.2191,9.1767,9.0868,9.0502,8.9991,8.8904,8.8476,8.8034,8.7378,8.6403,8.5791,8.5876,8.5258,8.4809,8.4705,8.4714,8.4747,8.4939,8.5135,8.5135,8.493,8.5135,8.4923,8.4166,8.4136,8.4504,8.5162,8.5821,8.6329,8.6728,8.6728,8.6728,8.6728,8.6728,8.6728,8.6698,8.6339,8.5761,8.5132,8.4773,8.4235,8.3666,8.3666,8.4265,8.5162,8.5162,8.5791,8.6668,9.1627,9.1627,9.1627,9.1627,9.1627,9.1892,9.2722,9.3384,9.408,9.4941,9.5604,9.6001,9.6001,9.6001,9.6001,9.6001,9.6001,9.6001,9.6001,9.6001,9.6001,9.6001,9.6001,9.6001,9.6001,9.6001,9.6001,9.6001,9.6001,9.6001,9.6001,9.6001,9.6001,9.6001,9.6001,9.6001,9.6001,9.6001,9.6001,9.6001,9.6001,9.6001,9.6001,9.6001,9.6001,9.6001,9.6001,9.6001,9.6001,9.6001,9.6001,9.6001,9.6001,9.6001,9.6001,9.6001,9.6001,9.6001,9.6001,9.6001,9.6001,9.6001,9.6001,9.6001,9.6001,9.6001,9.564,9.4302,9.4063,9.3549,9.1802,9.1515,9.1226,9.0448,9.0459,9.0538,9.0585,8.9586,8.8661,8.822,8.7004,8.5885,8.5073,8.5013,8.5013,8.5013,8.5013,8.5013,8.5013,8.5013,8.5013,8.5013,8.4923,8.5162,8.5851,8.6429,8.6728,8.6728,8.6728,8.6728,8.6728,8.6728,8.6728,8.6728,8.6728,8.6299,8.5671,8.5581,8.5162,8.4564,8.4444,8.4893,8.5551,8.5551,8.603,8.6608,9.1627,9.1627,9.1627,9.1627,9.1627,9.2091,9.3418,9.3716,9.4279,9.567,9.5935,9.6001,9.6001,9.6001,9.6001,9.6001,9.6001,9.6001,9.6001,9.6001,9.6001,9.6001,9.6001,9.6001,9.6001,9.6001,9.6001,9.6001,9.6001,9.6001,9.6001,9.6001,9.6001,9.6001,9.6001,9.6001,9.6001,9.6001,9.6001,9.6001,9.6001,9.6001,9.6001,9.6001,9.6001,9.6001,9.6001,9.6001,9.6001,9.6001,9.6001,9.6001,9.6001,9.6001,9.6001,9.6001,9.6001,9.6001,9.6001,9.6001,9.6001,9.6001,9.6001,9.6001,9.6001,9.6001,9.5936,9.5673,9.564,9.5541,9.5242,9.5176,9.4465,9.2307,9.2641,9.2414,9.0368,9.0533,9.0349,8.9018,8.8639,8.795,8.6517,8.6359,8.6359,8.6359,8.6359,8.6359,8.6359,8.6359,8.6359,8.6359,8.5821,8.5851,8.6549,8.6668,8.6728,8.6728,8.6728,8.6728,8.6728,8.6728,8.6728,8.6728,8.6728,8.6299,8.5641,8.5103,8.4435,8.3777,8.3277,8.3816,8.4863,8.4863,8.5641,8.6608,9.1627,9.1627,9.1627,9.1627,9.1927,9.2556,9.3649,9.4146,9.4776,9.5869,9.6001,9.6001,9.6001,9.6001,9.6001,9.6001,9.6001,9.6001,9.6001,9.6001,9.6001,9.6001,9.6001,9.6001,9.6001,9.6001,9.6001,9.6001,9.6001,9.6001,9.6001,9.6001,9.6001,9.6001,9.6001,9.6001,9.6001,9.6001,9.6001,9.6001,9.6001,9.6001,9.6001,9.6001,9.6001,9.6001,9.6001,9.6001,9.6001,9.6001,9.6001,9.6001,9.6001,9.6001,9.6001,9.6001,9.6001,9.6001,9.6001,9.6001,9.6001,9.6001,9.6001,9.6001,9.6001,9.6001,9.6001,9.6001,9.6001,9.6001,9.6001,9.6001,9.564,9.4486,9.4666,9.4534,9.3378,9.2872,9.2329,9.1615,9.0004,8.8747,8.8009,8.7181,8.6728,8.6728,8.6728,8.6728,8.6728,8.6728,8.6728,8.6728,8.6389,8.6359,8.6728,8.6728,8.6728,8.6728,8.6728,8.6728,8.6728,8.6728,8.6728,8.6728,8.6728,8.6509,8.621,8.5881,8.5581,8.5282,8.5022,8.5291,8.5761,8.5761,8.615,8.6578,9.1627,9.1627,9.1627,9.1627,9.2192,9.2954,9.3683,9.4411,9.5173,9.5902,9.6001,9.6001,9.6001,9.6001,9.6001,9.6001,9.6001,9.6001,9.6001,9.6001,9.6001,9.6001,9.6001,9.6001,9.6001,9.6001,9.6001,9.6001,9.6001,9.6001,9.6001,9.6001,9.6001,9.6001,9.6001,9.6001,9.6001,9.6001,9.6001,9.6001,9.6001,9.6001,9.6001,9.6001,9.6001,9.6001,9.6001,9.6001,9.6001,9.6001,9.6001,9.6001,9.6001,9.6001,9.6001,9.6001,9.6001,9.6001,9.6001,9.6001,9.6001,9.6001,9.6001,9.6001,9.6001,9.6001,9.6001,9.6001,9.6001,9.6001,9.6001,9.6001,9.5903,9.5705,9.5871,9.5903,9.5705,9.4839,9.4097,9.3722,9.1543,8.9929,8.9586,8.8479,8.7776,8.7776,8.7456,8.722,8.722,8.6896,8.6728,8.6728,8.6728,8.6728,8.6728,8.6728,8.6728,8.6728,8.6728,8.6728,8.6728,8.6728,8.6728,8.6728,8.6728,8.6728,8.6698,8.6509,8.6489,8.6459,8.627,8.6299,8.6489,8.6489,8.6578,8.6519,9.1627,9.1627,9.1627,9.1627,9.2192,9.2954,9.3683,9.4411,9.5173,9.5902,9.6001,9.6001,9.6001,9.6001,9.6001,9.6001,9.6001,9.6001,9.6001,9.6001,9.6001,9.6001,9.6001,9.6001,9.6001,9.6001,9.6001,9.6001,9.6001,9.6001,9.6001,9.6001,9.6001,9.6001,9.6001,9.6001,9.6001,9.6001,9.6001,9.6001,9.6001,9.6001,9.6001,9.6001,9.6001,9.6001,9.6001,9.6001,9.6001,9.6001,9.6001,9.6001,9.6001,9.6001,9.6001,9.6001,9.6001,9.6001,9.6001,9.6001,9.6001,9.6001,9.6001,9.6001,9.6001,9.6001,9.6001,9.6001,9.6001,9.6001,9.6001,9.6001,9.5705,9.4841,9.5436,9.5705,9.4839,9.5336,9.5276,9.3892,9.348,9.2785,9.1258,9.104,9.0967,9.0967,8.963,8.8861,8.8861,8.7495,8.6728,8.6728,8.6728,8.6728,8.6728,8.6728,8.6728,8.6728,8.6728,8.6728,8.6728,8.6728,8.6728,8.6728,8.6728,8.6728,8.6668,8.603,8.5761,8.5701,8.5103,8.5222,8.5761,8.5761,8.615,8.6519,9.1627,9.1627,9.1627,9.1627,9.2589,9.3484,9.3749,9.4809,9.567,9.5968,9.6001,9.6001,9.6001,9.6001,9.6001,9.6001,9.6001,9.6001,9.6001,9.6001,9.6001,9.6001,9.6001,9.6001,9.6001,9.6001,9.6001,9.6001,9.6001,9.6001,9.6001,9.6001,9.6001,9.6001,9.6001,9.6001,9.6001,9.6001,9.6001,9.6001,9.6001,9.6001,9.6001,9.6001,9.6001,9.6001,9.6001,9.6001,9.6001,9.6001,9.6001,9.6001,9.6001,9.6001,9.6001,9.6001,9.6001,9.6001,9.6001,9.6001,9.6001,9.6001,9.6001,9.6001,9.6001,9.6001,9.6001,9.6001,9.6001,9.6001,9.6001,9.6001,9.5871,9.5504,9.5772,9.5871,9.5537,9.5772,9.5772,9.5209,9.4268,9.348,9.2855,9.1902,9.1294,9.1294,8.9855,8.8982,8.8982,8.7534,8.6728,8.6728,8.6728,8.6728,8.6728,8.6728,8.6728,8.6728,8.6728,8.6728,8.6728,8.6728,8.6728,8.6728,8.6728,8.6728,8.6698,8.6459,8.6299,8.627,8.603,8.609,8.6299,8.6299,8.6449,8.6519,9.1958,9.2126,9.2291,9.2291,9.3318,9.4146,9.4146,9.5206,9.6001,9.6001,9.6001,9.6001,9.6001,9.6001,9.6001,9.6001,9.6001,9.6001,9.6001,9.6001,9.6001,9.6001,9.6001,9.6001,9.6001,9.6001,9.6001,9.6001,9.6001,9.6001,9.6001,9.6001,9.6001,9.6001,9.6001,9.6001,9.6001,9.6001,9.6001,9.6001,9.6001,9.6001,9.6001,9.6001,9.6001,9.6001,9.6001,9.6001,9.6001,9.6001,9.6001,9.6001,9.6001,9.6001,9.6001,9.6001,9.6001,9.6001,9.6001,9.6001,9.6001,9.6001,9.6001,9.6001,9.6001,9.6001,9.6001,9.6001,9.6001,9.6001,9.6001,9.6001,9.6001,9.6001,9.6001,9.6001,9.6001,9.6001,9.6001,9.6001,9.5076,9.4404,9.4404,9.3413,9.2788,9.2788,9.0857,8.9323,8.8325,8.726,8.6728,8.6728,8.6728,8.6728,8.6728,8.6728,8.6728,8.6728,8.6728,8.6728,8.6728,8.6728,8.6728,8.6728,8.6728,8.6728,8.6728,8.6728,8.6728,8.6728,8.6728,8.6728,8.6728,8.6728,8.6728,8.6519,9.2689,9.3285,9.3782,9.3782,9.4411,9.4908,9.4908,9.5538,9.6001,9.6001,9.6001,9.6001,9.6001,9.6001,9.6001,9.6001,9.6001,9.6001,9.6001,9.6001,9.6001,9.6001,9.6001,9.6001,9.6001,9.6001,9.6001,9.6001,9.6001,9.6001,9.6001,9.6001,9.6001,9.6001,9.6001,9.6001,9.6001,9.6001,9.6001,9.6001,9.6001,9.6001,9.6001,9.6001,9.6001,9.6001,9.6001,9.6001,9.6001,9.6001,9.6001,9.6001,9.6001,9.6001,9.6001,9.6001,9.6001,9.6001,9.6001,9.6001,9.6001,9.6001,9.6001,9.6001,9.6001,9.6001,9.6001,9.6001,9.6001,9.6001,9.6001,9.6001,9.6001,9.6001,9.6001,9.6001,9.6001,9.6001,9.6001,9.6001,9.6001,9.6001,9.6001,9.6001,9.6001,9.6001,9.3068,8.9967,8.6896,8.6728,8.6728,8.6728,8.6728,8.6728,8.6728,8.6728,8.6728,8.6728,8.6728,8.6728,8.6728,8.6728,8.6728,8.6728,8.6728,8.6728,8.6728,8.6728,8.6728,8.6728,8.6728,8.6728,8.6728,8.6698,8.6698,8.6519,9.3351,9.3649,9.3782,9.3782,9.4411,9.4908,9.4908,9.5538,9.6001,9.6001,9.6001,9.6001,9.6001,9.6001,9.6001,9.6001,9.6001,9.6001,9.6001,9.6001,9.6001,9.6001,9.6001,9.6001,9.6001,9.6001,9.6001,9.6001,9.6001,9.6001,9.6001,9.6001,9.6001,9.6001,9.6001,9.6001,9.6001,9.6001,9.6001,9.6001,9.6001,9.6001,9.6001,9.6001,9.6001,9.6001,9.6001,9.6001,9.6001,9.6001,9.6001,9.6001,9.6001,9.6001,9.6001,9.6001,9.6001,9.6001,9.6001,9.6001,9.6001,9.6001,9.6001,9.6001,9.6001,9.6001,9.6001,9.6001,9.6001,9.6001,9.6001,9.6001,9.6001,9.6001,9.6001,9.6001,9.6001,9.6001,9.6001,9.6001,9.6001,9.6001,9.6001,9.6001,9.6001,9.6001,9.3068,9.0417,8.8402,8.7299,8.6728,8.6728,8.6728,8.6728,8.6728,8.6728,8.6728,8.6728,8.6728,8.6728,8.6728,8.6728,8.6728,8.6728,8.6728,8.6728,8.6728,8.6728,8.6728,8.6728,8.6728,8.6728,8.6668,8.615,8.6,8.5791,9.408,9.4478,9.4676,9.4676,9.5041,9.5339,9.5339,9.5703,9.6001,9.6001,9.6001,9.6001,9.6001,9.6001,9.6001,9.6001,9.6001,9.6001,9.6001,9.6001,9.6001,9.6001,9.6001,9.6001,9.6001,9.6001,9.6001,9.6001,9.6001,9.6001,9.6001,9.6001,9.6001,9.6001,9.6001,9.6001,9.6001,9.6001,9.6001,9.6001,9.6001,9.6001,9.6001,9.6001,9.6001,9.6001,9.6001,9.6001,9.6001,9.6001,9.6001,9.6001,9.6001,9.6001,9.6001,9.6001,9.6001,9.6001,9.6001,9.6001,9.6001,9.6001,9.6001,9.6001,9.6001,9.6001,9.6001,9.6001,9.6001,9.6001,9.6001,9.6001,9.6001,9.6001,9.6001,9.6001,9.6001,9.6001,9.6001,9.6001,9.6001,9.6001,9.6001,9.6001,9.5739,9.5142,9.2718,9.0601,8.9058,8.7534,8.6728,8.6728,8.6728,8.6728,8.6728,8.6728,8.6728,8.6728,8.6728,8.6728,8.6728,8.6728,8.6728,8.6728,8.6728,8.6728,8.6728,8.6728,8.6549,8.627,8.627,8.612,8.5851,8.5462,8.5312,8.5162,9.4842,9.5538,9.6001,9.6001,9.6001,9.6001,9.6001,9.6001,9.6001,9.6001,9.6001,9.6001,9.6001,9.6001,9.6001,9.6001,9.6001,9.6001,9.6001,9.6001,9.6001,9.6001,9.6001,9.6001,9.6001,9.6001,9.6001,9.6001,9.6001,9.6001,9.6001,9.6001,9.6001,9.6001,9.6001,9.6001,9.6001,9.6001,9.6001,9.6001,9.6001,9.6001,9.6001,9.6001,9.6001,9.6001,9.6001,9.6001,9.6001,9.6001,9.6001,9.6001,9.6001,9.6001,9.6001,9.6001,9.6001,9.6001,9.6001,9.6001,9.6001,9.6001,9.6001,9.6001,9.6001,9.6001,9.6001,9.6001,9.6001,9.6001,9.6001,9.6001,9.6001,9.6001,9.6001,9.6001,9.6001,9.6001,9.6001,9.6001,9.6001,9.6001,9.6001,9.6001,9.5441,9.4029,9.2294,9.0674,8.9285,8.7581,8.6728,8.6728,8.6728,8.6728,8.6728,8.6728,8.6728,8.6728,8.6728,8.6728,8.6728,8.6728,8.6728,8.6728,8.6728,8.6728,8.6728,8.6728,8.6329,8.5791,8.5791,8.5372,8.4803,8.4743,8.4684,8.4534,9.5637,9.5902,9.6001,9.6001,9.6001,9.6001,9.6001,9.6001,9.6001,9.6001,9.6001,9.6001,9.6001,9.6001,9.6001,9.6001,9.6001,9.6001,9.6001,9.6001,9.6001,9.6001,9.6001,9.6001,9.6001,9.6001,9.6001,9.6001,9.6001,9.6001,9.6001,9.6001,9.6001,9.6001,9.6001,9.6001,9.6001,9.6001,9.6001,9.6001,9.6001,9.6001,9.6001,9.6001,9.6001,9.6001,9.6001,9.6001,9.6001,9.6001,9.6001,9.6001,9.6001,9.6001,9.6001,9.6001,9.6001,9.6001,9.6001,9.6001,9.6001,9.6001,9.6001,9.6001,9.6001,9.6001,9.6001,9.6001,9.6001,9.6001,9.6001,9.6001,9.6001,9.6001,9.6001,9.6001,9.6001,9.6001,9.6001,9.6001,9.6001,9.6001,9.6001,9.6001,9.587,9.5541,9.2893,9.1149,9.0821,8.821,8.6728,8.6728,8.6728,8.6728,8.6728,8.6728,8.6728,8.6728,8.6728,8.6728,8.6728,8.6728,8.6728,8.6728,8.6728,8.6728,8.6728,8.6728,8.6638,8.6449,8.6449,8.606,8.5432,8.4893,8.4384,8.3807,9.5869,9.6001,9.6001,9.6001,9.6001,9.6001,9.6001,9.6001,9.6001,9.6001,9.6001,9.6001,9.6001,9.6001,9.6001,9.6001,9.6001,9.6001,9.6001,9.6001,9.6001,9.6001,9.6001,9.6001,9.6001,9.6001,9.6001,9.6001,9.6001,9.6001,9.6001,9.6001,9.6001,9.6001,9.6001,9.6001,9.6001,9.6001,9.6001,9.6001,9.6001,9.6001,9.6001,9.6001,9.6001,9.6001,9.6001,9.6001,9.6001,9.6001,9.6001,9.6001,9.6001,9.6001,9.6001,9.6001,9.6001,9.6001,9.6001,9.6001,9.6001,9.6001,9.6001,9.6001,9.6001,9.6001,9.6001,9.6001,9.6001,9.6001,9.6001,9.6001,9.6001,9.6001,9.6001,9.6001,9.6001,9.6001,9.6001,9.6001,9.6001,9.6001,9.6001,9.6001,9.6001,9.6001,9.3068,9.1294,9.1294,8.8402,8.6728,8.6728,8.6728,8.6728,8.6728,8.6728,8.6728,8.6728,8.6728,8.6728,8.6728,8.6728,8.6728,8.6728,8.6728,8.6728,8.6728,8.6728,8.6519,8.621,8.621,8.5791,8.5132,8.4465,8.3846,8.3217,9.5869,9.6001,9.6001,9.6001,9.6001,9.6001,9.6001,9.6001,9.6001,9.6001,9.6001,9.6001,9.6001,9.6001,9.6001,9.6001,9.6001,9.6001,9.6001,9.6001,9.6001,9.6001,9.6001,9.6001,9.6001,9.6001,9.6001,9.6001,9.6001,9.6001,9.6001,9.6001,9.6001,9.6001,9.6001,9.6001,9.6001,9.6001,9.6001,9.6001,9.6001,9.6001,9.6001,9.6001,9.6001,9.6001,9.6001,9.6001,9.6001,9.6001,9.6001,9.6001,9.6001,9.6001,9.6001,9.6001,9.6001,9.6001,9.6001,9.6001,9.6001,9.6001,9.6001,9.6001,9.6001,9.6001,9.6001,9.6001,9.6001,9.6001,9.6001,9.6001,9.6001,9.6001,9.6001,9.6001,9.6001,9.6001,9.6001,9.6001,9.6001,9.6001,9.6001,9.6001,9.6001,9.6001,9.3068,9.1294,9.1294,8.8402,8.6728,8.6728,8.6728,8.6728,8.6728,8.6728,8.6728,8.6728,8.6728,8.6728,8.6728,8.6728,8.6728,8.6728,8.6728,8.6728,8.6728,8.6728,8.6359,8.5851,8.5851,8.5462,8.4803,8.3987,8.3337,8.2806,9.6001,9.6001,9.6001,9.6001,9.6001,9.6001,9.6001,9.6001,9.6001,9.6001,9.6001,9.6001,9.6001,9.6001,9.6001,9.6001,9.6001,9.6001,9.6001,9.6001,9.6001,9.6001,9.6001,9.6001,9.6001,9.6001,9.6001,9.6001,9.6001,9.6001,9.6001,9.6001,9.6001,9.6001,9.6001,9.6001,9.6001,9.6001,9.6001,9.6001,9.6001,9.6001,9.6001,9.6001,9.6001,9.6001,9.6001,9.6001,9.6001,9.6001,9.6001,9.6001,9.6001,9.6001,9.6001,9.6001,9.6001,9.6001,9.6001,9.6001,9.6001,9.6001,9.6001,9.6001,9.6001,9.6001,9.6001,9.6001,9.6001,9.6001,9.6001,9.6001,9.6001,9.6001,9.6001,9.6001,9.6001,9.6001,9.6001,9.6001,9.6001,9.6001,9.6001,9.6001,9.6001,9.6001,9.3068,9.1294,9.1294,8.8402,8.6728,8.6728,8.6728,8.6728,8.6728,8.6728,8.6728,8.6728,8.6728,8.6728,8.6728,8.6728,8.6728,8.6728,8.6728,8.6728,8.6728,8.6728,8.6668,8.6578,8.6578,8.615,8.5402,8.4136,8.3337,8.2806,9.6001,9.6001,9.6001,9.6001,9.6001,9.6001,9.6001,9.6001,9.6001,9.6001,9.6001,9.6001,9.6001,9.6001,9.6001,9.6001,9.6001,9.6001,9.6001,9.6001,9.6001,9.6001,9.6001,9.6001,9.6001,9.6001,9.6001,9.6001,9.6001,9.6001,9.6001,9.6001,9.6001,9.6001,9.6001,9.6001,9.6001,9.6001,9.6001,9.6001,9.6001,9.6001,9.6001,9.6001,9.6001,9.6001,9.6001,9.6001,9.6001,9.6001,9.6001,9.6001,9.6001,9.6001,9.6001,9.6001,9.6001,9.6001,9.6001,9.6001,9.6001,9.6001,9.6001,9.6001,9.6001,9.6001,9.6001,9.6001,9.6001,9.6001,9.6001,9.6001,9.6001,9.6001,9.6001,9.6001,9.6001,9.6001,9.6001,9.6001,9.6001,9.6001,9.6001,9.6001,9.6001,9.6001,9.3894,9.2258,9.133,8.9179,8.7612,8.6698,8.6728,8.6728,8.6728,8.6728,8.6728,8.6728,8.6728,8.6728,8.6728,8.6728,8.6728,8.6728,8.6728,8.6519,8.612,8.612,8.591,8.5581,8.5581,8.4953,8.4034,8.3397,8.2529,8.1661]}]]